<?xml version="1.0" encoding="UTF-8" standalone="no" ?>
<gpx xmlns="http://www.topografix.com/GPX/1/1" xmlns:xsi="http://www.w3.org/2001/XMLSchema-instance" xsi:schemaLocation="http://www.topografix.com/GPX/1/1 http://www.topografix.com/GPX/1/1/gpx.xsd" version="1.1" creator="VisuGPX - https://www.visugpx.com">
  <metadata>
    <name>Refuge de Péclet-Polset, col du Soufre</name>
    <desc><![CDATA[Parking des Ruelles, pont de la Pêche, refuge du Roc de la Pêche, Les Mollaret, refuge de Péclet-Polset, lac Blanc, col du Soufre ; retour par le même chemin.]]></desc>
  </metadata>
  <trk>
    <name><![CDATA[2019-09-12 17:13:11]]></name>
    <trkseg>
      <trkpt lat="45.33939" lon="6.69508">
        <ele>1754.54</ele>
        <time>2019-09-12T06:50:51Z</time>
      </trkpt>
      <trkpt lat="45.3394" lon="6.69508">
        <ele>1754.54</ele>
        <time>2019-09-12T06:50:52Z</time>
      </trkpt>
      <trkpt lat="45.3394" lon="6.69509">
        <ele>1753.1</ele>
        <time>2019-09-12T06:50:56Z</time>
      </trkpt>
      <trkpt lat="45.3394" lon="6.69509">
        <ele>1752.14</ele>
        <time>2019-09-12T06:50:59Z</time>
      </trkpt>
      <trkpt lat="45.3394" lon="6.69508">
        <ele>1755.5</ele>
        <time>2019-09-12T06:51:00Z</time>
      </trkpt>
      <trkpt lat="45.33941" lon="6.69509">
        <ele>1753.58</ele>
        <time>2019-09-12T06:51:01Z</time>
      </trkpt>
      <trkpt lat="45.33944" lon="6.69512">
        <ele>1753.1</ele>
        <time>2019-09-12T06:51:20Z</time>
      </trkpt>
      <trkpt lat="45.33945" lon="6.69507">
        <ele>1753.1</ele>
        <time>2019-09-12T06:51:43Z</time>
      </trkpt>
      <trkpt lat="45.33941" lon="6.69515">
        <ele>1753.1</ele>
        <time>2019-09-12T06:51:57Z</time>
      </trkpt>
      <trkpt lat="45.33929" lon="6.69512">
        <ele>1753.1</ele>
        <time>2019-09-12T06:52:13Z</time>
      </trkpt>
      <trkpt lat="45.33919" lon="6.69513">
        <ele>1754.06</ele>
        <time>2019-09-12T06:52:25Z</time>
      </trkpt>
      <trkpt lat="45.33911" lon="6.69517">
        <ele>1754.06</ele>
        <time>2019-09-12T06:52:39Z</time>
      </trkpt>
      <trkpt lat="45.3391" lon="6.69515">
        <ele>1754.54</ele>
        <time>2019-09-12T06:52:54Z</time>
      </trkpt>
      <trkpt lat="45.33908" lon="6.69517">
        <ele>1754.54</ele>
        <time>2019-09-12T06:53:11Z</time>
      </trkpt>
      <trkpt lat="45.33908" lon="6.69515">
        <ele>1754.54</ele>
        <time>2019-09-12T06:53:30Z</time>
      </trkpt>
      <trkpt lat="45.3391" lon="6.69519">
        <ele>1754.54</ele>
        <time>2019-09-12T06:53:51Z</time>
      </trkpt>
      <trkpt lat="45.33903" lon="6.69519">
        <ele>1754.54</ele>
        <time>2019-09-12T06:54:06Z</time>
      </trkpt>
      <trkpt lat="45.33896" lon="6.69518">
        <ele>1754.54</ele>
        <time>2019-09-12T06:54:20Z</time>
      </trkpt>
      <trkpt lat="45.33887" lon="6.69516">
        <ele>1755.02</ele>
        <time>2019-09-12T06:54:33Z</time>
      </trkpt>
      <trkpt lat="45.33885" lon="6.69515">
        <ele>1755.02</ele>
        <time>2019-09-12T06:54:35Z</time>
      </trkpt>
      <trkpt lat="45.33872" lon="6.69509">
        <ele>1755.5</ele>
        <time>2019-09-12T06:54:52Z</time>
      </trkpt>
      <trkpt lat="45.33858" lon="6.69502">
        <ele>1756.47</ele>
        <time>2019-09-12T06:55:08Z</time>
      </trkpt>
      <trkpt lat="45.33844" lon="6.69498">
        <ele>1756.95</ele>
        <time>2019-09-12T06:55:22Z</time>
      </trkpt>
      <trkpt lat="45.33831" lon="6.69481">
        <ele>1757.91</ele>
        <time>2019-09-12T06:55:40Z</time>
      </trkpt>
      <trkpt lat="45.33823" lon="6.69473">
        <ele>1758.87</ele>
        <time>2019-09-12T06:55:54Z</time>
      </trkpt>
      <trkpt lat="45.33816" lon="6.69464">
        <ele>1759.35</ele>
        <time>2019-09-12T06:56:06Z</time>
      </trkpt>
      <trkpt lat="45.33806" lon="6.69452">
        <ele>1760.31</ele>
        <time>2019-09-12T06:56:21Z</time>
      </trkpt>
      <trkpt lat="45.338" lon="6.6944">
        <ele>1761.27</ele>
        <time>2019-09-12T06:56:33Z</time>
      </trkpt>
      <trkpt lat="45.33789" lon="6.69425">
        <ele>1762.71</ele>
        <time>2019-09-12T06:56:50Z</time>
      </trkpt>
      <trkpt lat="45.33779" lon="6.6941">
        <ele>1764.16</ele>
        <time>2019-09-12T06:57:06Z</time>
      </trkpt>
      <trkpt lat="45.33768" lon="6.69398">
        <ele>1765.12</ele>
        <time>2019-09-12T06:57:22Z</time>
      </trkpt>
      <trkpt lat="45.33756" lon="6.69385">
        <ele>1765.6</ele>
        <time>2019-09-12T06:57:37Z</time>
      </trkpt>
      <trkpt lat="45.3374" lon="6.69373">
        <ele>1766.08</ele>
        <time>2019-09-12T06:57:55Z</time>
      </trkpt>
      <trkpt lat="45.33725" lon="6.69362">
        <ele>1766.56</ele>
        <time>2019-09-12T06:58:11Z</time>
      </trkpt>
      <trkpt lat="45.33715" lon="6.69362">
        <ele>1766.56</ele>
        <time>2019-09-12T06:58:29Z</time>
      </trkpt>
      <trkpt lat="45.33715" lon="6.69364">
        <ele>1766.56</ele>
        <time>2019-09-12T06:58:39Z</time>
      </trkpt>
      <trkpt lat="45.33715" lon="6.69364">
        <ele>1766.56</ele>
        <time>2019-09-12T06:58:41Z</time>
      </trkpt>
      <trkpt lat="45.33706" lon="6.69356">
        <ele>1766.56</ele>
        <time>2019-09-12T06:59:00Z</time>
      </trkpt>
      <trkpt lat="45.33706" lon="6.69355">
        <ele>1766.56</ele>
        <time>2019-09-12T06:59:01Z</time>
      </trkpt>
      <trkpt lat="45.33703" lon="6.69342">
        <ele>1766.56</ele>
        <time>2019-09-12T06:59:15Z</time>
      </trkpt>
      <trkpt lat="45.33702" lon="6.69342">
        <ele>1766.56</ele>
        <time>2019-09-12T06:59:16Z</time>
      </trkpt>
      <trkpt lat="45.337" lon="6.69337">
        <ele>1766.56</ele>
        <time>2019-09-12T06:59:21Z</time>
      </trkpt>
      <trkpt lat="45.33698" lon="6.69331">
        <ele>1766.56</ele>
        <time>2019-09-12T06:59:26Z</time>
      </trkpt>
      <trkpt lat="45.33693" lon="6.69314">
        <ele>1766.56</ele>
        <time>2019-09-12T06:59:38Z</time>
      </trkpt>
      <trkpt lat="45.33682" lon="6.69296">
        <ele>1766.56</ele>
        <time>2019-09-12T06:59:53Z</time>
      </trkpt>
      <trkpt lat="45.33673" lon="6.69284">
        <ele>1766.56</ele>
        <time>2019-09-12T07:00:03Z</time>
      </trkpt>
      <trkpt lat="45.33666" lon="6.6927">
        <ele>1767.04</ele>
        <time>2019-09-12T07:00:13Z</time>
      </trkpt>
      <trkpt lat="45.33667" lon="6.6926">
        <ele>1767.52</ele>
        <time>2019-09-12T07:00:28Z</time>
      </trkpt>
      <trkpt lat="45.33673" lon="6.69255">
        <ele>1768.48</ele>
        <time>2019-09-12T07:00:44Z</time>
      </trkpt>
      <trkpt lat="45.33685" lon="6.69257">
        <ele>1769.92</ele>
        <time>2019-09-12T07:00:59Z</time>
      </trkpt>
      <trkpt lat="45.33698" lon="6.69257">
        <ele>1771.85</ele>
        <time>2019-09-12T07:01:13Z</time>
      </trkpt>
      <trkpt lat="45.3371" lon="6.69254">
        <ele>1774.73</ele>
        <time>2019-09-12T07:01:28Z</time>
      </trkpt>
      <trkpt lat="45.33718" lon="6.69251">
        <ele>1776.65</ele>
        <time>2019-09-12T07:01:42Z</time>
      </trkpt>
      <trkpt lat="45.33714" lon="6.69238">
        <ele>1778.1</ele>
        <time>2019-09-12T07:01:55Z</time>
      </trkpt>
      <trkpt lat="45.33702" lon="6.69231">
        <ele>1780.5</ele>
        <time>2019-09-12T07:02:10Z</time>
      </trkpt>
      <trkpt lat="45.33692" lon="6.69226">
        <ele>1782.42</ele>
        <time>2019-09-12T07:02:27Z</time>
      </trkpt>
      <trkpt lat="45.33685" lon="6.69219">
        <ele>1785.31</ele>
        <time>2019-09-12T07:02:44Z</time>
      </trkpt>
      <trkpt lat="45.33679" lon="6.69211">
        <ele>1787.23</ele>
        <time>2019-09-12T07:02:59Z</time>
      </trkpt>
      <trkpt lat="45.33673" lon="6.69203">
        <ele>1789.15</ele>
        <time>2019-09-12T07:03:13Z</time>
      </trkpt>
      <trkpt lat="45.33665" lon="6.69192">
        <ele>1792.03</ele>
        <time>2019-09-12T07:03:31Z</time>
      </trkpt>
      <trkpt lat="45.33656" lon="6.69178">
        <ele>1794.44</ele>
        <time>2019-09-12T07:03:50Z</time>
      </trkpt>
      <trkpt lat="45.33648" lon="6.69169">
        <ele>1795.88</ele>
        <time>2019-09-12T07:04:06Z</time>
      </trkpt>
      <trkpt lat="45.33638" lon="6.69158">
        <ele>1797.8</ele>
        <time>2019-09-12T07:04:25Z</time>
      </trkpt>
      <trkpt lat="45.33628" lon="6.69151">
        <ele>1799.73</ele>
        <time>2019-09-12T07:04:41Z</time>
      </trkpt>
      <trkpt lat="45.33617" lon="6.69144">
        <ele>1801.65</ele>
        <time>2019-09-12T07:04:55Z</time>
      </trkpt>
      <trkpt lat="45.33605" lon="6.69137">
        <ele>1803.09</ele>
        <time>2019-09-12T07:05:10Z</time>
      </trkpt>
      <trkpt lat="45.33594" lon="6.6913">
        <ele>1805.01</ele>
        <time>2019-09-12T07:05:26Z</time>
      </trkpt>
      <trkpt lat="45.33585" lon="6.69125">
        <ele>1807.9</ele>
        <time>2019-09-12T07:05:42Z</time>
      </trkpt>
      <trkpt lat="45.33577" lon="6.69119">
        <ele>1809.82</ele>
        <time>2019-09-12T07:05:58Z</time>
      </trkpt>
      <trkpt lat="45.33569" lon="6.69111">
        <ele>1812.22</ele>
        <time>2019-09-12T07:06:16Z</time>
      </trkpt>
      <trkpt lat="45.33563" lon="6.69103">
        <ele>1814.63</ele>
        <time>2019-09-12T07:06:33Z</time>
      </trkpt>
      <trkpt lat="45.33558" lon="6.69096">
        <ele>1817.03</ele>
        <time>2019-09-12T07:06:51Z</time>
      </trkpt>
      <trkpt lat="45.33548" lon="6.69089">
        <ele>1818.95</ele>
        <time>2019-09-12T07:07:06Z</time>
      </trkpt>
      <trkpt lat="45.3354" lon="6.69081">
        <ele>1821.84</ele>
        <time>2019-09-12T07:07:25Z</time>
      </trkpt>
      <trkpt lat="45.33529" lon="6.69071">
        <ele>1822.8</ele>
        <time>2019-09-12T07:07:42Z</time>
      </trkpt>
      <trkpt lat="45.33517" lon="6.69068">
        <ele>1825.68</ele>
        <time>2019-09-12T07:08:01Z</time>
      </trkpt>
      <trkpt lat="45.33507" lon="6.69057">
        <ele>1827.12</ele>
        <time>2019-09-12T07:08:18Z</time>
      </trkpt>
      <trkpt lat="45.33495" lon="6.69051">
        <ele>1829.05</ele>
        <time>2019-09-12T07:08:35Z</time>
      </trkpt>
      <trkpt lat="45.33486" lon="6.69044">
        <ele>1831.45</ele>
        <time>2019-09-12T07:08:51Z</time>
      </trkpt>
      <trkpt lat="45.33477" lon="6.69037">
        <ele>1833.85</ele>
        <time>2019-09-12T07:09:08Z</time>
      </trkpt>
      <trkpt lat="45.3347" lon="6.69032">
        <ele>1835.29</ele>
        <time>2019-09-12T07:09:22Z</time>
      </trkpt>
      <trkpt lat="45.33462" lon="6.69027">
        <ele>1837.7</ele>
        <time>2019-09-12T07:09:39Z</time>
      </trkpt>
      <trkpt lat="45.33453" lon="6.69024">
        <ele>1840.58</ele>
        <time>2019-09-12T07:09:54Z</time>
      </trkpt>
      <trkpt lat="45.33444" lon="6.69025">
        <ele>1842.5</ele>
        <time>2019-09-12T07:10:12Z</time>
      </trkpt>
      <trkpt lat="45.33434" lon="6.69026">
        <ele>1845.39</ele>
        <time>2019-09-12T07:10:31Z</time>
      </trkpt>
      <trkpt lat="45.33423" lon="6.69026">
        <ele>1847.31</ele>
        <time>2019-09-12T07:10:49Z</time>
      </trkpt>
      <trkpt lat="45.3341" lon="6.69027">
        <ele>1849.71</ele>
        <time>2019-09-12T07:11:06Z</time>
      </trkpt>
      <trkpt lat="45.33397" lon="6.6903">
        <ele>1851.16</ele>
        <time>2019-09-12T07:11:25Z</time>
      </trkpt>
      <trkpt lat="45.33386" lon="6.69027">
        <ele>1853.56</ele>
        <time>2019-09-12T07:11:41Z</time>
      </trkpt>
      <trkpt lat="45.33374" lon="6.69018">
        <ele>1855.96</ele>
        <time>2019-09-12T07:11:59Z</time>
      </trkpt>
      <trkpt lat="45.33361" lon="6.69008">
        <ele>1856.92</ele>
        <time>2019-09-12T07:12:14Z</time>
      </trkpt>
      <trkpt lat="45.3335" lon="6.69006">
        <ele>1858.37</ele>
        <time>2019-09-12T07:12:27Z</time>
      </trkpt>
      <trkpt lat="45.33336" lon="6.69004">
        <ele>1859.81</ele>
        <time>2019-09-12T07:12:43Z</time>
      </trkpt>
      <trkpt lat="45.33322" lon="6.69002">
        <ele>1860.29</ele>
        <time>2019-09-12T07:12:58Z</time>
      </trkpt>
      <trkpt lat="45.33306" lon="6.69002">
        <ele>1862.21</ele>
        <time>2019-09-12T07:13:16Z</time>
      </trkpt>
      <trkpt lat="45.33297" lon="6.69004">
        <ele>1864.13</ele>
        <time>2019-09-12T07:13:31Z</time>
      </trkpt>
      <trkpt lat="45.33283" lon="6.69006">
        <ele>1866.54</ele>
        <time>2019-09-12T07:13:48Z</time>
      </trkpt>
      <trkpt lat="45.33276" lon="6.6901">
        <ele>1867.02</ele>
        <time>2019-09-12T07:13:56Z</time>
      </trkpt>
      <trkpt lat="45.33266" lon="6.69024">
        <ele>1868.94</ele>
        <time>2019-09-12T07:14:11Z</time>
      </trkpt>
      <trkpt lat="45.33254" lon="6.69027">
        <ele>1870.38</ele>
        <time>2019-09-12T07:14:27Z</time>
      </trkpt>
      <trkpt lat="45.33253" lon="6.69027">
        <ele>1870.38</ele>
        <time>2019-09-12T07:14:28Z</time>
      </trkpt>
      <trkpt lat="45.33236" lon="6.69023">
        <ele>1871.34</ele>
        <time>2019-09-12T07:14:45Z</time>
      </trkpt>
      <trkpt lat="45.33225" lon="6.69022">
        <ele>1872.3</ele>
        <time>2019-09-12T07:14:56Z</time>
      </trkpt>
      <trkpt lat="45.33212" lon="6.69016">
        <ele>1873.27</ele>
        <time>2019-09-12T07:15:12Z</time>
      </trkpt>
      <trkpt lat="45.33199" lon="6.69008">
        <ele>1875.19</ele>
        <time>2019-09-12T07:15:24Z</time>
      </trkpt>
      <trkpt lat="45.33187" lon="6.68999">
        <ele>1876.63</ele>
        <time>2019-09-12T07:15:41Z</time>
      </trkpt>
      <trkpt lat="45.33174" lon="6.68994">
        <ele>1879.03</ele>
        <time>2019-09-12T07:15:59Z</time>
      </trkpt>
      <trkpt lat="45.33167" lon="6.68994">
        <ele>1880</ele>
        <time>2019-09-12T07:16:07Z</time>
      </trkpt>
      <trkpt lat="45.33162" lon="6.68997">
        <ele>1880.48</ele>
        <time>2019-09-12T07:16:20Z</time>
      </trkpt>
      <trkpt lat="45.33161" lon="6.68997">
        <ele>1880.48</ele>
        <time>2019-09-12T07:16:34Z</time>
      </trkpt>
      <trkpt lat="45.33162" lon="6.68998">
        <ele>1879.03</ele>
        <time>2019-09-12T07:16:37Z</time>
      </trkpt>
      <trkpt lat="45.33162" lon="6.68998">
        <ele>1882.4</ele>
        <time>2019-09-12T07:16:38Z</time>
      </trkpt>
      <trkpt lat="45.33162" lon="6.68998">
        <ele>1880.96</ele>
        <time>2019-09-12T07:16:39Z</time>
      </trkpt>
      <trkpt lat="45.33163" lon="6.68998">
        <ele>1880.48</ele>
        <time>2019-09-12T07:17:04Z</time>
      </trkpt>
      <trkpt lat="45.33156" lon="6.69">
        <ele>1880.48</ele>
        <time>2019-09-12T07:17:19Z</time>
      </trkpt>
      <trkpt lat="45.33142" lon="6.69">
        <ele>1882.4</ele>
        <time>2019-09-12T07:17:34Z</time>
      </trkpt>
      <trkpt lat="45.33129" lon="6.68999">
        <ele>1883.84</ele>
        <time>2019-09-12T07:17:50Z</time>
      </trkpt>
      <trkpt lat="45.33117" lon="6.69001">
        <ele>1886.24</ele>
        <time>2019-09-12T07:18:06Z</time>
      </trkpt>
      <trkpt lat="45.3312" lon="6.69">
        <ele>1886.24</ele>
        <time>2019-09-12T07:18:20Z</time>
      </trkpt>
      <trkpt lat="45.33119" lon="6.69">
        <ele>1886.72</ele>
        <time>2019-09-12T07:18:39Z</time>
      </trkpt>
      <trkpt lat="45.33117" lon="6.68998">
        <ele>1886.72</ele>
        <time>2019-09-12T07:18:54Z</time>
      </trkpt>
      <trkpt lat="45.33115" lon="6.69002">
        <ele>1886.72</ele>
        <time>2019-09-12T07:19:10Z</time>
      </trkpt>
      <trkpt lat="45.33104" lon="6.69003">
        <ele>1888.17</ele>
        <time>2019-09-12T07:19:25Z</time>
      </trkpt>
      <trkpt lat="45.33093" lon="6.69004">
        <ele>1889.61</ele>
        <time>2019-09-12T07:19:39Z</time>
      </trkpt>
      <trkpt lat="45.33084" lon="6.69004">
        <ele>1890.57</ele>
        <time>2019-09-12T07:19:50Z</time>
      </trkpt>
      <trkpt lat="45.33081" lon="6.69004">
        <ele>1890.57</ele>
        <time>2019-09-12T07:19:53Z</time>
      </trkpt>
      <trkpt lat="45.33065" lon="6.69006">
        <ele>1891.53</ele>
        <time>2019-09-12T07:20:11Z</time>
      </trkpt>
      <trkpt lat="45.33049" lon="6.69005">
        <ele>1892.97</ele>
        <time>2019-09-12T07:20:28Z</time>
      </trkpt>
      <trkpt lat="45.33037" lon="6.69004">
        <ele>1894.42</ele>
        <time>2019-09-12T07:20:42Z</time>
      </trkpt>
      <trkpt lat="45.33025" lon="6.69003">
        <ele>1895.86</ele>
        <time>2019-09-12T07:20:57Z</time>
      </trkpt>
      <trkpt lat="45.33017" lon="6.69004">
        <ele>1897.3</ele>
        <time>2019-09-12T07:21:12Z</time>
      </trkpt>
      <trkpt lat="45.33" lon="6.69005">
        <ele>1898.74</ele>
        <time>2019-09-12T07:21:29Z</time>
      </trkpt>
      <trkpt lat="45.32986" lon="6.69003">
        <ele>1900.18</ele>
        <time>2019-09-12T07:21:45Z</time>
      </trkpt>
      <trkpt lat="45.32973" lon="6.69001">
        <ele>1901.14</ele>
        <time>2019-09-12T07:22:00Z</time>
      </trkpt>
      <trkpt lat="45.32956" lon="6.68999">
        <ele>1902.11</ele>
        <time>2019-09-12T07:22:18Z</time>
      </trkpt>
      <trkpt lat="45.32939" lon="6.68997">
        <ele>1903.07</ele>
        <time>2019-09-12T07:22:35Z</time>
      </trkpt>
      <trkpt lat="45.32925" lon="6.68995">
        <ele>1904.03</ele>
        <time>2019-09-12T07:22:51Z</time>
      </trkpt>
      <trkpt lat="45.32908" lon="6.68992">
        <ele>1904.51</ele>
        <time>2019-09-12T07:23:09Z</time>
      </trkpt>
      <trkpt lat="45.32893" lon="6.68992">
        <ele>1906.43</ele>
        <time>2019-09-12T07:23:26Z</time>
      </trkpt>
      <trkpt lat="45.32881" lon="6.6899">
        <ele>1907.39</ele>
        <time>2019-09-12T07:23:41Z</time>
      </trkpt>
      <trkpt lat="45.32871" lon="6.6899">
        <ele>1909.32</ele>
        <time>2019-09-12T07:23:55Z</time>
      </trkpt>
      <trkpt lat="45.32858" lon="6.68987">
        <ele>1909.8</ele>
        <time>2019-09-12T07:24:11Z</time>
      </trkpt>
      <trkpt lat="45.32849" lon="6.68983">
        <ele>1908.35</ele>
        <time>2019-09-12T07:24:19Z</time>
      </trkpt>
      <trkpt lat="45.32848" lon="6.68982">
        <ele>1908.35</ele>
        <time>2019-09-12T07:24:21Z</time>
      </trkpt>
      <trkpt lat="45.32844" lon="6.6898">
        <ele>1907.87</ele>
        <time>2019-09-12T07:24:25Z</time>
      </trkpt>
      <trkpt lat="45.32825" lon="6.68972">
        <ele>1906.91</ele>
        <time>2019-09-12T07:24:44Z</time>
      </trkpt>
      <trkpt lat="45.32808" lon="6.68969">
        <ele>1907.39</ele>
        <time>2019-09-12T07:25:01Z</time>
      </trkpt>
      <trkpt lat="45.32803" lon="6.6897">
        <ele>1908.35</ele>
        <time>2019-09-12T07:25:07Z</time>
      </trkpt>
      <trkpt lat="45.32792" lon="6.68979">
        <ele>1910.28</ele>
        <time>2019-09-12T07:25:22Z</time>
      </trkpt>
      <trkpt lat="45.32781" lon="6.68993">
        <ele>1912.2</ele>
        <time>2019-09-12T07:25:39Z</time>
      </trkpt>
      <trkpt lat="45.32771" lon="6.69009">
        <ele>1914.6</ele>
        <time>2019-09-12T07:25:56Z</time>
      </trkpt>
      <trkpt lat="45.3277" lon="6.69011">
        <ele>1915.08</ele>
        <time>2019-09-12T07:25:58Z</time>
      </trkpt>
      <trkpt lat="45.32766" lon="6.69022">
        <ele>1915.56</ele>
        <time>2019-09-12T07:26:13Z</time>
      </trkpt>
      <trkpt lat="45.32767" lon="6.69024">
        <ele>1915.56</ele>
        <time>2019-09-12T07:26:32Z</time>
      </trkpt>
      <trkpt lat="45.32766" lon="6.69022">
        <ele>1916.04</ele>
        <time>2019-09-12T07:26:48Z</time>
      </trkpt>
      <trkpt lat="45.32766" lon="6.69026">
        <ele>1916.04</ele>
        <time>2019-09-12T07:27:08Z</time>
      </trkpt>
      <trkpt lat="45.32766" lon="6.69025">
        <ele>1917.01</ele>
        <time>2019-09-12T07:27:23Z</time>
      </trkpt>
      <trkpt lat="45.32767" lon="6.69032">
        <ele>1917.01</ele>
        <time>2019-09-12T07:27:45Z</time>
      </trkpt>
      <trkpt lat="45.32769" lon="6.69027">
        <ele>1917.01</ele>
        <time>2019-09-12T07:28:08Z</time>
      </trkpt>
      <trkpt lat="45.3277" lon="6.69026">
        <ele>1917.01</ele>
        <time>2019-09-12T07:28:28Z</time>
      </trkpt>
      <trkpt lat="45.32762" lon="6.69022">
        <ele>1917.01</ele>
        <time>2019-09-12T07:28:44Z</time>
      </trkpt>
      <trkpt lat="45.32764" lon="6.69023">
        <ele>1917.01</ele>
        <time>2019-09-12T07:29:11Z</time>
      </trkpt>
      <trkpt lat="45.32769" lon="6.69018">
        <ele>1917.01</ele>
        <time>2019-09-12T07:29:26Z</time>
      </trkpt>
      <trkpt lat="45.32767" lon="6.69022">
        <ele>1917.01</ele>
        <time>2019-09-12T07:29:39Z</time>
      </trkpt>
      <trkpt lat="45.32765" lon="6.69022">
        <ele>1917.01</ele>
        <time>2019-09-12T07:29:57Z</time>
      </trkpt>
      <trkpt lat="45.32762" lon="6.69021">
        <ele>1917.01</ele>
        <time>2019-09-12T07:30:21Z</time>
      </trkpt>
      <trkpt lat="45.32763" lon="6.6902">
        <ele>1917.01</ele>
        <time>2019-09-12T07:30:45Z</time>
      </trkpt>
      <trkpt lat="45.32763" lon="6.69021">
        <ele>1917.01</ele>
        <time>2019-09-12T07:31:10Z</time>
      </trkpt>
      <trkpt lat="45.32764" lon="6.69022">
        <ele>1917.01</ele>
        <time>2019-09-12T07:31:43Z</time>
      </trkpt>
      <trkpt lat="45.32767" lon="6.69019">
        <ele>1917.01</ele>
        <time>2019-09-12T07:32:14Z</time>
      </trkpt>
      <trkpt lat="45.32765" lon="6.69022">
        <ele>1917.01</ele>
        <time>2019-09-12T07:32:45Z</time>
      </trkpt>
      <trkpt lat="45.32765" lon="6.69022">
        <ele>1917.01</ele>
        <time>2019-09-12T07:33:03Z</time>
      </trkpt>
      <trkpt lat="45.32765" lon="6.69025">
        <ele>1916.04</ele>
        <time>2019-09-12T07:33:27Z</time>
      </trkpt>
      <trkpt lat="45.32763" lon="6.69025">
        <ele>1916.04</ele>
        <time>2019-09-12T07:33:46Z</time>
      </trkpt>
      <trkpt lat="45.32753" lon="6.69036">
        <ele>1916.04</ele>
        <time>2019-09-12T07:33:59Z</time>
      </trkpt>
      <trkpt lat="45.3274" lon="6.69051">
        <ele>1916.04</ele>
        <time>2019-09-12T07:34:15Z</time>
      </trkpt>
      <trkpt lat="45.32722" lon="6.69063">
        <ele>1915.56</ele>
        <time>2019-09-12T07:34:33Z</time>
      </trkpt>
      <trkpt lat="45.32704" lon="6.69068">
        <ele>1913.16</ele>
        <time>2019-09-12T07:34:51Z</time>
      </trkpt>
      <trkpt lat="45.32686" lon="6.69062">
        <ele>1911.72</ele>
        <time>2019-09-12T07:35:07Z</time>
      </trkpt>
      <trkpt lat="45.32669" lon="6.69053">
        <ele>1910.76</ele>
        <time>2019-09-12T07:35:23Z</time>
      </trkpt>
      <trkpt lat="45.32653" lon="6.69036">
        <ele>1908.83</ele>
        <time>2019-09-12T07:35:41Z</time>
      </trkpt>
      <trkpt lat="45.32642" lon="6.6903">
        <ele>1908.83</ele>
        <time>2019-09-12T07:35:51Z</time>
      </trkpt>
      <trkpt lat="45.32623" lon="6.69022">
        <ele>1908.83</ele>
        <time>2019-09-12T07:36:08Z</time>
      </trkpt>
      <trkpt lat="45.32609" lon="6.69018">
        <ele>1908.83</ele>
        <time>2019-09-12T07:36:21Z</time>
      </trkpt>
      <trkpt lat="45.32591" lon="6.69014">
        <ele>1908.83</ele>
        <time>2019-09-12T07:36:37Z</time>
      </trkpt>
      <trkpt lat="45.32583" lon="6.6901">
        <ele>1910.28</ele>
        <time>2019-09-12T07:36:45Z</time>
      </trkpt>
      <trkpt lat="45.32567" lon="6.69004">
        <ele>1911.24</ele>
        <time>2019-09-12T07:37:02Z</time>
      </trkpt>
      <trkpt lat="45.3255" lon="6.6899">
        <ele>1911.72</ele>
        <time>2019-09-12T07:37:21Z</time>
      </trkpt>
      <trkpt lat="45.3255" lon="6.6899">
        <ele>1911.72</ele>
        <time>2019-09-12T07:37:22Z</time>
      </trkpt>
      <trkpt lat="45.32548" lon="6.6899">
        <ele>1912.2</ele>
        <time>2019-09-12T07:37:25Z</time>
      </trkpt>
      <trkpt lat="45.32544" lon="6.68986">
        <ele>1912.2</ele>
        <time>2019-09-12T07:37:29Z</time>
      </trkpt>
      <trkpt lat="45.32528" lon="6.68971">
        <ele>1912.2</ele>
        <time>2019-09-12T07:37:47Z</time>
      </trkpt>
      <trkpt lat="45.32509" lon="6.68961">
        <ele>1913.16</ele>
        <time>2019-09-12T07:38:05Z</time>
      </trkpt>
      <trkpt lat="45.32494" lon="6.68957">
        <ele>1914.12</ele>
        <time>2019-09-12T07:38:20Z</time>
      </trkpt>
      <trkpt lat="45.32477" lon="6.68958">
        <ele>1916.04</ele>
        <time>2019-09-12T07:38:36Z</time>
      </trkpt>
      <trkpt lat="45.32463" lon="6.6895">
        <ele>1916.53</ele>
        <time>2019-09-12T07:38:51Z</time>
      </trkpt>
      <trkpt lat="45.32453" lon="6.68937">
        <ele>1917.49</ele>
        <time>2019-09-12T07:39:05Z</time>
      </trkpt>
      <trkpt lat="45.3244" lon="6.68917">
        <ele>1918.93</ele>
        <time>2019-09-12T07:39:24Z</time>
      </trkpt>
      <trkpt lat="45.32423" lon="6.68908">
        <ele>1919.41</ele>
        <time>2019-09-12T07:39:39Z</time>
      </trkpt>
      <trkpt lat="45.32405" lon="6.68896">
        <ele>1919.89</ele>
        <time>2019-09-12T07:39:59Z</time>
      </trkpt>
      <trkpt lat="45.32395" lon="6.68889">
        <ele>1919.89</ele>
        <time>2019-09-12T07:40:13Z</time>
      </trkpt>
      <trkpt lat="45.32391" lon="6.68882">
        <ele>1919.89</ele>
        <time>2019-09-12T07:40:30Z</time>
      </trkpt>
      <trkpt lat="45.3239" lon="6.68884">
        <ele>1919.89</ele>
        <time>2019-09-12T07:40:51Z</time>
      </trkpt>
      <trkpt lat="45.3237" lon="6.68881">
        <ele>1919.89</ele>
        <time>2019-09-12T07:41:08Z</time>
      </trkpt>
      <trkpt lat="45.32349" lon="6.68887">
        <ele>1920.37</ele>
        <time>2019-09-12T07:41:26Z</time>
      </trkpt>
      <trkpt lat="45.32328" lon="6.6889">
        <ele>1920.85</ele>
        <time>2019-09-12T07:41:44Z</time>
      </trkpt>
      <trkpt lat="45.3232" lon="6.68883">
        <ele>1921.81</ele>
        <time>2019-09-12T07:41:54Z</time>
      </trkpt>
      <trkpt lat="45.32304" lon="6.68864">
        <ele>1922.77</ele>
        <time>2019-09-12T07:42:12Z</time>
      </trkpt>
      <trkpt lat="45.32287" lon="6.68851">
        <ele>1923.25</ele>
        <time>2019-09-12T07:42:29Z</time>
      </trkpt>
      <trkpt lat="45.32284" lon="6.6885">
        <ele>1923.74</ele>
        <time>2019-09-12T07:42:40Z</time>
      </trkpt>
      <trkpt lat="45.32283" lon="6.68849">
        <ele>1923.74</ele>
        <time>2019-09-12T07:42:45Z</time>
      </trkpt>
      <trkpt lat="45.32279" lon="6.68847">
        <ele>1923.74</ele>
        <time>2019-09-12T07:42:51Z</time>
      </trkpt>
      <trkpt lat="45.32263" lon="6.68838">
        <ele>1924.22</ele>
        <time>2019-09-12T07:43:07Z</time>
      </trkpt>
      <trkpt lat="45.32249" lon="6.68829">
        <ele>1925.66</ele>
        <time>2019-09-12T07:43:21Z</time>
      </trkpt>
      <trkpt lat="45.32239" lon="6.6882">
        <ele>1926.62</ele>
        <time>2019-09-12T07:43:32Z</time>
      </trkpt>
      <trkpt lat="45.32238" lon="6.68818">
        <ele>1926.62</ele>
        <time>2019-09-12T07:43:34Z</time>
      </trkpt>
      <trkpt lat="45.32224" lon="6.6881">
        <ele>1928.06</ele>
        <time>2019-09-12T07:43:49Z</time>
      </trkpt>
      <trkpt lat="45.32208" lon="6.68802">
        <ele>1928.54</ele>
        <time>2019-09-12T07:44:03Z</time>
      </trkpt>
      <trkpt lat="45.32195" lon="6.68798">
        <ele>1929.02</ele>
        <time>2019-09-12T07:44:14Z</time>
      </trkpt>
      <trkpt lat="45.32178" lon="6.68795">
        <ele>1930.46</ele>
        <time>2019-09-12T07:44:32Z</time>
      </trkpt>
      <trkpt lat="45.32162" lon="6.68788">
        <ele>1930.95</ele>
        <time>2019-09-12T07:44:47Z</time>
      </trkpt>
      <trkpt lat="45.32147" lon="6.68781">
        <ele>1932.39</ele>
        <time>2019-09-12T07:45:02Z</time>
      </trkpt>
      <trkpt lat="45.32131" lon="6.68772">
        <ele>1933.83</ele>
        <time>2019-09-12T07:45:19Z</time>
      </trkpt>
      <trkpt lat="45.32118" lon="6.6876">
        <ele>1934.79</ele>
        <time>2019-09-12T07:45:33Z</time>
      </trkpt>
      <trkpt lat="45.32102" lon="6.68752">
        <ele>1935.75</ele>
        <time>2019-09-12T07:45:47Z</time>
      </trkpt>
      <trkpt lat="45.3209" lon="6.68746">
        <ele>1936.23</ele>
        <time>2019-09-12T07:46:00Z</time>
      </trkpt>
      <trkpt lat="45.32079" lon="6.68737">
        <ele>1936.23</ele>
        <time>2019-09-12T07:46:11Z</time>
      </trkpt>
      <trkpt lat="45.32062" lon="6.68729">
        <ele>1936.23</ele>
        <time>2019-09-12T07:46:25Z</time>
      </trkpt>
      <trkpt lat="45.32058" lon="6.68729">
        <ele>1936.23</ele>
        <time>2019-09-12T07:46:29Z</time>
      </trkpt>
      <trkpt lat="45.32041" lon="6.68722">
        <ele>1936.71</ele>
        <time>2019-09-12T07:46:44Z</time>
      </trkpt>
      <trkpt lat="45.32028" lon="6.68706">
        <ele>1937.19</ele>
        <time>2019-09-12T07:46:59Z</time>
      </trkpt>
      <trkpt lat="45.32014" lon="6.68692">
        <ele>1938.16</ele>
        <time>2019-09-12T07:47:14Z</time>
      </trkpt>
      <trkpt lat="45.32001" lon="6.68676">
        <ele>1938.64</ele>
        <time>2019-09-12T07:47:29Z</time>
      </trkpt>
      <trkpt lat="45.31987" lon="6.68669">
        <ele>1939.6</ele>
        <time>2019-09-12T07:47:44Z</time>
      </trkpt>
      <trkpt lat="45.31981" lon="6.68666">
        <ele>1940.56</ele>
        <time>2019-09-12T07:47:57Z</time>
      </trkpt>
      <trkpt lat="45.31967" lon="6.68648">
        <ele>1941.52</ele>
        <time>2019-09-12T07:48:12Z</time>
      </trkpt>
      <trkpt lat="45.31961" lon="6.68639">
        <ele>1942</ele>
        <time>2019-09-12T07:48:23Z</time>
      </trkpt>
      <trkpt lat="45.31946" lon="6.68625">
        <ele>1943.44</ele>
        <time>2019-09-12T07:48:39Z</time>
      </trkpt>
      <trkpt lat="45.31937" lon="6.68617">
        <ele>1944.88</ele>
        <time>2019-09-12T07:48:51Z</time>
      </trkpt>
      <trkpt lat="45.31923" lon="6.68604">
        <ele>1946.81</ele>
        <time>2019-09-12T07:49:07Z</time>
      </trkpt>
      <trkpt lat="45.31911" lon="6.68585">
        <ele>1947.29</ele>
        <time>2019-09-12T07:49:23Z</time>
      </trkpt>
      <trkpt lat="45.31899" lon="6.68568">
        <ele>1948.25</ele>
        <time>2019-09-12T07:49:39Z</time>
      </trkpt>
      <trkpt lat="45.31884" lon="6.68557">
        <ele>1950.17</ele>
        <time>2019-09-12T07:49:56Z</time>
      </trkpt>
      <trkpt lat="45.31877" lon="6.68547">
        <ele>1950.17</ele>
        <time>2019-09-12T07:50:05Z</time>
      </trkpt>
      <trkpt lat="45.31868" lon="6.6853">
        <ele>1951.13</ele>
        <time>2019-09-12T07:50:20Z</time>
      </trkpt>
      <trkpt lat="45.3186" lon="6.68524">
        <ele>1951.13</ele>
        <time>2019-09-12T07:50:28Z</time>
      </trkpt>
      <trkpt lat="45.3185" lon="6.68513">
        <ele>1951.13</ele>
        <time>2019-09-12T07:50:38Z</time>
      </trkpt>
      <trkpt lat="45.31835" lon="6.68494">
        <ele>1950.17</ele>
        <time>2019-09-12T07:50:55Z</time>
      </trkpt>
      <trkpt lat="45.31821" lon="6.68477">
        <ele>1950.17</ele>
        <time>2019-09-12T07:51:09Z</time>
      </trkpt>
      <trkpt lat="45.31813" lon="6.68467">
        <ele>1951.13</ele>
        <time>2019-09-12T07:51:18Z</time>
      </trkpt>
      <trkpt lat="45.318" lon="6.68452">
        <ele>1952.09</ele>
        <time>2019-09-12T07:51:34Z</time>
      </trkpt>
      <trkpt lat="45.31796" lon="6.68447">
        <ele>1952.09</ele>
        <time>2019-09-12T07:51:38Z</time>
      </trkpt>
      <trkpt lat="45.3179" lon="6.68443">
        <ele>1952.09</ele>
        <time>2019-09-12T07:51:44Z</time>
      </trkpt>
      <trkpt lat="45.31779" lon="6.68431">
        <ele>1953.54</ele>
        <time>2019-09-12T07:51:57Z</time>
      </trkpt>
      <trkpt lat="45.31777" lon="6.68429">
        <ele>1954.02</ele>
        <time>2019-09-12T07:52:00Z</time>
      </trkpt>
      <trkpt lat="45.31765" lon="6.68416">
        <ele>1955.46</ele>
        <time>2019-09-12T07:52:14Z</time>
      </trkpt>
      <trkpt lat="45.31753" lon="6.68405">
        <ele>1956.42</ele>
        <time>2019-09-12T07:52:28Z</time>
      </trkpt>
      <trkpt lat="45.31743" lon="6.68398">
        <ele>1957.86</ele>
        <time>2019-09-12T07:52:40Z</time>
      </trkpt>
      <trkpt lat="45.31732" lon="6.6839">
        <ele>1959.3</ele>
        <time>2019-09-12T07:52:53Z</time>
      </trkpt>
      <trkpt lat="45.31731" lon="6.68388">
        <ele>1959.3</ele>
        <time>2019-09-12T07:52:54Z</time>
      </trkpt>
      <trkpt lat="45.3172" lon="6.68374">
        <ele>1960.27</ele>
        <time>2019-09-12T07:53:08Z</time>
      </trkpt>
      <trkpt lat="45.31712" lon="6.68366">
        <ele>1960.27</ele>
        <time>2019-09-12T07:53:17Z</time>
      </trkpt>
      <trkpt lat="45.31696" lon="6.6835">
        <ele>1960.75</ele>
        <time>2019-09-12T07:53:34Z</time>
      </trkpt>
      <trkpt lat="45.31678" lon="6.68331">
        <ele>1961.23</ele>
        <time>2019-09-12T07:53:52Z</time>
      </trkpt>
      <trkpt lat="45.3167" lon="6.68319">
        <ele>1961.23</ele>
        <time>2019-09-12T07:54:02Z</time>
      </trkpt>
      <trkpt lat="45.3166" lon="6.68315">
        <ele>1961.71</ele>
        <time>2019-09-12T07:54:11Z</time>
      </trkpt>
      <trkpt lat="45.31647" lon="6.68303">
        <ele>1963.15</ele>
        <time>2019-09-12T07:54:26Z</time>
      </trkpt>
      <trkpt lat="45.31644" lon="6.68301">
        <ele>1963.15</ele>
        <time>2019-09-12T07:54:29Z</time>
      </trkpt>
      <trkpt lat="45.31624" lon="6.68291">
        <ele>1963.15</ele>
        <time>2019-09-12T07:54:46Z</time>
      </trkpt>
      <trkpt lat="45.3161" lon="6.68287">
        <ele>1963.63</ele>
        <time>2019-09-12T07:54:59Z</time>
      </trkpt>
      <trkpt lat="45.31592" lon="6.68277">
        <ele>1964.11</ele>
        <time>2019-09-12T07:55:14Z</time>
      </trkpt>
      <trkpt lat="45.31579" lon="6.68276">
        <ele>1964.11</ele>
        <time>2019-09-12T07:55:26Z</time>
      </trkpt>
      <trkpt lat="45.31562" lon="6.6827">
        <ele>1964.11</ele>
        <time>2019-09-12T07:55:41Z</time>
      </trkpt>
      <trkpt lat="45.31553" lon="6.68265">
        <ele>1964.11</ele>
        <time>2019-09-12T07:55:49Z</time>
      </trkpt>
      <trkpt lat="45.31545" lon="6.68257">
        <ele>1964.59</ele>
        <time>2019-09-12T07:56:04Z</time>
      </trkpt>
      <trkpt lat="45.31534" lon="6.68239">
        <ele>1965.07</ele>
        <time>2019-09-12T07:56:19Z</time>
      </trkpt>
      <trkpt lat="45.3152" lon="6.68222">
        <ele>1965.07</ele>
        <time>2019-09-12T07:56:34Z</time>
      </trkpt>
      <trkpt lat="45.31502" lon="6.68203">
        <ele>1965.07</ele>
        <time>2019-09-12T07:56:52Z</time>
      </trkpt>
      <trkpt lat="45.31489" lon="6.68187">
        <ele>1965.55</ele>
        <time>2019-09-12T07:57:06Z</time>
      </trkpt>
      <trkpt lat="45.31482" lon="6.68177">
        <ele>1965.55</ele>
        <time>2019-09-12T07:57:15Z</time>
      </trkpt>
      <trkpt lat="45.31467" lon="6.68159">
        <ele>1966.99</ele>
        <time>2019-09-12T07:57:30Z</time>
      </trkpt>
      <trkpt lat="45.31454" lon="6.68144">
        <ele>1966.99</ele>
        <time>2019-09-12T07:57:44Z</time>
      </trkpt>
      <trkpt lat="45.31441" lon="6.68124">
        <ele>1967.48</ele>
        <time>2019-09-12T07:58:00Z</time>
      </trkpt>
      <trkpt lat="45.31434" lon="6.68105">
        <ele>1967.48</ele>
        <time>2019-09-12T07:58:13Z</time>
      </trkpt>
      <trkpt lat="45.31431" lon="6.68094">
        <ele>1967.48</ele>
        <time>2019-09-12T07:58:21Z</time>
      </trkpt>
      <trkpt lat="45.31424" lon="6.68071">
        <ele>1968.44</ele>
        <time>2019-09-12T07:58:37Z</time>
      </trkpt>
      <trkpt lat="45.31415" lon="6.68056">
        <ele>1969.4</ele>
        <time>2019-09-12T07:58:50Z</time>
      </trkpt>
      <trkpt lat="45.31408" lon="6.68044">
        <ele>1971.8</ele>
        <time>2019-09-12T07:59:04Z</time>
      </trkpt>
      <trkpt lat="45.31402" lon="6.68032">
        <ele>1973.72</ele>
        <time>2019-09-12T07:59:20Z</time>
      </trkpt>
      <trkpt lat="45.31396" lon="6.68016">
        <ele>1975.65</ele>
        <time>2019-09-12T07:59:36Z</time>
      </trkpt>
      <trkpt lat="45.3139" lon="6.68003">
        <ele>1977.57</ele>
        <time>2019-09-12T07:59:51Z</time>
      </trkpt>
      <trkpt lat="45.31382" lon="6.67989">
        <ele>1979.49</ele>
        <time>2019-09-12T08:00:07Z</time>
      </trkpt>
      <trkpt lat="45.31377" lon="6.67985">
        <ele>1980.93</ele>
        <time>2019-09-12T08:00:18Z</time>
      </trkpt>
      <trkpt lat="45.3137" lon="6.6797">
        <ele>1982.38</ele>
        <time>2019-09-12T08:00:32Z</time>
      </trkpt>
      <trkpt lat="45.31369" lon="6.67969">
        <ele>1982.86</ele>
        <time>2019-09-12T08:00:33Z</time>
      </trkpt>
      <trkpt lat="45.31365" lon="6.67956">
        <ele>1983.34</ele>
        <time>2019-09-12T08:00:46Z</time>
      </trkpt>
      <trkpt lat="45.31354" lon="6.67935">
        <ele>1984.3</ele>
        <time>2019-09-12T08:01:03Z</time>
      </trkpt>
      <trkpt lat="45.31351" lon="6.67931">
        <ele>1984.78</ele>
        <time>2019-09-12T08:01:07Z</time>
      </trkpt>
      <trkpt lat="45.31345" lon="6.67912">
        <ele>1985.26</ele>
        <time>2019-09-12T08:01:24Z</time>
      </trkpt>
      <trkpt lat="45.31336" lon="6.67895">
        <ele>1987.18</ele>
        <time>2019-09-12T08:01:39Z</time>
      </trkpt>
      <trkpt lat="45.31328" lon="6.67877">
        <ele>1988.14</ele>
        <time>2019-09-12T08:01:54Z</time>
      </trkpt>
      <trkpt lat="45.31323" lon="6.67857">
        <ele>1989.59</ele>
        <time>2019-09-12T08:02:09Z</time>
      </trkpt>
      <trkpt lat="45.31322" lon="6.67838">
        <ele>1991.03</ele>
        <time>2019-09-12T08:02:26Z</time>
      </trkpt>
      <trkpt lat="45.31314" lon="6.67819">
        <ele>1991.99</ele>
        <time>2019-09-12T08:02:41Z</time>
      </trkpt>
      <trkpt lat="45.31305" lon="6.67808">
        <ele>1992.47</ele>
        <time>2019-09-12T08:02:54Z</time>
      </trkpt>
      <trkpt lat="45.31303" lon="6.67805">
        <ele>1992.95</ele>
        <time>2019-09-12T08:02:57Z</time>
      </trkpt>
      <trkpt lat="45.31301" lon="6.67803">
        <ele>1993.43</ele>
        <time>2019-09-12T08:03:00Z</time>
      </trkpt>
      <trkpt lat="45.31288" lon="6.6779">
        <ele>1994.39</ele>
        <time>2019-09-12T08:03:15Z</time>
      </trkpt>
      <trkpt lat="45.3128" lon="6.67779">
        <ele>1995.83</ele>
        <time>2019-09-12T08:03:28Z</time>
      </trkpt>
      <trkpt lat="45.31272" lon="6.67765">
        <ele>1997.28</ele>
        <time>2019-09-12T08:03:43Z</time>
      </trkpt>
      <trkpt lat="45.31265" lon="6.67748">
        <ele>1999.2</ele>
        <time>2019-09-12T08:03:59Z</time>
      </trkpt>
      <trkpt lat="45.31257" lon="6.67731">
        <ele>2000.64</ele>
        <time>2019-09-12T08:04:16Z</time>
      </trkpt>
      <trkpt lat="45.31249" lon="6.67719">
        <ele>2002.56</ele>
        <time>2019-09-12T08:04:32Z</time>
      </trkpt>
      <trkpt lat="45.31242" lon="6.67705">
        <ele>2004.01</ele>
        <time>2019-09-12T08:04:48Z</time>
      </trkpt>
      <trkpt lat="45.31236" lon="6.67693">
        <ele>2004.97</ele>
        <time>2019-09-12T08:05:02Z</time>
      </trkpt>
      <trkpt lat="45.31231" lon="6.67677">
        <ele>2005.93</ele>
        <time>2019-09-12T08:05:16Z</time>
      </trkpt>
      <trkpt lat="45.31222" lon="6.67659">
        <ele>2007.37</ele>
        <time>2019-09-12T08:05:32Z</time>
      </trkpt>
      <trkpt lat="45.31221" lon="6.67655">
        <ele>2008.33</ele>
        <time>2019-09-12T08:05:37Z</time>
      </trkpt>
      <trkpt lat="45.3122" lon="6.67652">
        <ele>2008.33</ele>
        <time>2019-09-12T08:05:39Z</time>
      </trkpt>
      <trkpt lat="45.31214" lon="6.67634">
        <ele>2009.77</ele>
        <time>2019-09-12T08:05:54Z</time>
      </trkpt>
      <trkpt lat="45.3121" lon="6.67613">
        <ele>2010.25</ele>
        <time>2019-09-12T08:06:08Z</time>
      </trkpt>
      <trkpt lat="45.31204" lon="6.67598">
        <ele>2011.7</ele>
        <time>2019-09-12T08:06:21Z</time>
      </trkpt>
      <trkpt lat="45.31198" lon="6.6758">
        <ele>2012.18</ele>
        <time>2019-09-12T08:06:35Z</time>
      </trkpt>
      <trkpt lat="45.31196" lon="6.6757">
        <ele>2012.66</ele>
        <time>2019-09-12T08:06:42Z</time>
      </trkpt>
      <trkpt lat="45.31187" lon="6.67554">
        <ele>2013.62</ele>
        <time>2019-09-12T08:06:58Z</time>
      </trkpt>
      <trkpt lat="45.31181" lon="6.67534">
        <ele>2015.06</ele>
        <time>2019-09-12T08:07:16Z</time>
      </trkpt>
      <trkpt lat="45.31174" lon="6.67515">
        <ele>2016.02</ele>
        <time>2019-09-12T08:07:31Z</time>
      </trkpt>
      <trkpt lat="45.3117" lon="6.67496">
        <ele>2016.98</ele>
        <time>2019-09-12T08:07:45Z</time>
      </trkpt>
      <trkpt lat="45.31161" lon="6.67476">
        <ele>2018.43</ele>
        <time>2019-09-12T08:07:59Z</time>
      </trkpt>
      <trkpt lat="45.31156" lon="6.67457">
        <ele>2020.35</ele>
        <time>2019-09-12T08:08:15Z</time>
      </trkpt>
      <trkpt lat="45.31152" lon="6.67439">
        <ele>2021.31</ele>
        <time>2019-09-12T08:08:29Z</time>
      </trkpt>
      <trkpt lat="45.31152" lon="6.67437">
        <ele>2021.79</ele>
        <time>2019-09-12T08:08:44Z</time>
      </trkpt>
      <trkpt lat="45.31152" lon="6.67436">
        <ele>2021.79</ele>
        <time>2019-09-12T08:09:08Z</time>
      </trkpt>
      <trkpt lat="45.3115" lon="6.67434">
        <ele>2021.79</ele>
        <time>2019-09-12T08:09:12Z</time>
      </trkpt>
      <trkpt lat="45.31143" lon="6.67418">
        <ele>2023.23</ele>
        <time>2019-09-12T08:09:26Z</time>
      </trkpt>
      <trkpt lat="45.31134" lon="6.67397">
        <ele>2024.19</ele>
        <time>2019-09-12T08:09:42Z</time>
      </trkpt>
      <trkpt lat="45.31124" lon="6.67383">
        <ele>2026.12</ele>
        <time>2019-09-12T08:09:57Z</time>
      </trkpt>
      <trkpt lat="45.31117" lon="6.67369">
        <ele>2027.08</ele>
        <time>2019-09-12T08:10:10Z</time>
      </trkpt>
      <trkpt lat="45.31116" lon="6.67367">
        <ele>2027.08</ele>
        <time>2019-09-12T08:10:12Z</time>
      </trkpt>
      <trkpt lat="45.31105" lon="6.6735">
        <ele>2029</ele>
        <time>2019-09-12T08:10:29Z</time>
      </trkpt>
      <trkpt lat="45.31098" lon="6.67335">
        <ele>2029.96</ele>
        <time>2019-09-12T08:10:42Z</time>
      </trkpt>
      <trkpt lat="45.31091" lon="6.67316">
        <ele>2030.92</ele>
        <time>2019-09-12T08:10:58Z</time>
      </trkpt>
      <trkpt lat="45.3108" lon="6.673">
        <ele>2032.36</ele>
        <time>2019-09-12T08:11:14Z</time>
      </trkpt>
      <trkpt lat="45.31078" lon="6.67298">
        <ele>2032.36</ele>
        <time>2019-09-12T08:11:17Z</time>
      </trkpt>
      <trkpt lat="45.31065" lon="6.67288">
        <ele>2033.81</ele>
        <time>2019-09-12T08:11:30Z</time>
      </trkpt>
      <trkpt lat="45.31055" lon="6.67272">
        <ele>2034.77</ele>
        <time>2019-09-12T08:11:46Z</time>
      </trkpt>
      <trkpt lat="45.31043" lon="6.67257">
        <ele>2035.73</ele>
        <time>2019-09-12T08:12:02Z</time>
      </trkpt>
      <trkpt lat="45.31035" lon="6.67241">
        <ele>2037.17</ele>
        <time>2019-09-12T08:12:17Z</time>
      </trkpt>
      <trkpt lat="45.31025" lon="6.67223">
        <ele>2038.13</ele>
        <time>2019-09-12T08:12:31Z</time>
      </trkpt>
      <trkpt lat="45.31018" lon="6.67204">
        <ele>2039.09</ele>
        <time>2019-09-12T08:12:45Z</time>
      </trkpt>
      <trkpt lat="45.3101" lon="6.67184">
        <ele>2040.05</ele>
        <time>2019-09-12T08:13:00Z</time>
      </trkpt>
      <trkpt lat="45.31004" lon="6.67167">
        <ele>2041.02</ele>
        <time>2019-09-12T08:13:13Z</time>
      </trkpt>
      <trkpt lat="45.31004" lon="6.67166">
        <ele>2041.02</ele>
        <time>2019-09-12T08:13:14Z</time>
      </trkpt>
      <trkpt lat="45.31001" lon="6.6716">
        <ele>2041.02</ele>
        <time>2019-09-12T08:13:22Z</time>
      </trkpt>
      <trkpt lat="45.30993" lon="6.67131">
        <ele>2041.98</ele>
        <time>2019-09-12T08:13:40Z</time>
      </trkpt>
      <trkpt lat="45.3099" lon="6.67115">
        <ele>2041.98</ele>
        <time>2019-09-12T08:13:53Z</time>
      </trkpt>
      <trkpt lat="45.30981" lon="6.67092">
        <ele>2040.54</ele>
        <time>2019-09-12T08:14:10Z</time>
      </trkpt>
      <trkpt lat="45.30981" lon="6.67091">
        <ele>2040.54</ele>
        <time>2019-09-12T08:14:11Z</time>
      </trkpt>
      <trkpt lat="45.30971" lon="6.67066">
        <ele>2040.05</ele>
        <time>2019-09-12T08:14:28Z</time>
      </trkpt>
      <trkpt lat="45.3096" lon="6.67047">
        <ele>2040.05</ele>
        <time>2019-09-12T08:14:43Z</time>
      </trkpt>
      <trkpt lat="45.3095" lon="6.67027">
        <ele>2041.5</ele>
        <time>2019-09-12T08:14:58Z</time>
      </trkpt>
      <trkpt lat="45.30944" lon="6.67017">
        <ele>2041.98</ele>
        <time>2019-09-12T08:15:07Z</time>
      </trkpt>
      <trkpt lat="45.30934" lon="6.67001">
        <ele>2042.94</ele>
        <time>2019-09-12T08:15:21Z</time>
      </trkpt>
      <trkpt lat="45.30929" lon="6.66993">
        <ele>2043.9</ele>
        <time>2019-09-12T08:15:34Z</time>
      </trkpt>
      <trkpt lat="45.30927" lon="6.66996">
        <ele>2043.9</ele>
        <time>2019-09-12T08:15:52Z</time>
      </trkpt>
      <trkpt lat="45.30921" lon="6.66995">
        <ele>2043.9</ele>
        <time>2019-09-12T08:16:28Z</time>
      </trkpt>
      <trkpt lat="45.3092" lon="6.66999">
        <ele>2044.38</ele>
        <time>2019-09-12T08:17:07Z</time>
      </trkpt>
      <trkpt lat="45.30926" lon="6.66997">
        <ele>2044.38</ele>
        <time>2019-09-12T08:17:22Z</time>
      </trkpt>
      <trkpt lat="45.30926" lon="6.66994">
        <ele>2044.38</ele>
        <time>2019-09-12T08:17:25Z</time>
      </trkpt>
      <trkpt lat="45.30925" lon="6.66989">
        <ele>2044.38</ele>
        <time>2019-09-12T08:17:30Z</time>
      </trkpt>
      <trkpt lat="45.30917" lon="6.66976">
        <ele>2045.82</ele>
        <time>2019-09-12T08:17:44Z</time>
      </trkpt>
      <trkpt lat="45.3091" lon="6.66962">
        <ele>2046.78</ele>
        <time>2019-09-12T08:17:57Z</time>
      </trkpt>
      <trkpt lat="45.30899" lon="6.66943">
        <ele>2048.71</ele>
        <time>2019-09-12T08:18:13Z</time>
      </trkpt>
      <trkpt lat="45.30891" lon="6.66932">
        <ele>2049.67</ele>
        <time>2019-09-12T08:18:26Z</time>
      </trkpt>
      <trkpt lat="45.3088" lon="6.6692">
        <ele>2051.11</ele>
        <time>2019-09-12T08:18:42Z</time>
      </trkpt>
      <trkpt lat="45.30878" lon="6.66919">
        <ele>2051.59</ele>
        <time>2019-09-12T08:18:44Z</time>
      </trkpt>
      <trkpt lat="45.30863" lon="6.66908">
        <ele>2053.03</ele>
        <time>2019-09-12T08:18:59Z</time>
      </trkpt>
      <trkpt lat="45.30852" lon="6.66899">
        <ele>2053.99</ele>
        <time>2019-09-12T08:19:13Z</time>
      </trkpt>
      <trkpt lat="45.30836" lon="6.6689">
        <ele>2054.96</ele>
        <time>2019-09-12T08:19:28Z</time>
      </trkpt>
      <trkpt lat="45.30835" lon="6.66889">
        <ele>2054.96</ele>
        <time>2019-09-12T08:19:29Z</time>
      </trkpt>
      <trkpt lat="45.30825" lon="6.66882">
        <ele>2056.88</ele>
        <time>2019-09-12T08:19:43Z</time>
      </trkpt>
      <trkpt lat="45.30819" lon="6.66878">
        <ele>2057.36</ele>
        <time>2019-09-12T08:19:50Z</time>
      </trkpt>
      <trkpt lat="45.30806" lon="6.66864">
        <ele>2058.32</ele>
        <time>2019-09-12T08:20:05Z</time>
      </trkpt>
      <trkpt lat="45.30792" lon="6.66858">
        <ele>2059.28</ele>
        <time>2019-09-12T08:20:19Z</time>
      </trkpt>
      <trkpt lat="45.30778" lon="6.66854">
        <ele>2060.72</ele>
        <time>2019-09-12T08:20:33Z</time>
      </trkpt>
      <trkpt lat="45.30766" lon="6.66854">
        <ele>2062.17</ele>
        <time>2019-09-12T08:20:46Z</time>
      </trkpt>
      <trkpt lat="45.30754" lon="6.66853">
        <ele>2064.09</ele>
        <time>2019-09-12T08:21:00Z</time>
      </trkpt>
      <trkpt lat="45.3074" lon="6.6684">
        <ele>2065.53</ele>
        <time>2019-09-12T08:21:16Z</time>
      </trkpt>
      <trkpt lat="45.30726" lon="6.66836">
        <ele>2066.97</ele>
        <time>2019-09-12T08:21:31Z</time>
      </trkpt>
      <trkpt lat="45.30714" lon="6.66833">
        <ele>2068.41</ele>
        <time>2019-09-12T08:21:46Z</time>
      </trkpt>
      <trkpt lat="45.30703" lon="6.66832">
        <ele>2069.86</ele>
        <time>2019-09-12T08:22:00Z</time>
      </trkpt>
      <trkpt lat="45.30691" lon="6.6683">
        <ele>2071.78</ele>
        <time>2019-09-12T08:22:14Z</time>
      </trkpt>
      <trkpt lat="45.30678" lon="6.66823">
        <ele>2073.22</ele>
        <time>2019-09-12T08:22:29Z</time>
      </trkpt>
      <trkpt lat="45.30666" lon="6.66816">
        <ele>2074.66</ele>
        <time>2019-09-12T08:22:43Z</time>
      </trkpt>
      <trkpt lat="45.30662" lon="6.66814">
        <ele>2075.62</ele>
        <time>2019-09-12T08:22:48Z</time>
      </trkpt>
      <trkpt lat="45.3066" lon="6.66813">
        <ele>2075.62</ele>
        <time>2019-09-12T08:22:50Z</time>
      </trkpt>
      <trkpt lat="45.30646" lon="6.66806">
        <ele>2076.59</ele>
        <time>2019-09-12T08:23:05Z</time>
      </trkpt>
      <trkpt lat="45.30634" lon="6.66801">
        <ele>2077.07</ele>
        <time>2019-09-12T08:23:19Z</time>
      </trkpt>
      <trkpt lat="45.30617" lon="6.66796">
        <ele>2078.03</ele>
        <time>2019-09-12T08:23:34Z</time>
      </trkpt>
      <trkpt lat="45.30614" lon="6.66798">
        <ele>2078.51</ele>
        <time>2019-09-12T08:23:37Z</time>
      </trkpt>
      <trkpt lat="45.30607" lon="6.66803">
        <ele>2079.95</ele>
        <time>2019-09-12T08:23:46Z</time>
      </trkpt>
      <trkpt lat="45.30597" lon="6.66814">
        <ele>2081.39</ele>
        <time>2019-09-12T08:24:01Z</time>
      </trkpt>
      <trkpt lat="45.30585" lon="6.66821">
        <ele>2083.31</ele>
        <time>2019-09-12T08:24:15Z</time>
      </trkpt>
      <trkpt lat="45.30574" lon="6.66821">
        <ele>2085.24</ele>
        <time>2019-09-12T08:24:29Z</time>
      </trkpt>
      <trkpt lat="45.30564" lon="6.66815">
        <ele>2087.16</ele>
        <time>2019-09-12T08:24:44Z</time>
      </trkpt>
      <trkpt lat="45.30558" lon="6.66808">
        <ele>2088.6</ele>
        <time>2019-09-12T08:24:58Z</time>
      </trkpt>
      <trkpt lat="45.3055" lon="6.66802">
        <ele>2090.04</ele>
        <time>2019-09-12T08:25:10Z</time>
      </trkpt>
      <trkpt lat="45.30543" lon="6.66797">
        <ele>2091.49</ele>
        <time>2019-09-12T08:25:20Z</time>
      </trkpt>
      <trkpt lat="45.30532" lon="6.66786">
        <ele>2092.45</ele>
        <time>2019-09-12T08:25:35Z</time>
      </trkpt>
      <trkpt lat="45.30522" lon="6.66778">
        <ele>2094.37</ele>
        <time>2019-09-12T08:25:50Z</time>
      </trkpt>
      <trkpt lat="45.30511" lon="6.66774">
        <ele>2095.81</ele>
        <time>2019-09-12T08:26:05Z</time>
      </trkpt>
      <trkpt lat="45.30498" lon="6.6677">
        <ele>2098.21</ele>
        <time>2019-09-12T08:26:22Z</time>
      </trkpt>
      <trkpt lat="45.30489" lon="6.66766">
        <ele>2100.14</ele>
        <time>2019-09-12T08:26:36Z</time>
      </trkpt>
      <trkpt lat="45.30478" lon="6.66763">
        <ele>2102.06</ele>
        <time>2019-09-12T08:26:52Z</time>
      </trkpt>
      <trkpt lat="45.30466" lon="6.66757">
        <ele>2103.98</ele>
        <time>2019-09-12T08:27:08Z</time>
      </trkpt>
      <trkpt lat="45.30457" lon="6.66753">
        <ele>2104.94</ele>
        <time>2019-09-12T08:27:20Z</time>
      </trkpt>
      <trkpt lat="45.30443" lon="6.6675">
        <ele>2105.91</ele>
        <time>2019-09-12T08:27:36Z</time>
      </trkpt>
      <trkpt lat="45.30443" lon="6.6675">
        <ele>2106.39</ele>
        <time>2019-09-12T08:27:37Z</time>
      </trkpt>
      <trkpt lat="45.30429" lon="6.6675">
        <ele>2107.35</ele>
        <time>2019-09-12T08:27:52Z</time>
      </trkpt>
      <trkpt lat="45.30418" lon="6.6675">
        <ele>2109.27</ele>
        <time>2019-09-12T08:28:07Z</time>
      </trkpt>
      <trkpt lat="45.30416" lon="6.66751">
        <ele>2109.27</ele>
        <time>2019-09-12T08:28:18Z</time>
      </trkpt>
      <trkpt lat="45.30416" lon="6.66751">
        <ele>2109.75</ele>
        <time>2019-09-12T08:28:39Z</time>
      </trkpt>
      <trkpt lat="45.30417" lon="6.66755">
        <ele>2108.79</ele>
        <time>2019-09-12T08:29:11Z</time>
      </trkpt>
      <trkpt lat="45.30418" lon="6.66754">
        <ele>2108.79</ele>
        <time>2019-09-12T08:29:39Z</time>
      </trkpt>
      <trkpt lat="45.30417" lon="6.66758">
        <ele>2108.79</ele>
        <time>2019-09-12T08:30:12Z</time>
      </trkpt>
      <trkpt lat="45.3042" lon="6.66755">
        <ele>2108.79</ele>
        <time>2019-09-12T08:30:43Z</time>
      </trkpt>
      <trkpt lat="45.30417" lon="6.66755">
        <ele>2109.27</ele>
        <time>2019-09-12T08:31:17Z</time>
      </trkpt>
      <trkpt lat="45.30418" lon="6.66756">
        <ele>2109.27</ele>
        <time>2019-09-12T08:31:56Z</time>
      </trkpt>
      <trkpt lat="45.30417" lon="6.66758">
        <ele>2109.27</ele>
        <time>2019-09-12T08:32:29Z</time>
      </trkpt>
      <trkpt lat="45.30418" lon="6.66757">
        <ele>2109.75</ele>
        <time>2019-09-12T08:33:07Z</time>
      </trkpt>
      <trkpt lat="45.30415" lon="6.6676">
        <ele>2109.75</ele>
        <time>2019-09-12T08:33:39Z</time>
      </trkpt>
      <trkpt lat="45.30416" lon="6.66758">
        <ele>2109.75</ele>
        <time>2019-09-12T08:34:06Z</time>
      </trkpt>
      <trkpt lat="45.30416" lon="6.66758">
        <ele>2109.75</ele>
        <time>2019-09-12T08:34:40Z</time>
      </trkpt>
      <trkpt lat="45.30416" lon="6.66761">
        <ele>2110.23</ele>
        <time>2019-09-12T08:35:20Z</time>
      </trkpt>
      <trkpt lat="45.30415" lon="6.66757">
        <ele>2110.71</ele>
        <time>2019-09-12T08:35:54Z</time>
      </trkpt>
      <trkpt lat="45.30416" lon="6.66756">
        <ele>2109.75</ele>
        <time>2019-09-12T08:36:10Z</time>
      </trkpt>
      <trkpt lat="45.30416" lon="6.66756">
        <ele>2113.6</ele>
        <time>2019-09-12T08:36:17Z</time>
      </trkpt>
      <trkpt lat="45.30416" lon="6.66756">
        <ele>2110.71</ele>
        <time>2019-09-12T08:36:20Z</time>
      </trkpt>
      <trkpt lat="45.3041" lon="6.66755">
        <ele>2110.71</ele>
        <time>2019-09-12T08:36:33Z</time>
      </trkpt>
      <trkpt lat="45.30406" lon="6.66758">
        <ele>2112.15</ele>
        <time>2019-09-12T08:36:46Z</time>
      </trkpt>
      <trkpt lat="45.30406" lon="6.66758">
        <ele>2112.63</ele>
        <time>2019-09-12T08:36:50Z</time>
      </trkpt>
      <trkpt lat="45.304" lon="6.66761">
        <ele>2113.12</ele>
        <time>2019-09-12T08:37:01Z</time>
      </trkpt>
      <trkpt lat="45.30391" lon="6.66769">
        <ele>2113.6</ele>
        <time>2019-09-12T08:37:15Z</time>
      </trkpt>
      <trkpt lat="45.3039" lon="6.66771">
        <ele>2114.56</ele>
        <time>2019-09-12T08:37:33Z</time>
      </trkpt>
      <trkpt lat="45.30386" lon="6.66773">
        <ele>2114.56</ele>
        <time>2019-09-12T08:37:58Z</time>
      </trkpt>
      <trkpt lat="45.30375" lon="6.66774">
        <ele>2115.52</ele>
        <time>2019-09-12T08:38:11Z</time>
      </trkpt>
      <trkpt lat="45.30361" lon="6.66779">
        <ele>2116.48</ele>
        <time>2019-09-12T08:38:25Z</time>
      </trkpt>
      <trkpt lat="45.30347" lon="6.66782">
        <ele>2117.92</ele>
        <time>2019-09-12T08:38:40Z</time>
      </trkpt>
      <trkpt lat="45.30333" lon="6.66784">
        <ele>2119.36</ele>
        <time>2019-09-12T08:38:56Z</time>
      </trkpt>
      <trkpt lat="45.30317" lon="6.66788">
        <ele>2120.81</ele>
        <time>2019-09-12T08:39:15Z</time>
      </trkpt>
      <trkpt lat="45.30304" lon="6.66786">
        <ele>2122.25</ele>
        <time>2019-09-12T08:39:32Z</time>
      </trkpt>
      <trkpt lat="45.30292" lon="6.66785">
        <ele>2123.69</ele>
        <time>2019-09-12T08:39:48Z</time>
      </trkpt>
      <trkpt lat="45.30277" lon="6.66783">
        <ele>2124.65</ele>
        <time>2019-09-12T08:40:06Z</time>
      </trkpt>
      <trkpt lat="45.30262" lon="6.66785">
        <ele>2126.57</ele>
        <time>2019-09-12T08:40:23Z</time>
      </trkpt>
      <trkpt lat="45.30248" lon="6.66785">
        <ele>2128.02</ele>
        <time>2019-09-12T08:40:40Z</time>
      </trkpt>
      <trkpt lat="45.30239" lon="6.66786">
        <ele>2129.46</ele>
        <time>2019-09-12T08:40:52Z</time>
      </trkpt>
      <trkpt lat="45.30227" lon="6.66783">
        <ele>2130.9</ele>
        <time>2019-09-12T08:41:08Z</time>
      </trkpt>
      <trkpt lat="45.30214" lon="6.6678">
        <ele>2132.82</ele>
        <time>2019-09-12T08:41:25Z</time>
      </trkpt>
      <trkpt lat="45.30198" lon="6.66779">
        <ele>2134.74</ele>
        <time>2019-09-12T08:41:44Z</time>
      </trkpt>
      <trkpt lat="45.30186" lon="6.66778">
        <ele>2136.19</ele>
        <time>2019-09-12T08:42:00Z</time>
      </trkpt>
      <trkpt lat="45.30173" lon="6.66776">
        <ele>2137.63</ele>
        <time>2019-09-12T08:42:13Z</time>
      </trkpt>
      <trkpt lat="45.30161" lon="6.66775">
        <ele>2139.55</ele>
        <time>2019-09-12T08:42:27Z</time>
      </trkpt>
      <trkpt lat="45.30148" lon="6.66775">
        <ele>2141.47</ele>
        <time>2019-09-12T08:42:43Z</time>
      </trkpt>
      <trkpt lat="45.30137" lon="6.66773">
        <ele>2142.92</ele>
        <time>2019-09-12T08:42:58Z</time>
      </trkpt>
      <trkpt lat="45.30125" lon="6.66771">
        <ele>2144.36</ele>
        <time>2019-09-12T08:43:13Z</time>
      </trkpt>
      <trkpt lat="45.30112" lon="6.66768">
        <ele>2146.28</ele>
        <time>2019-09-12T08:43:29Z</time>
      </trkpt>
      <trkpt lat="45.30101" lon="6.66772">
        <ele>2148.2</ele>
        <time>2019-09-12T08:43:45Z</time>
      </trkpt>
      <trkpt lat="45.3009" lon="6.66776">
        <ele>2149.65</ele>
        <time>2019-09-12T08:44:01Z</time>
      </trkpt>
      <trkpt lat="45.30078" lon="6.66778">
        <ele>2152.05</ele>
        <time>2019-09-12T08:44:16Z</time>
      </trkpt>
      <trkpt lat="45.30063" lon="6.66777">
        <ele>2153.49</ele>
        <time>2019-09-12T08:44:32Z</time>
      </trkpt>
      <trkpt lat="45.30048" lon="6.66775">
        <ele>2154.93</ele>
        <time>2019-09-12T08:44:48Z</time>
      </trkpt>
      <trkpt lat="45.3004" lon="6.66775">
        <ele>2156.37</ele>
        <time>2019-09-12T08:44:59Z</time>
      </trkpt>
      <trkpt lat="45.30028" lon="6.66763">
        <ele>2158.3</ele>
        <time>2019-09-12T08:45:16Z</time>
      </trkpt>
      <trkpt lat="45.30017" lon="6.66754">
        <ele>2160.22</ele>
        <time>2019-09-12T08:45:31Z</time>
      </trkpt>
      <trkpt lat="45.3001" lon="6.66751">
        <ele>2161.18</ele>
        <time>2019-09-12T08:45:40Z</time>
      </trkpt>
      <trkpt lat="45.29998" lon="6.66749">
        <ele>2162.14</ele>
        <time>2019-09-12T08:45:54Z</time>
      </trkpt>
      <trkpt lat="45.29985" lon="6.66745">
        <ele>2164.06</ele>
        <time>2019-09-12T08:46:10Z</time>
      </trkpt>
      <trkpt lat="45.29975" lon="6.66742">
        <ele>2165.51</ele>
        <time>2019-09-12T08:46:23Z</time>
      </trkpt>
      <trkpt lat="45.29963" lon="6.66737">
        <ele>2167.43</ele>
        <time>2019-09-12T08:46:38Z</time>
      </trkpt>
      <trkpt lat="45.2995" lon="6.6674">
        <ele>2168.87</ele>
        <time>2019-09-12T08:46:54Z</time>
      </trkpt>
      <trkpt lat="45.29936" lon="6.66741">
        <ele>2170.31</ele>
        <time>2019-09-12T08:47:08Z</time>
      </trkpt>
      <trkpt lat="45.29925" lon="6.66737">
        <ele>2172.72</ele>
        <time>2019-09-12T08:47:25Z</time>
      </trkpt>
      <trkpt lat="45.29917" lon="6.66728">
        <ele>2174.64</ele>
        <time>2019-09-12T08:47:41Z</time>
      </trkpt>
      <trkpt lat="45.29911" lon="6.66721">
        <ele>2176.08</ele>
        <time>2019-09-12T08:47:59Z</time>
      </trkpt>
      <trkpt lat="45.29905" lon="6.66718">
        <ele>2177.52</ele>
        <time>2019-09-12T08:48:12Z</time>
      </trkpt>
      <trkpt lat="45.29898" lon="6.66709">
        <ele>2179.93</ele>
        <time>2019-09-12T08:48:30Z</time>
      </trkpt>
      <trkpt lat="45.29892" lon="6.66701">
        <ele>2181.85</ele>
        <time>2019-09-12T08:48:45Z</time>
      </trkpt>
      <trkpt lat="45.29885" lon="6.66696">
        <ele>2184.25</ele>
        <time>2019-09-12T08:49:02Z</time>
      </trkpt>
      <trkpt lat="45.29876" lon="6.66691">
        <ele>2186.66</ele>
        <time>2019-09-12T08:49:20Z</time>
      </trkpt>
      <trkpt lat="45.29869" lon="6.66686">
        <ele>2188.58</ele>
        <time>2019-09-12T08:49:34Z</time>
      </trkpt>
      <trkpt lat="45.29859" lon="6.66682">
        <ele>2190.5</ele>
        <time>2019-09-12T08:49:50Z</time>
      </trkpt>
      <trkpt lat="45.29851" lon="6.66676">
        <ele>2191.94</ele>
        <time>2019-09-12T08:50:05Z</time>
      </trkpt>
      <trkpt lat="45.29842" lon="6.66668">
        <ele>2194.35</ele>
        <time>2019-09-12T08:50:24Z</time>
      </trkpt>
      <trkpt lat="45.29834" lon="6.66663">
        <ele>2196.27</ele>
        <time>2019-09-12T08:50:42Z</time>
      </trkpt>
      <trkpt lat="45.29828" lon="6.66656">
        <ele>2198.67</ele>
        <time>2019-09-12T08:50:59Z</time>
      </trkpt>
      <trkpt lat="45.2982" lon="6.66647">
        <ele>2201.08</ele>
        <time>2019-09-12T08:51:17Z</time>
      </trkpt>
      <trkpt lat="45.29813" lon="6.66639">
        <ele>2202.52</ele>
        <time>2019-09-12T08:51:32Z</time>
      </trkpt>
      <trkpt lat="45.29806" lon="6.66629">
        <ele>2204.44</ele>
        <time>2019-09-12T08:51:48Z</time>
      </trkpt>
      <trkpt lat="45.29798" lon="6.66618">
        <ele>2206.36</ele>
        <time>2019-09-12T08:52:06Z</time>
      </trkpt>
      <trkpt lat="45.29791" lon="6.66605">
        <ele>2208.77</ele>
        <time>2019-09-12T08:52:25Z</time>
      </trkpt>
      <trkpt lat="45.29784" lon="6.66596">
        <ele>2210.21</ele>
        <time>2019-09-12T08:52:41Z</time>
      </trkpt>
      <trkpt lat="45.29776" lon="6.66584">
        <ele>2212.13</ele>
        <time>2019-09-12T08:52:59Z</time>
      </trkpt>
      <trkpt lat="45.29771" lon="6.66572">
        <ele>2214.05</ele>
        <time>2019-09-12T08:53:15Z</time>
      </trkpt>
      <trkpt lat="45.29764" lon="6.66563">
        <ele>2216.46</ele>
        <time>2019-09-12T08:53:32Z</time>
      </trkpt>
      <trkpt lat="45.29757" lon="6.66552">
        <ele>2218.86</ele>
        <time>2019-09-12T08:53:50Z</time>
      </trkpt>
      <trkpt lat="45.29753" lon="6.66541">
        <ele>2220.78</ele>
        <time>2019-09-12T08:54:08Z</time>
      </trkpt>
      <trkpt lat="45.29745" lon="6.66531">
        <ele>2223.19</ele>
        <time>2019-09-12T08:54:26Z</time>
      </trkpt>
      <trkpt lat="45.29739" lon="6.66522">
        <ele>2225.11</ele>
        <time>2019-09-12T08:54:42Z</time>
      </trkpt>
      <trkpt lat="45.29734" lon="6.6651">
        <ele>2226.55</ele>
        <time>2019-09-12T08:54:57Z</time>
      </trkpt>
      <trkpt lat="45.29733" lon="6.66497">
        <ele>2228.47</ele>
        <time>2019-09-12T08:55:14Z</time>
      </trkpt>
      <trkpt lat="45.2973" lon="6.66483">
        <ele>2230.4</ele>
        <time>2019-09-12T08:55:30Z</time>
      </trkpt>
      <trkpt lat="45.29729" lon="6.66469">
        <ele>2231.84</ele>
        <time>2019-09-12T08:55:46Z</time>
      </trkpt>
      <trkpt lat="45.29726" lon="6.66453">
        <ele>2232.8</ele>
        <time>2019-09-12T08:56:02Z</time>
      </trkpt>
      <trkpt lat="45.2972" lon="6.66437">
        <ele>2233.28</ele>
        <time>2019-09-12T08:56:18Z</time>
      </trkpt>
      <trkpt lat="45.29716" lon="6.66428">
        <ele>2234.24</ele>
        <time>2019-09-12T08:56:33Z</time>
      </trkpt>
      <trkpt lat="45.29715" lon="6.66422">
        <ele>2234.24</ele>
        <time>2019-09-12T08:57:03Z</time>
      </trkpt>
      <trkpt lat="45.29709" lon="6.66416">
        <ele>2234.24</ele>
        <time>2019-09-12T08:57:21Z</time>
      </trkpt>
      <trkpt lat="45.2971" lon="6.66418">
        <ele>2235.2</ele>
        <time>2019-09-12T08:57:53Z</time>
      </trkpt>
      <trkpt lat="45.29709" lon="6.66418">
        <ele>2235.2</ele>
        <time>2019-09-12T08:58:09Z</time>
      </trkpt>
      <trkpt lat="45.29708" lon="6.66418">
        <ele>2235.2</ele>
        <time>2019-09-12T08:58:38Z</time>
      </trkpt>
      <trkpt lat="45.2971" lon="6.66414">
        <ele>2235.2</ele>
        <time>2019-09-12T08:59:05Z</time>
      </trkpt>
      <trkpt lat="45.29709" lon="6.66414">
        <ele>2235.2</ele>
        <time>2019-09-12T08:59:21Z</time>
      </trkpt>
      <trkpt lat="45.29708" lon="6.664">
        <ele>2235.68</ele>
        <time>2019-09-12T08:59:33Z</time>
      </trkpt>
      <trkpt lat="45.29706" lon="6.66401">
        <ele>2236.16</ele>
        <time>2019-09-12T08:59:50Z</time>
      </trkpt>
      <trkpt lat="45.29707" lon="6.66401">
        <ele>2236.16</ele>
        <time>2019-09-12T09:00:13Z</time>
      </trkpt>
      <trkpt lat="45.29706" lon="6.66402">
        <ele>2236.16</ele>
        <time>2019-09-12T09:00:46Z</time>
      </trkpt>
      <trkpt lat="45.29706" lon="6.66393">
        <ele>2236.16</ele>
        <time>2019-09-12T09:00:54Z</time>
      </trkpt>
      <trkpt lat="45.29706" lon="6.66375">
        <ele>2236.16</ele>
        <time>2019-09-12T09:01:08Z</time>
      </trkpt>
      <trkpt lat="45.29696" lon="6.66354">
        <ele>2237.13</ele>
        <time>2019-09-12T09:01:26Z</time>
      </trkpt>
      <trkpt lat="45.2969" lon="6.6633">
        <ele>2237.61</ele>
        <time>2019-09-12T09:01:43Z</time>
      </trkpt>
      <trkpt lat="45.29687" lon="6.66325">
        <ele>2237.61</ele>
        <time>2019-09-12T09:01:48Z</time>
      </trkpt>
      <trkpt lat="45.29675" lon="6.66315">
        <ele>2239.05</ele>
        <time>2019-09-12T09:02:04Z</time>
      </trkpt>
      <trkpt lat="45.29665" lon="6.66299">
        <ele>2240.97</ele>
        <time>2019-09-12T09:02:21Z</time>
      </trkpt>
      <trkpt lat="45.29654" lon="6.66283">
        <ele>2242.41</ele>
        <time>2019-09-12T09:02:38Z</time>
      </trkpt>
      <trkpt lat="45.29642" lon="6.66268">
        <ele>2243.85</ele>
        <time>2019-09-12T09:02:56Z</time>
      </trkpt>
      <trkpt lat="45.29634" lon="6.66246">
        <ele>2243.85</ele>
        <time>2019-09-12T09:03:13Z</time>
      </trkpt>
      <trkpt lat="45.29624" lon="6.66238">
        <ele>2244.33</ele>
        <time>2019-09-12T09:03:26Z</time>
      </trkpt>
      <trkpt lat="45.29612" lon="6.66241">
        <ele>2245.78</ele>
        <time>2019-09-12T09:03:40Z</time>
      </trkpt>
      <trkpt lat="45.29605" lon="6.66251">
        <ele>2246.74</ele>
        <time>2019-09-12T09:03:52Z</time>
      </trkpt>
      <trkpt lat="45.29593" lon="6.66266">
        <ele>2249.14</ele>
        <time>2019-09-12T09:04:10Z</time>
      </trkpt>
      <trkpt lat="45.29584" lon="6.66275">
        <ele>2251.06</ele>
        <time>2019-09-12T09:04:24Z</time>
      </trkpt>
      <trkpt lat="45.29575" lon="6.66285">
        <ele>2252.99</ele>
        <time>2019-09-12T09:04:41Z</time>
      </trkpt>
      <trkpt lat="45.29568" lon="6.66297">
        <ele>2254.91</ele>
        <time>2019-09-12T09:04:55Z</time>
      </trkpt>
      <trkpt lat="45.29561" lon="6.66306">
        <ele>2257.31</ele>
        <time>2019-09-12T09:05:11Z</time>
      </trkpt>
      <trkpt lat="45.29554" lon="6.66308">
        <ele>2258.27</ele>
        <time>2019-09-12T09:05:27Z</time>
      </trkpt>
      <trkpt lat="45.29546" lon="6.66305">
        <ele>2260.2</ele>
        <time>2019-09-12T09:05:42Z</time>
      </trkpt>
      <trkpt lat="45.29545" lon="6.66293">
        <ele>2261.64</ele>
        <time>2019-09-12T09:05:57Z</time>
      </trkpt>
      <trkpt lat="45.29549" lon="6.66277">
        <ele>2262.6</ele>
        <time>2019-09-12T09:06:12Z</time>
      </trkpt>
      <trkpt lat="45.29548" lon="6.66278">
        <ele>2263.56</ele>
        <time>2019-09-12T09:06:28Z</time>
      </trkpt>
      <trkpt lat="45.29545" lon="6.66285">
        <ele>2263.56</ele>
        <time>2019-09-12T09:06:46Z</time>
      </trkpt>
      <trkpt lat="45.29542" lon="6.66295">
        <ele>2262.12</ele>
        <time>2019-09-12T09:06:59Z</time>
      </trkpt>
      <trkpt lat="45.29536" lon="6.66304">
        <ele>2262.12</ele>
        <time>2019-09-12T09:07:14Z</time>
      </trkpt>
      <trkpt lat="45.29531" lon="6.66308">
        <ele>2262.12</ele>
        <time>2019-09-12T09:07:27Z</time>
      </trkpt>
      <trkpt lat="45.29531" lon="6.66298">
        <ele>2264.52</ele>
        <time>2019-09-12T09:07:44Z</time>
      </trkpt>
      <trkpt lat="45.29525" lon="6.66298">
        <ele>2265.96</ele>
        <time>2019-09-12T09:07:58Z</time>
      </trkpt>
      <trkpt lat="45.29519" lon="6.66304">
        <ele>2267.89</ele>
        <time>2019-09-12T09:08:14Z</time>
      </trkpt>
      <trkpt lat="45.29511" lon="6.66307">
        <ele>2270.29</ele>
        <time>2019-09-12T09:08:33Z</time>
      </trkpt>
      <trkpt lat="45.29511" lon="6.66291">
        <ele>2272.69</ele>
        <time>2019-09-12T09:08:56Z</time>
      </trkpt>
      <trkpt lat="45.29513" lon="6.66283">
        <ele>2274.14</ele>
        <time>2019-09-12T09:09:13Z</time>
      </trkpt>
      <trkpt lat="45.29506" lon="6.66283">
        <ele>2276.54</ele>
        <time>2019-09-12T09:09:31Z</time>
      </trkpt>
      <trkpt lat="45.29498" lon="6.66289">
        <ele>2277.98</ele>
        <time>2019-09-12T09:09:47Z</time>
      </trkpt>
      <trkpt lat="45.29491" lon="6.66294">
        <ele>2279.9</ele>
        <time>2019-09-12T09:10:07Z</time>
      </trkpt>
      <trkpt lat="45.29478" lon="6.66299">
        <ele>2282.31</ele>
        <time>2019-09-12T09:10:29Z</time>
      </trkpt>
      <trkpt lat="45.29468" lon="6.66298">
        <ele>2284.23</ele>
        <time>2019-09-12T09:10:49Z</time>
      </trkpt>
      <trkpt lat="45.2946" lon="6.66303">
        <ele>2285.67</ele>
        <time>2019-09-12T09:11:05Z</time>
      </trkpt>
      <trkpt lat="45.29452" lon="6.66307">
        <ele>2287.11</ele>
        <time>2019-09-12T09:11:21Z</time>
      </trkpt>
      <trkpt lat="45.29444" lon="6.6631">
        <ele>2289.04</ele>
        <time>2019-09-12T09:11:38Z</time>
      </trkpt>
      <trkpt lat="45.29435" lon="6.66314">
        <ele>2291.44</ele>
        <time>2019-09-12T09:12:01Z</time>
      </trkpt>
      <trkpt lat="45.29426" lon="6.66317">
        <ele>2293.36</ele>
        <time>2019-09-12T09:12:21Z</time>
      </trkpt>
      <trkpt lat="45.29416" lon="6.66322">
        <ele>2295.28</ele>
        <time>2019-09-12T09:12:41Z</time>
      </trkpt>
      <trkpt lat="45.29408" lon="6.66323">
        <ele>2297.21</ele>
        <time>2019-09-12T09:13:02Z</time>
      </trkpt>
      <trkpt lat="45.29405" lon="6.66314">
        <ele>2299.13</ele>
        <time>2019-09-12T09:13:20Z</time>
      </trkpt>
      <trkpt lat="45.29408" lon="6.66304">
        <ele>2301.05</ele>
        <time>2019-09-12T09:13:38Z</time>
      </trkpt>
      <trkpt lat="45.29409" lon="6.66292">
        <ele>2303.46</ele>
        <time>2019-09-12T09:13:59Z</time>
      </trkpt>
      <trkpt lat="45.2941" lon="6.66282">
        <ele>2304.9</ele>
        <time>2019-09-12T09:14:16Z</time>
      </trkpt>
      <trkpt lat="45.29412" lon="6.66273">
        <ele>2306.82</ele>
        <time>2019-09-12T09:14:31Z</time>
      </trkpt>
      <trkpt lat="45.29406" lon="6.66273">
        <ele>2308.74</ele>
        <time>2019-09-12T09:14:46Z</time>
      </trkpt>
      <trkpt lat="45.29398" lon="6.66281">
        <ele>2310.19</ele>
        <time>2019-09-12T09:15:03Z</time>
      </trkpt>
      <trkpt lat="45.29389" lon="6.66287">
        <ele>2312.59</ele>
        <time>2019-09-12T09:15:23Z</time>
      </trkpt>
      <trkpt lat="45.2938" lon="6.66289">
        <ele>2314.51</ele>
        <time>2019-09-12T09:15:42Z</time>
      </trkpt>
      <trkpt lat="45.29369" lon="6.66289">
        <ele>2315.95</ele>
        <time>2019-09-12T09:16:01Z</time>
      </trkpt>
      <trkpt lat="45.2936" lon="6.66293">
        <ele>2317.88</ele>
        <time>2019-09-12T09:16:18Z</time>
      </trkpt>
      <trkpt lat="45.29351" lon="6.66297">
        <ele>2319.32</ele>
        <time>2019-09-12T09:16:34Z</time>
      </trkpt>
      <trkpt lat="45.29341" lon="6.663">
        <ele>2321.24</ele>
        <time>2019-09-12T09:16:52Z</time>
      </trkpt>
      <trkpt lat="45.2933" lon="6.66302">
        <ele>2322.68</ele>
        <time>2019-09-12T09:17:09Z</time>
      </trkpt>
      <trkpt lat="45.29321" lon="6.66306">
        <ele>2324.12</ele>
        <time>2019-09-12T09:17:25Z</time>
      </trkpt>
      <trkpt lat="45.29311" lon="6.6631">
        <ele>2325.09</ele>
        <time>2019-09-12T09:17:40Z</time>
      </trkpt>
      <trkpt lat="45.29299" lon="6.66316">
        <ele>2327.01</ele>
        <time>2019-09-12T09:17:58Z</time>
      </trkpt>
      <trkpt lat="45.29288" lon="6.66318">
        <ele>2328.45</ele>
        <time>2019-09-12T09:18:14Z</time>
      </trkpt>
      <trkpt lat="45.29278" lon="6.66317">
        <ele>2330.37</ele>
        <time>2019-09-12T09:18:30Z</time>
      </trkpt>
      <trkpt lat="45.29273" lon="6.66327">
        <ele>2330.85</ele>
        <time>2019-09-12T09:18:43Z</time>
      </trkpt>
      <trkpt lat="45.29272" lon="6.6634">
        <ele>2333.26</ele>
        <time>2019-09-12T09:19:00Z</time>
      </trkpt>
      <trkpt lat="45.29276" lon="6.66356">
        <ele>2334.22</ele>
        <time>2019-09-12T09:19:16Z</time>
      </trkpt>
      <trkpt lat="45.29278" lon="6.6637">
        <ele>2337.1</ele>
        <time>2019-09-12T09:19:32Z</time>
      </trkpt>
      <trkpt lat="45.29276" lon="6.66383">
        <ele>2338.54</ele>
        <time>2019-09-12T09:19:48Z</time>
      </trkpt>
      <trkpt lat="45.29272" lon="6.66387">
        <ele>2339.51</ele>
        <time>2019-09-12T09:20:03Z</time>
      </trkpt>
      <trkpt lat="45.29264" lon="6.66386">
        <ele>2342.39</ele>
        <time>2019-09-12T09:20:21Z</time>
      </trkpt>
      <trkpt lat="45.29255" lon="6.66385">
        <ele>2343.83</ele>
        <time>2019-09-12T09:20:37Z</time>
      </trkpt>
      <trkpt lat="45.29247" lon="6.66386">
        <ele>2346.23</ele>
        <time>2019-09-12T09:20:52Z</time>
      </trkpt>
      <trkpt lat="45.29237" lon="6.66387">
        <ele>2347.68</ele>
        <time>2019-09-12T09:21:07Z</time>
      </trkpt>
      <trkpt lat="45.29228" lon="6.66383">
        <ele>2348.64</ele>
        <time>2019-09-12T09:21:24Z</time>
      </trkpt>
      <trkpt lat="45.29218" lon="6.66381">
        <ele>2350.56</ele>
        <time>2019-09-12T09:21:40Z</time>
      </trkpt>
      <trkpt lat="45.29206" lon="6.66381">
        <ele>2352</ele>
        <time>2019-09-12T09:21:56Z</time>
      </trkpt>
      <trkpt lat="45.29193" lon="6.6638">
        <ele>2353.44</ele>
        <time>2019-09-12T09:22:13Z</time>
      </trkpt>
      <trkpt lat="45.29184" lon="6.6638">
        <ele>2353.93</ele>
        <time>2019-09-12T09:22:28Z</time>
      </trkpt>
      <trkpt lat="45.29173" lon="6.66381">
        <ele>2355.37</ele>
        <time>2019-09-12T09:22:43Z</time>
      </trkpt>
      <trkpt lat="45.29163" lon="6.66381">
        <ele>2356.81</ele>
        <time>2019-09-12T09:22:59Z</time>
      </trkpt>
      <trkpt lat="45.29157" lon="6.66373">
        <ele>2359.21</ele>
        <time>2019-09-12T09:23:15Z</time>
      </trkpt>
      <trkpt lat="45.29146" lon="6.66368">
        <ele>2361.62</ele>
        <time>2019-09-12T09:23:34Z</time>
      </trkpt>
      <trkpt lat="45.29138" lon="6.66362">
        <ele>2363.54</ele>
        <time>2019-09-12T09:23:52Z</time>
      </trkpt>
      <trkpt lat="45.29128" lon="6.66359">
        <ele>2365.94</ele>
        <time>2019-09-12T09:24:12Z</time>
      </trkpt>
      <trkpt lat="45.29119" lon="6.66354">
        <ele>2367.86</ele>
        <time>2019-09-12T09:24:28Z</time>
      </trkpt>
      <trkpt lat="45.29113" lon="6.66351">
        <ele>2369.79</ele>
        <time>2019-09-12T09:24:45Z</time>
      </trkpt>
      <trkpt lat="45.29105" lon="6.66351">
        <ele>2371.71</ele>
        <time>2019-09-12T09:25:03Z</time>
      </trkpt>
      <trkpt lat="45.29098" lon="6.66349">
        <ele>2373.63</ele>
        <time>2019-09-12T09:25:20Z</time>
      </trkpt>
      <trkpt lat="45.29088" lon="6.66346">
        <ele>2375.55</ele>
        <time>2019-09-12T09:25:39Z</time>
      </trkpt>
      <trkpt lat="45.29076" lon="6.66342">
        <ele>2377</ele>
        <time>2019-09-12T09:25:58Z</time>
      </trkpt>
      <trkpt lat="45.29062" lon="6.66341">
        <ele>2379.4</ele>
        <time>2019-09-12T09:26:18Z</time>
      </trkpt>
      <trkpt lat="45.29052" lon="6.66338">
        <ele>2381.32</ele>
        <time>2019-09-12T09:26:36Z</time>
      </trkpt>
      <trkpt lat="45.29054" lon="6.66329">
        <ele>2382.76</ele>
        <time>2019-09-12T09:26:51Z</time>
      </trkpt>
      <trkpt lat="45.29065" lon="6.66321">
        <ele>2385.17</ele>
        <time>2019-09-12T09:27:11Z</time>
      </trkpt>
      <trkpt lat="45.29075" lon="6.66314">
        <ele>2387.09</ele>
        <time>2019-09-12T09:27:32Z</time>
      </trkpt>
      <trkpt lat="45.29071" lon="6.66304">
        <ele>2389.01</ele>
        <time>2019-09-12T09:27:47Z</time>
      </trkpt>
      <trkpt lat="45.29061" lon="6.66297">
        <ele>2390.94</ele>
        <time>2019-09-12T09:28:06Z</time>
      </trkpt>
      <trkpt lat="45.29053" lon="6.66291">
        <ele>2392.38</ele>
        <time>2019-09-12T09:28:21Z</time>
      </trkpt>
      <trkpt lat="45.29042" lon="6.66284">
        <ele>2393.82</ele>
        <time>2019-09-12T09:28:39Z</time>
      </trkpt>
      <trkpt lat="45.29033" lon="6.66278">
        <ele>2395.74</ele>
        <time>2019-09-12T09:28:55Z</time>
      </trkpt>
      <trkpt lat="45.29023" lon="6.66271">
        <ele>2397.67</ele>
        <time>2019-09-12T09:29:14Z</time>
      </trkpt>
      <trkpt lat="45.29013" lon="6.66269">
        <ele>2399.59</ele>
        <time>2019-09-12T09:29:29Z</time>
      </trkpt>
      <trkpt lat="45.29005" lon="6.66261">
        <ele>2401.03</ele>
        <time>2019-09-12T09:29:44Z</time>
      </trkpt>
      <trkpt lat="45.28996" lon="6.66259">
        <ele>2402.47</ele>
        <time>2019-09-12T09:29:58Z</time>
      </trkpt>
      <trkpt lat="45.28986" lon="6.66251">
        <ele>2403.43</ele>
        <time>2019-09-12T09:30:13Z</time>
      </trkpt>
      <trkpt lat="45.28976" lon="6.66248">
        <ele>2404.39</ele>
        <time>2019-09-12T09:30:28Z</time>
      </trkpt>
      <trkpt lat="45.28966" lon="6.66245">
        <ele>2405.84</ele>
        <time>2019-09-12T09:30:43Z</time>
      </trkpt>
      <trkpt lat="45.28955" lon="6.66239">
        <ele>2407.76</ele>
        <time>2019-09-12T09:31:00Z</time>
      </trkpt>
      <trkpt lat="45.28946" lon="6.66233">
        <ele>2409.2</ele>
        <time>2019-09-12T09:31:16Z</time>
      </trkpt>
      <trkpt lat="45.28937" lon="6.6623">
        <ele>2411.12</ele>
        <time>2019-09-12T09:31:32Z</time>
      </trkpt>
      <trkpt lat="45.28924" lon="6.6623">
        <ele>2411.12</ele>
        <time>2019-09-12T09:31:48Z</time>
      </trkpt>
      <trkpt lat="45.28912" lon="6.66232">
        <ele>2412.09</ele>
        <time>2019-09-12T09:32:03Z</time>
      </trkpt>
      <trkpt lat="45.28904" lon="6.66228">
        <ele>2413.05</ele>
        <time>2019-09-12T09:32:13Z</time>
      </trkpt>
      <trkpt lat="45.28891" lon="6.66227">
        <ele>2414.49</ele>
        <time>2019-09-12T09:32:29Z</time>
      </trkpt>
      <trkpt lat="45.28879" lon="6.66225">
        <ele>2414.97</ele>
        <time>2019-09-12T09:32:43Z</time>
      </trkpt>
      <trkpt lat="45.28868" lon="6.66216">
        <ele>2414.97</ele>
        <time>2019-09-12T09:32:58Z</time>
      </trkpt>
      <trkpt lat="45.28867" lon="6.66214">
        <ele>2415.45</ele>
        <time>2019-09-12T09:33:00Z</time>
      </trkpt>
      <trkpt lat="45.28865" lon="6.662">
        <ele>2416.41</ele>
        <time>2019-09-12T09:33:13Z</time>
      </trkpt>
      <trkpt lat="45.28868" lon="6.66187">
        <ele>2416.89</ele>
        <time>2019-09-12T09:33:24Z</time>
      </trkpt>
      <trkpt lat="45.28873" lon="6.66169">
        <ele>2418.33</ele>
        <time>2019-09-12T09:33:41Z</time>
      </trkpt>
      <trkpt lat="45.28873" lon="6.66153">
        <ele>2418.81</ele>
        <time>2019-09-12T09:33:54Z</time>
      </trkpt>
      <trkpt lat="45.28868" lon="6.66138">
        <ele>2420.26</ele>
        <time>2019-09-12T09:34:10Z</time>
      </trkpt>
      <trkpt lat="45.28867" lon="6.66127">
        <ele>2422.66</ele>
        <time>2019-09-12T09:34:26Z</time>
      </trkpt>
      <trkpt lat="45.28865" lon="6.6612">
        <ele>2424.58</ele>
        <time>2019-09-12T09:34:40Z</time>
      </trkpt>
      <trkpt lat="45.28864" lon="6.66113">
        <ele>2426.99</ele>
        <time>2019-09-12T09:34:56Z</time>
      </trkpt>
      <trkpt lat="45.28862" lon="6.66104">
        <ele>2429.39</ele>
        <time>2019-09-12T09:35:14Z</time>
      </trkpt>
      <trkpt lat="45.28865" lon="6.6609">
        <ele>2429.87</ele>
        <time>2019-09-12T09:35:30Z</time>
      </trkpt>
      <trkpt lat="45.28869" lon="6.66076">
        <ele>2430.35</ele>
        <time>2019-09-12T09:35:45Z</time>
      </trkpt>
      <trkpt lat="45.28868" lon="6.66063">
        <ele>2433.23</ele>
        <time>2019-09-12T09:36:06Z</time>
      </trkpt>
      <trkpt lat="45.28874" lon="6.66058">
        <ele>2435.16</ele>
        <time>2019-09-12T09:36:23Z</time>
      </trkpt>
      <trkpt lat="45.28881" lon="6.6605">
        <ele>2437.56</ele>
        <time>2019-09-12T09:36:40Z</time>
      </trkpt>
      <trkpt lat="45.28886" lon="6.66043">
        <ele>2439</ele>
        <time>2019-09-12T09:36:58Z</time>
      </trkpt>
      <trkpt lat="45.28891" lon="6.66032">
        <ele>2441.41</ele>
        <time>2019-09-12T09:37:17Z</time>
      </trkpt>
      <trkpt lat="45.289" lon="6.66025">
        <ele>2442.85</ele>
        <time>2019-09-12T09:37:35Z</time>
      </trkpt>
      <trkpt lat="45.28908" lon="6.66015">
        <ele>2444.77</ele>
        <time>2019-09-12T09:37:56Z</time>
      </trkpt>
      <trkpt lat="45.28913" lon="6.66004">
        <ele>2445.73</ele>
        <time>2019-09-12T09:38:10Z</time>
      </trkpt>
      <trkpt lat="45.28914" lon="6.65994">
        <ele>2445.73</ele>
        <time>2019-09-12T09:38:22Z</time>
      </trkpt>
      <trkpt lat="45.28922" lon="6.65987">
        <ele>2445.73</ele>
        <time>2019-09-12T09:38:36Z</time>
      </trkpt>
      <trkpt lat="45.28924" lon="6.65978">
        <ele>2447.65</ele>
        <time>2019-09-12T09:38:49Z</time>
      </trkpt>
      <trkpt lat="45.28919" lon="6.65969">
        <ele>2449.58</ele>
        <time>2019-09-12T09:39:04Z</time>
      </trkpt>
      <trkpt lat="45.28918" lon="6.65957">
        <ele>2451.98</ele>
        <time>2019-09-12T09:39:21Z</time>
      </trkpt>
      <trkpt lat="45.28914" lon="6.65948">
        <ele>2453.42</ele>
        <time>2019-09-12T09:39:35Z</time>
      </trkpt>
      <trkpt lat="45.28918" lon="6.65936">
        <ele>2454.86</ele>
        <time>2019-09-12T09:39:53Z</time>
      </trkpt>
      <trkpt lat="45.28926" lon="6.65937">
        <ele>2456.79</ele>
        <time>2019-09-12T09:40:10Z</time>
      </trkpt>
      <trkpt lat="45.28927" lon="6.6593">
        <ele>2459.19</ele>
        <time>2019-09-12T09:40:27Z</time>
      </trkpt>
      <trkpt lat="45.28926" lon="6.65922">
        <ele>2459.67</ele>
        <time>2019-09-12T09:40:41Z</time>
      </trkpt>
      <trkpt lat="45.28927" lon="6.65915">
        <ele>2459.67</ele>
        <time>2019-09-12T09:40:56Z</time>
      </trkpt>
      <trkpt lat="45.28924" lon="6.65917">
        <ele>2459.67</ele>
        <time>2019-09-12T09:41:10Z</time>
      </trkpt>
      <trkpt lat="45.28922" lon="6.65918">
        <ele>2459.67</ele>
        <time>2019-09-12T09:41:41Z</time>
      </trkpt>
      <trkpt lat="45.28919" lon="6.6592">
        <ele>2459.67</ele>
        <time>2019-09-12T09:42:05Z</time>
      </trkpt>
      <trkpt lat="45.2892" lon="6.6592">
        <ele>2460.15</ele>
        <time>2019-09-12T09:42:33Z</time>
      </trkpt>
      <trkpt lat="45.28921" lon="6.65924">
        <ele>2460.15</ele>
        <time>2019-09-12T09:43:04Z</time>
      </trkpt>
      <trkpt lat="45.28921" lon="6.65921">
        <ele>2460.15</ele>
        <time>2019-09-12T09:43:35Z</time>
      </trkpt>
      <trkpt lat="45.2892" lon="6.6592">
        <ele>2460.63</ele>
        <time>2019-09-12T09:44:03Z</time>
      </trkpt>
      <trkpt lat="45.28918" lon="6.65921">
        <ele>2460.63</ele>
        <time>2019-09-12T09:44:33Z</time>
      </trkpt>
      <trkpt lat="45.28917" lon="6.65918">
        <ele>2459.67</ele>
        <time>2019-09-12T09:45:05Z</time>
      </trkpt>
      <trkpt lat="45.28918" lon="6.6592">
        <ele>2459.67</ele>
        <time>2019-09-12T09:45:35Z</time>
      </trkpt>
      <trkpt lat="45.28921" lon="6.65921">
        <ele>2460.15</ele>
        <time>2019-09-12T09:46:10Z</time>
      </trkpt>
      <trkpt lat="45.28921" lon="6.6592">
        <ele>2460.15</ele>
        <time>2019-09-12T09:46:40Z</time>
      </trkpt>
      <trkpt lat="45.28921" lon="6.65921">
        <ele>2460.15</ele>
        <time>2019-09-12T09:47:15Z</time>
      </trkpt>
      <trkpt lat="45.2892" lon="6.65919">
        <ele>2459.67</ele>
        <time>2019-09-12T09:47:40Z</time>
      </trkpt>
      <trkpt lat="45.28919" lon="6.65919">
        <ele>2460.15</ele>
        <time>2019-09-12T09:48:13Z</time>
      </trkpt>
      <trkpt lat="45.2892" lon="6.65919">
        <ele>2460.15</ele>
        <time>2019-09-12T09:48:38Z</time>
      </trkpt>
      <trkpt lat="45.28918" lon="6.65919">
        <ele>2460.15</ele>
        <time>2019-09-12T09:49:06Z</time>
      </trkpt>
      <trkpt lat="45.28919" lon="6.65919">
        <ele>2461.11</ele>
        <time>2019-09-12T09:49:15Z</time>
      </trkpt>
      <trkpt lat="45.2892" lon="6.65919">
        <ele>2460.63</ele>
        <time>2019-09-12T09:49:45Z</time>
      </trkpt>
      <trkpt lat="45.28922" lon="6.65919">
        <ele>2460.63</ele>
        <time>2019-09-12T09:50:23Z</time>
      </trkpt>
      <trkpt lat="45.28922" lon="6.65918">
        <ele>2460.63</ele>
        <time>2019-09-12T09:50:53Z</time>
      </trkpt>
      <trkpt lat="45.28923" lon="6.6592">
        <ele>2460.63</ele>
        <time>2019-09-12T09:51:24Z</time>
      </trkpt>
      <trkpt lat="45.28921" lon="6.65917">
        <ele>2460.63</ele>
        <time>2019-09-12T09:52:01Z</time>
      </trkpt>
      <trkpt lat="45.2892" lon="6.65919">
        <ele>2460.15</ele>
        <time>2019-09-12T09:52:39Z</time>
      </trkpt>
      <trkpt lat="45.28921" lon="6.65918">
        <ele>2460.63</ele>
        <time>2019-09-12T09:53:19Z</time>
      </trkpt>
      <trkpt lat="45.28925" lon="6.65918">
        <ele>2460.63</ele>
        <time>2019-09-12T09:53:35Z</time>
      </trkpt>
      <trkpt lat="45.28924" lon="6.65918">
        <ele>2462.55</ele>
        <time>2019-09-12T09:53:49Z</time>
      </trkpt>
      <trkpt lat="45.28924" lon="6.65918">
        <ele>2459.67</ele>
        <time>2019-09-12T09:53:51Z</time>
      </trkpt>
      <trkpt lat="45.28924" lon="6.65918">
        <ele>2464.48</ele>
        <time>2019-09-12T09:53:52Z</time>
      </trkpt>
      <trkpt lat="45.28924" lon="6.65918">
        <ele>2461.11</ele>
        <time>2019-09-12T09:53:53Z</time>
      </trkpt>
      <trkpt lat="45.28921" lon="6.65926">
        <ele>2460.63</ele>
        <time>2019-09-12T09:54:04Z</time>
      </trkpt>
      <trkpt lat="45.28929" lon="6.65937">
        <ele>2460.63</ele>
        <time>2019-09-12T09:54:19Z</time>
      </trkpt>
      <trkpt lat="45.28937" lon="6.65938">
        <ele>2462.07</ele>
        <time>2019-09-12T09:54:32Z</time>
      </trkpt>
      <trkpt lat="45.28949" lon="6.65934">
        <ele>2463.52</ele>
        <time>2019-09-12T09:54:48Z</time>
      </trkpt>
      <trkpt lat="45.28962" lon="6.65943">
        <ele>2464</ele>
        <time>2019-09-12T09:55:03Z</time>
      </trkpt>
      <trkpt lat="45.28974" lon="6.65945">
        <ele>2465.44</ele>
        <time>2019-09-12T09:55:20Z</time>
      </trkpt>
      <trkpt lat="45.28982" lon="6.65946">
        <ele>2467.36</ele>
        <time>2019-09-12T09:55:35Z</time>
      </trkpt>
      <trkpt lat="45.28987" lon="6.65949">
        <ele>2469.28</ele>
        <time>2019-09-12T09:55:51Z</time>
      </trkpt>
      <trkpt lat="45.28997" lon="6.65953">
        <ele>2470.73</ele>
        <time>2019-09-12T09:56:07Z</time>
      </trkpt>
      <trkpt lat="45.29008" lon="6.6595">
        <ele>2472.17</ele>
        <time>2019-09-12T09:56:23Z</time>
      </trkpt>
      <trkpt lat="45.29016" lon="6.65945">
        <ele>2473.61</ele>
        <time>2019-09-12T09:56:39Z</time>
      </trkpt>
      <trkpt lat="45.29024" lon="6.65936">
        <ele>2475.05</ele>
        <time>2019-09-12T09:56:55Z</time>
      </trkpt>
      <trkpt lat="45.29028" lon="6.65923">
        <ele>2475.05</ele>
        <time>2019-09-12T09:57:08Z</time>
      </trkpt>
      <trkpt lat="45.29029" lon="6.65909">
        <ele>2476.01</ele>
        <time>2019-09-12T09:57:22Z</time>
      </trkpt>
      <trkpt lat="45.29036" lon="6.65896">
        <ele>2476.49</ele>
        <time>2019-09-12T09:57:36Z</time>
      </trkpt>
      <trkpt lat="45.29041" lon="6.6589">
        <ele>2477.45</ele>
        <time>2019-09-12T09:57:44Z</time>
      </trkpt>
      <trkpt lat="45.29044" lon="6.65883">
        <ele>2477.45</ele>
        <time>2019-09-12T09:57:51Z</time>
      </trkpt>
      <trkpt lat="45.29051" lon="6.65868">
        <ele>2477.94</ele>
        <time>2019-09-12T09:58:05Z</time>
      </trkpt>
      <trkpt lat="45.29059" lon="6.65858">
        <ele>2477.94</ele>
        <time>2019-09-12T09:58:16Z</time>
      </trkpt>
      <trkpt lat="45.29066" lon="6.6584">
        <ele>2479.38</ele>
        <time>2019-09-12T09:58:31Z</time>
      </trkpt>
      <trkpt lat="45.29067" lon="6.65838">
        <ele>2479.38</ele>
        <time>2019-09-12T09:58:33Z</time>
      </trkpt>
      <trkpt lat="45.29075" lon="6.65822">
        <ele>2480.34</ele>
        <time>2019-09-12T09:58:47Z</time>
      </trkpt>
      <trkpt lat="45.29076" lon="6.65821">
        <ele>2480.34</ele>
        <time>2019-09-12T09:58:48Z</time>
      </trkpt>
      <trkpt lat="45.29078" lon="6.65818">
        <ele>2480.34</ele>
        <time>2019-09-12T09:58:52Z</time>
      </trkpt>
      <trkpt lat="45.29082" lon="6.65811">
        <ele>2481.3</ele>
        <time>2019-09-12T09:59:01Z</time>
      </trkpt>
      <trkpt lat="45.29083" lon="6.65806">
        <ele>2481.78</ele>
        <time>2019-09-12T09:59:05Z</time>
      </trkpt>
      <trkpt lat="45.29089" lon="6.65795">
        <ele>2481.78</ele>
        <time>2019-09-12T09:59:15Z</time>
      </trkpt>
      <trkpt lat="45.29094" lon="6.65783">
        <ele>2481.78</ele>
        <time>2019-09-12T09:59:26Z</time>
      </trkpt>
      <trkpt lat="45.29097" lon="6.65781">
        <ele>2481.78</ele>
        <time>2019-09-12T09:59:29Z</time>
      </trkpt>
      <trkpt lat="45.29103" lon="6.65772">
        <ele>2482.26</ele>
        <time>2019-09-12T09:59:37Z</time>
      </trkpt>
      <trkpt lat="45.29113" lon="6.65757">
        <ele>2483.22</ele>
        <time>2019-09-12T09:59:52Z</time>
      </trkpt>
      <trkpt lat="45.29116" lon="6.6575">
        <ele>2483.7</ele>
        <time>2019-09-12T09:59:59Z</time>
      </trkpt>
      <trkpt lat="45.29121" lon="6.65745">
        <ele>2483.7</ele>
        <time>2019-09-12T10:00:07Z</time>
      </trkpt>
      <trkpt lat="45.29128" lon="6.65733">
        <ele>2484.18</ele>
        <time>2019-09-12T10:00:20Z</time>
      </trkpt>
      <trkpt lat="45.29129" lon="6.65731">
        <ele>2484.18</ele>
        <time>2019-09-12T10:00:21Z</time>
      </trkpt>
      <trkpt lat="45.29142" lon="6.65723">
        <ele>2482.74</ele>
        <time>2019-09-12T10:00:38Z</time>
      </trkpt>
      <trkpt lat="45.29144" lon="6.65721">
        <ele>2482.74</ele>
        <time>2019-09-12T10:00:40Z</time>
      </trkpt>
      <trkpt lat="45.29157" lon="6.65709">
        <ele>2481.3</ele>
        <time>2019-09-12T10:00:54Z</time>
      </trkpt>
      <trkpt lat="45.29168" lon="6.65694">
        <ele>2481.3</ele>
        <time>2019-09-12T10:01:09Z</time>
      </trkpt>
      <trkpt lat="45.29169" lon="6.65693">
        <ele>2481.3</ele>
        <time>2019-09-12T10:01:10Z</time>
      </trkpt>
      <trkpt lat="45.29179" lon="6.6568">
        <ele>2482.74</ele>
        <time>2019-09-12T10:01:24Z</time>
      </trkpt>
      <trkpt lat="45.29189" lon="6.65668">
        <ele>2482.74</ele>
        <time>2019-09-12T10:01:38Z</time>
      </trkpt>
      <trkpt lat="45.29192" lon="6.65663">
        <ele>2482.74</ele>
        <time>2019-09-12T10:01:43Z</time>
      </trkpt>
      <trkpt lat="45.29195" lon="6.65659">
        <ele>2482.74</ele>
        <time>2019-09-12T10:01:48Z</time>
      </trkpt>
      <trkpt lat="45.29204" lon="6.65643">
        <ele>2482.74</ele>
        <time>2019-09-12T10:02:03Z</time>
      </trkpt>
      <trkpt lat="45.29216" lon="6.65631">
        <ele>2481.3</ele>
        <time>2019-09-12T10:02:18Z</time>
      </trkpt>
      <trkpt lat="45.29229" lon="6.65616">
        <ele>2479.86</ele>
        <time>2019-09-12T10:02:35Z</time>
      </trkpt>
      <trkpt lat="45.2924" lon="6.65607">
        <ele>2478.9</ele>
        <time>2019-09-12T10:02:48Z</time>
      </trkpt>
      <trkpt lat="45.29244" lon="6.65602">
        <ele>2478.42</ele>
        <time>2019-09-12T10:02:52Z</time>
      </trkpt>
      <trkpt lat="45.29258" lon="6.65595">
        <ele>2476.97</ele>
        <time>2019-09-12T10:03:07Z</time>
      </trkpt>
      <trkpt lat="45.29261" lon="6.65595">
        <ele>2476.49</ele>
        <time>2019-09-12T10:03:10Z</time>
      </trkpt>
      <trkpt lat="45.29269" lon="6.65587">
        <ele>2476.49</ele>
        <time>2019-09-12T10:03:20Z</time>
      </trkpt>
      <trkpt lat="45.29276" lon="6.65584">
        <ele>2476.01</ele>
        <time>2019-09-12T10:03:27Z</time>
      </trkpt>
      <trkpt lat="45.29283" lon="6.65582">
        <ele>2474.57</ele>
        <time>2019-09-12T10:03:42Z</time>
      </trkpt>
      <trkpt lat="45.2929" lon="6.65574">
        <ele>2472.65</ele>
        <time>2019-09-12T10:03:56Z</time>
      </trkpt>
      <trkpt lat="45.29297" lon="6.65568">
        <ele>2471.69</ele>
        <time>2019-09-12T10:04:11Z</time>
      </trkpt>
      <trkpt lat="45.29296" lon="6.65566">
        <ele>2471.21</ele>
        <time>2019-09-12T10:04:39Z</time>
      </trkpt>
      <trkpt lat="45.29299" lon="6.65569">
        <ele>2471.21</ele>
        <time>2019-09-12T10:05:00Z</time>
      </trkpt>
      <trkpt lat="45.29297" lon="6.65567">
        <ele>2471.21</ele>
        <time>2019-09-12T10:05:20Z</time>
      </trkpt>
      <trkpt lat="45.29298" lon="6.65566">
        <ele>2471.21</ele>
        <time>2019-09-12T10:05:33Z</time>
      </trkpt>
      <trkpt lat="45.29298" lon="6.65569">
        <ele>2471.69</ele>
        <time>2019-09-12T10:05:51Z</time>
      </trkpt>
      <trkpt lat="45.29298" lon="6.65572">
        <ele>2471.69</ele>
        <time>2019-09-12T10:06:14Z</time>
      </trkpt>
      <trkpt lat="45.29301" lon="6.65566">
        <ele>2471.21</ele>
        <time>2019-09-12T10:06:25Z</time>
      </trkpt>
      <trkpt lat="45.29302" lon="6.65562">
        <ele>2469.76</ele>
        <time>2019-09-12T10:06:41Z</time>
      </trkpt>
      <trkpt lat="45.29307" lon="6.65563">
        <ele>2468.8</ele>
        <time>2019-09-12T10:06:54Z</time>
      </trkpt>
      <trkpt lat="45.29314" lon="6.65566">
        <ele>2465.44</ele>
        <time>2019-09-12T10:07:10Z</time>
      </trkpt>
      <trkpt lat="45.29316" lon="6.6557">
        <ele>2464.96</ele>
        <time>2019-09-12T10:07:25Z</time>
      </trkpt>
      <trkpt lat="45.29315" lon="6.6557">
        <ele>2464.96</ele>
        <time>2019-09-12T10:07:53Z</time>
      </trkpt>
      <trkpt lat="45.29316" lon="6.65569">
        <ele>2464.96</ele>
        <time>2019-09-12T10:08:17Z</time>
      </trkpt>
      <trkpt lat="45.29316" lon="6.65568">
        <ele>2464.96</ele>
        <time>2019-09-12T10:08:38Z</time>
      </trkpt>
      <trkpt lat="45.2932" lon="6.65575">
        <ele>2464</ele>
        <time>2019-09-12T10:08:57Z</time>
      </trkpt>
      <trkpt lat="45.29313" lon="6.65586">
        <ele>2463.04</ele>
        <time>2019-09-12T10:09:12Z</time>
      </trkpt>
      <trkpt lat="45.29317" lon="6.65601">
        <ele>2460.15</ele>
        <time>2019-09-12T10:09:27Z</time>
      </trkpt>
      <trkpt lat="45.2932" lon="6.65608">
        <ele>2458.71</ele>
        <time>2019-09-12T10:09:41Z</time>
      </trkpt>
      <trkpt lat="45.29327" lon="6.6562">
        <ele>2455.82</ele>
        <time>2019-09-12T10:09:55Z</time>
      </trkpt>
      <trkpt lat="45.2934" lon="6.65623">
        <ele>2454.38</ele>
        <time>2019-09-12T10:10:10Z</time>
      </trkpt>
      <trkpt lat="45.29343" lon="6.65622">
        <ele>2453.42</ele>
        <time>2019-09-12T10:10:13Z</time>
      </trkpt>
      <trkpt lat="45.2935" lon="6.65612">
        <ele>2452.46</ele>
        <time>2019-09-12T10:10:22Z</time>
      </trkpt>
      <trkpt lat="45.29353" lon="6.65605">
        <ele>2452.46</ele>
        <time>2019-09-12T10:10:28Z</time>
      </trkpt>
      <trkpt lat="45.29357" lon="6.65596">
        <ele>2451.98</ele>
        <time>2019-09-12T10:10:35Z</time>
      </trkpt>
      <trkpt lat="45.29363" lon="6.65578">
        <ele>2450.54</ele>
        <time>2019-09-12T10:10:49Z</time>
      </trkpt>
      <trkpt lat="45.29366" lon="6.65572">
        <ele>2449.58</ele>
        <time>2019-09-12T10:10:56Z</time>
      </trkpt>
      <trkpt lat="45.29373" lon="6.65567">
        <ele>2448.62</ele>
        <time>2019-09-12T10:11:02Z</time>
      </trkpt>
      <trkpt lat="45.29378" lon="6.65555">
        <ele>2448.13</ele>
        <time>2019-09-12T10:11:12Z</time>
      </trkpt>
      <trkpt lat="45.29379" lon="6.65552">
        <ele>2447.65</ele>
        <time>2019-09-12T10:11:14Z</time>
      </trkpt>
      <trkpt lat="45.29381" lon="6.65547">
        <ele>2447.65</ele>
        <time>2019-09-12T10:11:18Z</time>
      </trkpt>
      <trkpt lat="45.29384" lon="6.65539">
        <ele>2446.21</ele>
        <time>2019-09-12T10:11:24Z</time>
      </trkpt>
      <trkpt lat="45.29393" lon="6.6552">
        <ele>2443.33</ele>
        <time>2019-09-12T10:11:40Z</time>
      </trkpt>
      <trkpt lat="45.29399" lon="6.65513">
        <ele>2441.41</ele>
        <time>2019-09-12T10:11:48Z</time>
      </trkpt>
      <trkpt lat="45.29407" lon="6.65498">
        <ele>2438.52</ele>
        <time>2019-09-12T10:12:03Z</time>
      </trkpt>
      <trkpt lat="45.29409" lon="6.65493">
        <ele>2437.56</ele>
        <time>2019-09-12T10:12:08Z</time>
      </trkpt>
      <trkpt lat="45.29419" lon="6.65485">
        <ele>2436.6</ele>
        <time>2019-09-12T10:12:20Z</time>
      </trkpt>
      <trkpt lat="45.2942" lon="6.65483">
        <ele>2435.64</ele>
        <time>2019-09-12T10:12:22Z</time>
      </trkpt>
      <trkpt lat="45.29424" lon="6.65477">
        <ele>2434.68</ele>
        <time>2019-09-12T10:12:27Z</time>
      </trkpt>
      <trkpt lat="45.29429" lon="6.65472">
        <ele>2434.2</ele>
        <time>2019-09-12T10:12:32Z</time>
      </trkpt>
      <trkpt lat="45.2943" lon="6.65469">
        <ele>2433.71</ele>
        <time>2019-09-12T10:12:34Z</time>
      </trkpt>
      <trkpt lat="45.29435" lon="6.65463">
        <ele>2433.23</ele>
        <time>2019-09-12T10:12:40Z</time>
      </trkpt>
      <trkpt lat="45.29437" lon="6.65461">
        <ele>2433.23</ele>
        <time>2019-09-12T10:12:42Z</time>
      </trkpt>
      <trkpt lat="45.29446" lon="6.65447">
        <ele>2432.27</ele>
        <time>2019-09-12T10:12:52Z</time>
      </trkpt>
      <trkpt lat="45.29461" lon="6.65429">
        <ele>2432.27</ele>
        <time>2019-09-12T10:13:07Z</time>
      </trkpt>
      <trkpt lat="45.29464" lon="6.65419">
        <ele>2432.27</ele>
        <time>2019-09-12T10:13:13Z</time>
      </trkpt>
      <trkpt lat="45.29475" lon="6.65401">
        <ele>2430.83</ele>
        <time>2019-09-12T10:13:29Z</time>
      </trkpt>
      <trkpt lat="45.29487" lon="6.65394">
        <ele>2429.87</ele>
        <time>2019-09-12T10:13:40Z</time>
      </trkpt>
      <trkpt lat="45.29493" lon="6.6539">
        <ele>2429.39</ele>
        <time>2019-09-12T10:13:46Z</time>
      </trkpt>
      <trkpt lat="45.29498" lon="6.6538">
        <ele>2428.91</ele>
        <time>2019-09-12T10:14:00Z</time>
      </trkpt>
      <trkpt lat="45.29514" lon="6.65381">
        <ele>2428.43</ele>
        <time>2019-09-12T10:14:14Z</time>
      </trkpt>
      <trkpt lat="45.29519" lon="6.65382">
        <ele>2428.43</ele>
        <time>2019-09-12T10:14:19Z</time>
      </trkpt>
      <trkpt lat="45.29525" lon="6.65383">
        <ele>2428.43</ele>
        <time>2019-09-12T10:14:25Z</time>
      </trkpt>
      <trkpt lat="45.29533" lon="6.65379">
        <ele>2428.43</ele>
        <time>2019-09-12T10:14:35Z</time>
      </trkpt>
      <trkpt lat="45.29537" lon="6.65375">
        <ele>2428.43</ele>
        <time>2019-09-12T10:14:39Z</time>
      </trkpt>
      <trkpt lat="45.29544" lon="6.65367">
        <ele>2428.43</ele>
        <time>2019-09-12T10:14:49Z</time>
      </trkpt>
      <trkpt lat="45.29546" lon="6.65365">
        <ele>2428.43</ele>
        <time>2019-09-12T10:14:53Z</time>
      </trkpt>
      <trkpt lat="45.2955" lon="6.65366">
        <ele>2428.43</ele>
        <time>2019-09-12T10:14:57Z</time>
      </trkpt>
      <trkpt lat="45.29555" lon="6.65365">
        <ele>2428.43</ele>
        <time>2019-09-12T10:15:01Z</time>
      </trkpt>
      <trkpt lat="45.2956" lon="6.65363">
        <ele>2428.43</ele>
        <time>2019-09-12T10:15:06Z</time>
      </trkpt>
      <trkpt lat="45.29563" lon="6.65363">
        <ele>2428.43</ele>
        <time>2019-09-12T10:15:09Z</time>
      </trkpt>
      <trkpt lat="45.29577" lon="6.65359">
        <ele>2429.87</ele>
        <time>2019-09-12T10:15:24Z</time>
      </trkpt>
      <trkpt lat="45.29594" lon="6.65362">
        <ele>2431.31</ele>
        <time>2019-09-12T10:15:41Z</time>
      </trkpt>
      <trkpt lat="45.296" lon="6.65365">
        <ele>2432.27</ele>
        <time>2019-09-12T10:15:46Z</time>
      </trkpt>
      <trkpt lat="45.29615" lon="6.65377">
        <ele>2432.75</ele>
        <time>2019-09-12T10:16:02Z</time>
      </trkpt>
      <trkpt lat="45.29626" lon="6.6538">
        <ele>2433.71</ele>
        <time>2019-09-12T10:16:15Z</time>
      </trkpt>
      <trkpt lat="45.29641" lon="6.65377">
        <ele>2434.68</ele>
        <time>2019-09-12T10:16:29Z</time>
      </trkpt>
      <trkpt lat="45.29648" lon="6.65374">
        <ele>2434.68</ele>
        <time>2019-09-12T10:16:35Z</time>
      </trkpt>
      <trkpt lat="45.2966" lon="6.65375">
        <ele>2434.68</ele>
        <time>2019-09-12T10:16:44Z</time>
      </trkpt>
      <trkpt lat="45.29679" lon="6.65374">
        <ele>2434.68</ele>
        <time>2019-09-12T10:17:01Z</time>
      </trkpt>
      <trkpt lat="45.29694" lon="6.6538">
        <ele>2433.23</ele>
        <time>2019-09-12T10:17:13Z</time>
      </trkpt>
      <trkpt lat="45.29707" lon="6.65386">
        <ele>2432.27</ele>
        <time>2019-09-12T10:17:29Z</time>
      </trkpt>
      <trkpt lat="45.29707" lon="6.65383">
        <ele>2432.27</ele>
        <time>2019-09-12T10:17:50Z</time>
      </trkpt>
      <trkpt lat="45.29721" lon="6.65382">
        <ele>2430.83</ele>
        <time>2019-09-12T10:18:06Z</time>
      </trkpt>
      <trkpt lat="45.29735" lon="6.65372">
        <ele>2430.35</ele>
        <time>2019-09-12T10:18:20Z</time>
      </trkpt>
      <trkpt lat="45.29744" lon="6.65361">
        <ele>2430.35</ele>
        <time>2019-09-12T10:18:32Z</time>
      </trkpt>
      <trkpt lat="45.2975" lon="6.65358">
        <ele>2431.79</ele>
        <time>2019-09-12T10:18:40Z</time>
      </trkpt>
      <trkpt lat="45.29765" lon="6.65353">
        <ele>2433.23</ele>
        <time>2019-09-12T10:18:56Z</time>
      </trkpt>
      <trkpt lat="45.29775" lon="6.65344">
        <ele>2434.2</ele>
        <time>2019-09-12T10:19:10Z</time>
      </trkpt>
      <trkpt lat="45.29781" lon="6.65329">
        <ele>2436.6</ele>
        <time>2019-09-12T10:19:28Z</time>
      </trkpt>
      <trkpt lat="45.29785" lon="6.65317">
        <ele>2437.56</ele>
        <time>2019-09-12T10:19:44Z</time>
      </trkpt>
      <trkpt lat="45.29787" lon="6.65305">
        <ele>2439.96</ele>
        <time>2019-09-12T10:20:00Z</time>
      </trkpt>
      <trkpt lat="45.29789" lon="6.65296">
        <ele>2441.41</ele>
        <time>2019-09-12T10:20:15Z</time>
      </trkpt>
      <trkpt lat="45.29792" lon="6.65286">
        <ele>2442.85</ele>
        <time>2019-09-12T10:20:29Z</time>
      </trkpt>
      <trkpt lat="45.29795" lon="6.65274">
        <ele>2444.29</ele>
        <time>2019-09-12T10:20:44Z</time>
      </trkpt>
      <trkpt lat="45.29797" lon="6.65268">
        <ele>2445.73</ele>
        <time>2019-09-12T10:20:56Z</time>
      </trkpt>
      <trkpt lat="45.29799" lon="6.65257">
        <ele>2447.17</ele>
        <time>2019-09-12T10:21:13Z</time>
      </trkpt>
      <trkpt lat="45.29803" lon="6.65241">
        <ele>2449.1</ele>
        <time>2019-09-12T10:21:30Z</time>
      </trkpt>
      <trkpt lat="45.29805" lon="6.65229">
        <ele>2450.54</ele>
        <time>2019-09-12T10:21:45Z</time>
      </trkpt>
      <trkpt lat="45.29808" lon="6.65217">
        <ele>2451.98</ele>
        <time>2019-09-12T10:22:00Z</time>
      </trkpt>
      <trkpt lat="45.29811" lon="6.65204">
        <ele>2453.9</ele>
        <time>2019-09-12T10:22:15Z</time>
      </trkpt>
      <trkpt lat="45.29813" lon="6.6519">
        <ele>2455.82</ele>
        <time>2019-09-12T10:22:31Z</time>
      </trkpt>
      <trkpt lat="45.29817" lon="6.65177">
        <ele>2456.79</ele>
        <time>2019-09-12T10:22:45Z</time>
      </trkpt>
      <trkpt lat="45.2982" lon="6.65165">
        <ele>2458.71</ele>
        <time>2019-09-12T10:23:03Z</time>
      </trkpt>
      <trkpt lat="45.29823" lon="6.65153">
        <ele>2460.15</ele>
        <time>2019-09-12T10:23:19Z</time>
      </trkpt>
      <trkpt lat="45.29826" lon="6.65139">
        <ele>2462.07</ele>
        <time>2019-09-12T10:23:34Z</time>
      </trkpt>
      <trkpt lat="45.29828" lon="6.65127">
        <ele>2463.52</ele>
        <time>2019-09-12T10:23:50Z</time>
      </trkpt>
      <trkpt lat="45.29829" lon="6.65111">
        <ele>2464.96</ele>
        <time>2019-09-12T10:24:05Z</time>
      </trkpt>
      <trkpt lat="45.29831" lon="6.65098">
        <ele>2466.4</ele>
        <time>2019-09-12T10:24:21Z</time>
      </trkpt>
      <trkpt lat="45.29835" lon="6.65085">
        <ele>2467.36</ele>
        <time>2019-09-12T10:24:35Z</time>
      </trkpt>
      <trkpt lat="45.29838" lon="6.65071">
        <ele>2468.32</ele>
        <time>2019-09-12T10:24:49Z</time>
      </trkpt>
      <trkpt lat="45.29841" lon="6.65055">
        <ele>2469.76</ele>
        <time>2019-09-12T10:25:04Z</time>
      </trkpt>
      <trkpt lat="45.29842" lon="6.65043">
        <ele>2471.69</ele>
        <time>2019-09-12T10:25:19Z</time>
      </trkpt>
      <trkpt lat="45.29843" lon="6.65032">
        <ele>2474.09</ele>
        <time>2019-09-12T10:25:36Z</time>
      </trkpt>
      <trkpt lat="45.29845" lon="6.65026">
        <ele>2476.49</ele>
        <time>2019-09-12T10:25:50Z</time>
      </trkpt>
      <trkpt lat="45.29849" lon="6.65019">
        <ele>2477.94</ele>
        <time>2019-09-12T10:26:07Z</time>
      </trkpt>
      <trkpt lat="45.2985" lon="6.6501">
        <ele>2479.38</ele>
        <time>2019-09-12T10:26:21Z</time>
      </trkpt>
      <trkpt lat="45.29852" lon="6.64999">
        <ele>2480.34</ele>
        <time>2019-09-12T10:26:40Z</time>
      </trkpt>
      <trkpt lat="45.29849" lon="6.64983">
        <ele>2480.82</ele>
        <time>2019-09-12T10:26:56Z</time>
      </trkpt>
      <trkpt lat="45.29843" lon="6.64972">
        <ele>2481.78</ele>
        <time>2019-09-12T10:27:10Z</time>
      </trkpt>
      <trkpt lat="45.29829" lon="6.64963">
        <ele>2481.78</ele>
        <time>2019-09-12T10:27:26Z</time>
      </trkpt>
      <trkpt lat="45.29826" lon="6.64952">
        <ele>2484.18</ele>
        <time>2019-09-12T10:27:44Z</time>
      </trkpt>
      <trkpt lat="45.29821" lon="6.64942">
        <ele>2487.07</ele>
        <time>2019-09-12T10:28:03Z</time>
      </trkpt>
      <trkpt lat="45.29816" lon="6.64936">
        <ele>2488.99</ele>
        <time>2019-09-12T10:28:18Z</time>
      </trkpt>
      <trkpt lat="45.29812" lon="6.64925">
        <ele>2488.03</ele>
        <time>2019-09-12T10:28:31Z</time>
      </trkpt>
      <trkpt lat="45.29808" lon="6.64909">
        <ele>2487.55</ele>
        <time>2019-09-12T10:28:50Z</time>
      </trkpt>
      <trkpt lat="45.29806" lon="6.64904">
        <ele>2487.55</ele>
        <time>2019-09-12T10:29:05Z</time>
      </trkpt>
      <trkpt lat="45.29806" lon="6.64902">
        <ele>2488.99</ele>
        <time>2019-09-12T10:29:09Z</time>
      </trkpt>
      <trkpt lat="45.29806" lon="6.64897">
        <ele>2490.91</ele>
        <time>2019-09-12T10:29:23Z</time>
      </trkpt>
      <trkpt lat="45.29803" lon="6.64891">
        <ele>2492.84</ele>
        <time>2019-09-12T10:29:37Z</time>
      </trkpt>
      <trkpt lat="45.29801" lon="6.64884">
        <ele>2494.28</ele>
        <time>2019-09-12T10:29:55Z</time>
      </trkpt>
      <trkpt lat="45.29798" lon="6.64875">
        <ele>2496.2</ele>
        <time>2019-09-12T10:30:10Z</time>
      </trkpt>
      <trkpt lat="45.29795" lon="6.64868">
        <ele>2498.12</ele>
        <time>2019-09-12T10:30:24Z</time>
      </trkpt>
      <trkpt lat="45.29798" lon="6.64865">
        <ele>2499.57</ele>
        <time>2019-09-12T10:30:37Z</time>
      </trkpt>
      <trkpt lat="45.29807" lon="6.64871">
        <ele>2501.49</ele>
        <time>2019-09-12T10:30:56Z</time>
      </trkpt>
      <trkpt lat="45.29812" lon="6.64875">
        <ele>2504.37</ele>
        <time>2019-09-12T10:31:17Z</time>
      </trkpt>
      <trkpt lat="45.29811" lon="6.64868">
        <ele>2505.81</ele>
        <time>2019-09-12T10:31:35Z</time>
      </trkpt>
      <trkpt lat="45.2981" lon="6.64863">
        <ele>2508.22</ele>
        <time>2019-09-12T10:31:55Z</time>
      </trkpt>
      <trkpt lat="45.29808" lon="6.64851">
        <ele>2510.14</ele>
        <time>2019-09-12T10:32:12Z</time>
      </trkpt>
      <trkpt lat="45.29807" lon="6.64847">
        <ele>2512.06</ele>
        <time>2019-09-12T10:32:27Z</time>
      </trkpt>
      <trkpt lat="45.29809" lon="6.64838">
        <ele>2513.5</ele>
        <time>2019-09-12T10:32:44Z</time>
      </trkpt>
      <trkpt lat="45.29811" lon="6.64826">
        <ele>2514.47</ele>
        <time>2019-09-12T10:33:00Z</time>
      </trkpt>
      <trkpt lat="45.29814" lon="6.64815">
        <ele>2516.39</ele>
        <time>2019-09-12T10:33:16Z</time>
      </trkpt>
      <trkpt lat="45.29818" lon="6.64809">
        <ele>2517.35</ele>
        <time>2019-09-12T10:33:31Z</time>
      </trkpt>
      <trkpt lat="45.29824" lon="6.64796">
        <ele>2518.31</ele>
        <time>2019-09-12T10:33:46Z</time>
      </trkpt>
      <trkpt lat="45.29827" lon="6.64785">
        <ele>2519.75</ele>
        <time>2019-09-12T10:33:59Z</time>
      </trkpt>
      <trkpt lat="45.29832" lon="6.64772">
        <ele>2520.23</ele>
        <time>2019-09-12T10:34:15Z</time>
      </trkpt>
      <trkpt lat="45.29836" lon="6.64757">
        <ele>2521.19</ele>
        <time>2019-09-12T10:34:31Z</time>
      </trkpt>
      <trkpt lat="45.2984" lon="6.64744">
        <ele>2522.64</ele>
        <time>2019-09-12T10:34:50Z</time>
      </trkpt>
      <trkpt lat="45.29839" lon="6.64732">
        <ele>2523.12</ele>
        <time>2019-09-12T10:35:05Z</time>
      </trkpt>
      <trkpt lat="45.29844" lon="6.64723">
        <ele>2525.04</ele>
        <time>2019-09-12T10:35:20Z</time>
      </trkpt>
      <trkpt lat="45.29848" lon="6.64713">
        <ele>2526.96</ele>
        <time>2019-09-12T10:35:37Z</time>
      </trkpt>
      <trkpt lat="45.29847" lon="6.64701">
        <ele>2528.89</ele>
        <time>2019-09-12T10:35:53Z</time>
      </trkpt>
      <trkpt lat="45.29848" lon="6.64689">
        <ele>2530.81</ele>
        <time>2019-09-12T10:36:09Z</time>
      </trkpt>
      <trkpt lat="45.29851" lon="6.64676">
        <ele>2532.73</ele>
        <time>2019-09-12T10:36:26Z</time>
      </trkpt>
      <trkpt lat="45.29854" lon="6.64664">
        <ele>2534.17</ele>
        <time>2019-09-12T10:36:43Z</time>
      </trkpt>
      <trkpt lat="45.29854" lon="6.64654">
        <ele>2535.13</ele>
        <time>2019-09-12T10:36:57Z</time>
      </trkpt>
      <trkpt lat="45.29851" lon="6.64635">
        <ele>2536.1</ele>
        <time>2019-09-12T10:37:14Z</time>
      </trkpt>
      <trkpt lat="45.29853" lon="6.64624">
        <ele>2537.06</ele>
        <time>2019-09-12T10:37:26Z</time>
      </trkpt>
      <trkpt lat="45.29852" lon="6.64615">
        <ele>2538.5</ele>
        <time>2019-09-12T10:37:41Z</time>
      </trkpt>
      <trkpt lat="45.2985" lon="6.6461">
        <ele>2539.94</ele>
        <time>2019-09-12T10:37:56Z</time>
      </trkpt>
      <trkpt lat="45.29851" lon="6.64601">
        <ele>2541.86</ele>
        <time>2019-09-12T10:38:10Z</time>
      </trkpt>
      <trkpt lat="45.29849" lon="6.64594">
        <ele>2544.27</ele>
        <time>2019-09-12T10:38:29Z</time>
      </trkpt>
      <trkpt lat="45.29849" lon="6.64585">
        <ele>2545.71</ele>
        <time>2019-09-12T10:38:44Z</time>
      </trkpt>
      <trkpt lat="45.29852" lon="6.64574">
        <ele>2547.15</ele>
        <time>2019-09-12T10:38:59Z</time>
      </trkpt>
      <trkpt lat="45.29854" lon="6.64562">
        <ele>2549.07</ele>
        <time>2019-09-12T10:39:17Z</time>
      </trkpt>
      <trkpt lat="45.29859" lon="6.64553">
        <ele>2551</ele>
        <time>2019-09-12T10:39:38Z</time>
      </trkpt>
      <trkpt lat="45.29861" lon="6.64546">
        <ele>2552.92</ele>
        <time>2019-09-12T10:39:54Z</time>
      </trkpt>
      <trkpt lat="45.29863" lon="6.6454">
        <ele>2555.32</ele>
        <time>2019-09-12T10:40:12Z</time>
      </trkpt>
      <trkpt lat="45.29867" lon="6.64532">
        <ele>2556.76</ele>
        <time>2019-09-12T10:40:26Z</time>
      </trkpt>
      <trkpt lat="45.29873" lon="6.64523">
        <ele>2558.21</ele>
        <time>2019-09-12T10:40:43Z</time>
      </trkpt>
      <trkpt lat="45.29874" lon="6.64517">
        <ele>2559.17</ele>
        <time>2019-09-12T10:40:59Z</time>
      </trkpt>
      <trkpt lat="45.29878" lon="6.64511">
        <ele>2561.09</ele>
        <time>2019-09-12T10:41:14Z</time>
      </trkpt>
      <trkpt lat="45.29883" lon="6.64501">
        <ele>2562.53</ele>
        <time>2019-09-12T10:41:29Z</time>
      </trkpt>
      <trkpt lat="45.29886" lon="6.6449">
        <ele>2564.45</ele>
        <time>2019-09-12T10:41:46Z</time>
      </trkpt>
      <trkpt lat="45.29887" lon="6.64488">
        <ele>2564.45</ele>
        <time>2019-09-12T10:41:51Z</time>
      </trkpt>
      <trkpt lat="45.29894" lon="6.64481">
        <ele>2564.93</ele>
        <time>2019-09-12T10:42:05Z</time>
      </trkpt>
      <trkpt lat="45.299" lon="6.64478">
        <ele>2566.38</ele>
        <time>2019-09-12T10:42:23Z</time>
      </trkpt>
      <trkpt lat="45.29897" lon="6.64473">
        <ele>2568.3</ele>
        <time>2019-09-12T10:42:39Z</time>
      </trkpt>
      <trkpt lat="45.29894" lon="6.64462">
        <ele>2570.7</ele>
        <time>2019-09-12T10:42:59Z</time>
      </trkpt>
      <trkpt lat="45.29895" lon="6.64453">
        <ele>2572.63</ele>
        <time>2019-09-12T10:43:17Z</time>
      </trkpt>
      <trkpt lat="45.299" lon="6.64457">
        <ele>2574.55</ele>
        <time>2019-09-12T10:43:32Z</time>
      </trkpt>
      <trkpt lat="45.29904" lon="6.64461">
        <ele>2575.99</ele>
        <time>2019-09-12T10:43:46Z</time>
      </trkpt>
      <trkpt lat="45.2991" lon="6.64459">
        <ele>2577.43</ele>
        <time>2019-09-12T10:44:00Z</time>
      </trkpt>
      <trkpt lat="45.29909" lon="6.64454">
        <ele>2579.35</ele>
        <time>2019-09-12T10:44:15Z</time>
      </trkpt>
      <trkpt lat="45.29909" lon="6.64449">
        <ele>2580.8</ele>
        <time>2019-09-12T10:44:29Z</time>
      </trkpt>
      <trkpt lat="45.2991" lon="6.64438">
        <ele>2582.72</ele>
        <time>2019-09-12T10:44:47Z</time>
      </trkpt>
      <trkpt lat="45.2991" lon="6.64428">
        <ele>2584.16</ele>
        <time>2019-09-12T10:45:02Z</time>
      </trkpt>
      <trkpt lat="45.29911" lon="6.64419">
        <ele>2586.08</ele>
        <time>2019-09-12T10:45:18Z</time>
      </trkpt>
      <trkpt lat="45.29912" lon="6.64411">
        <ele>2587.53</ele>
        <time>2019-09-12T10:45:32Z</time>
      </trkpt>
      <trkpt lat="45.29913" lon="6.64407">
        <ele>2588.97</ele>
        <time>2019-09-12T10:45:48Z</time>
      </trkpt>
      <trkpt lat="45.29918" lon="6.64409">
        <ele>2590.89</ele>
        <time>2019-09-12T10:46:03Z</time>
      </trkpt>
      <trkpt lat="45.29917" lon="6.64404">
        <ele>2592.33</ele>
        <time>2019-09-12T10:46:16Z</time>
      </trkpt>
      <trkpt lat="45.29917" lon="6.64399">
        <ele>2593.77</ele>
        <time>2019-09-12T10:46:30Z</time>
      </trkpt>
      <trkpt lat="45.29915" lon="6.64397">
        <ele>2594.74</ele>
        <time>2019-09-12T10:46:56Z</time>
      </trkpt>
      <trkpt lat="45.29916" lon="6.64398">
        <ele>2594.74</ele>
        <time>2019-09-12T10:47:17Z</time>
      </trkpt>
      <trkpt lat="45.29916" lon="6.64395">
        <ele>2595.7</ele>
        <time>2019-09-12T10:47:37Z</time>
      </trkpt>
      <trkpt lat="45.29923" lon="6.64396">
        <ele>2597.14</ele>
        <time>2019-09-12T10:47:51Z</time>
      </trkpt>
      <trkpt lat="45.29925" lon="6.64394">
        <ele>2598.58</ele>
        <time>2019-09-12T10:48:05Z</time>
      </trkpt>
      <trkpt lat="45.29922" lon="6.64386">
        <ele>2600.98</ele>
        <time>2019-09-12T10:48:18Z</time>
      </trkpt>
      <trkpt lat="45.29919" lon="6.64375">
        <ele>2602.91</ele>
        <time>2019-09-12T10:48:38Z</time>
      </trkpt>
      <trkpt lat="45.29922" lon="6.64374">
        <ele>2603.87</ele>
        <time>2019-09-12T10:48:52Z</time>
      </trkpt>
      <trkpt lat="45.29927" lon="6.64373">
        <ele>2605.31</ele>
        <time>2019-09-12T10:49:10Z</time>
      </trkpt>
      <trkpt lat="45.29923" lon="6.64366">
        <ele>2607.71</ele>
        <time>2019-09-12T10:49:29Z</time>
      </trkpt>
      <trkpt lat="45.29926" lon="6.6436">
        <ele>2609.16</ele>
        <time>2019-09-12T10:49:44Z</time>
      </trkpt>
      <trkpt lat="45.29931" lon="6.64352">
        <ele>2611.08</ele>
        <time>2019-09-12T10:49:59Z</time>
      </trkpt>
      <trkpt lat="45.29934" lon="6.64347">
        <ele>2612.52</ele>
        <time>2019-09-12T10:50:11Z</time>
      </trkpt>
      <trkpt lat="45.29936" lon="6.64345">
        <ele>2613.96</ele>
        <time>2019-09-12T10:50:27Z</time>
      </trkpt>
      <trkpt lat="45.29939" lon="6.64337">
        <ele>2616.37</ele>
        <time>2019-09-12T10:50:46Z</time>
      </trkpt>
      <trkpt lat="45.29942" lon="6.64339">
        <ele>2618.29</ele>
        <time>2019-09-12T10:51:05Z</time>
      </trkpt>
      <trkpt lat="45.29946" lon="6.64342">
        <ele>2620.21</ele>
        <time>2019-09-12T10:51:19Z</time>
      </trkpt>
      <trkpt lat="45.2995" lon="6.64343">
        <ele>2621.65</ele>
        <time>2019-09-12T10:51:33Z</time>
      </trkpt>
      <trkpt lat="45.29957" lon="6.64347">
        <ele>2622.61</ele>
        <time>2019-09-12T10:51:49Z</time>
      </trkpt>
      <trkpt lat="45.2996" lon="6.64344">
        <ele>2625.02</ele>
        <time>2019-09-12T10:52:09Z</time>
      </trkpt>
      <trkpt lat="45.2996" lon="6.64338">
        <ele>2626.94</ele>
        <time>2019-09-12T10:52:23Z</time>
      </trkpt>
      <trkpt lat="45.2996" lon="6.64334">
        <ele>2628.38</ele>
        <time>2019-09-12T10:52:40Z</time>
      </trkpt>
      <trkpt lat="45.2996" lon="6.6433">
        <ele>2629.82</ele>
        <time>2019-09-12T10:52:54Z</time>
      </trkpt>
      <trkpt lat="45.29959" lon="6.64327">
        <ele>2631.27</ele>
        <time>2019-09-12T10:53:08Z</time>
      </trkpt>
      <trkpt lat="45.29959" lon="6.64324">
        <ele>2632.23</ele>
        <time>2019-09-12T10:53:24Z</time>
      </trkpt>
      <trkpt lat="45.29956" lon="6.64317">
        <ele>2633.19</ele>
        <time>2019-09-12T10:53:38Z</time>
      </trkpt>
      <trkpt lat="45.29955" lon="6.64307">
        <ele>2634.15</ele>
        <time>2019-09-12T10:53:54Z</time>
      </trkpt>
      <trkpt lat="45.29949" lon="6.64299">
        <ele>2634.63</ele>
        <time>2019-09-12T10:54:10Z</time>
      </trkpt>
      <trkpt lat="45.29946" lon="6.64291">
        <ele>2636.07</ele>
        <time>2019-09-12T10:54:26Z</time>
      </trkpt>
      <trkpt lat="45.29947" lon="6.64287">
        <ele>2637.51</ele>
        <time>2019-09-12T10:54:39Z</time>
      </trkpt>
      <trkpt lat="45.29947" lon="6.64281">
        <ele>2638.96</ele>
        <time>2019-09-12T10:54:55Z</time>
      </trkpt>
      <trkpt lat="45.29948" lon="6.64274">
        <ele>2640.4</ele>
        <time>2019-09-12T10:55:09Z</time>
      </trkpt>
      <trkpt lat="45.29949" lon="6.64266">
        <ele>2642.32</ele>
        <time>2019-09-12T10:55:25Z</time>
      </trkpt>
      <trkpt lat="45.29953" lon="6.64262">
        <ele>2644.24</ele>
        <time>2019-09-12T10:55:41Z</time>
      </trkpt>
      <trkpt lat="45.29954" lon="6.64252">
        <ele>2646.17</ele>
        <time>2019-09-12T10:56:00Z</time>
      </trkpt>
      <trkpt lat="45.29954" lon="6.64249">
        <ele>2648.57</ele>
        <time>2019-09-12T10:56:15Z</time>
      </trkpt>
      <trkpt lat="45.29959" lon="6.64254">
        <ele>2650.01</ele>
        <time>2019-09-12T10:56:31Z</time>
      </trkpt>
      <trkpt lat="45.29962" lon="6.64247">
        <ele>2651.45</ele>
        <time>2019-09-12T10:56:46Z</time>
      </trkpt>
      <trkpt lat="45.29963" lon="6.64237">
        <ele>2654.34</ele>
        <time>2019-09-12T10:57:04Z</time>
      </trkpt>
      <trkpt lat="45.29964" lon="6.64226">
        <ele>2655.78</ele>
        <time>2019-09-12T10:57:21Z</time>
      </trkpt>
      <trkpt lat="45.29962" lon="6.64221">
        <ele>2658.18</ele>
        <time>2019-09-12T10:57:37Z</time>
      </trkpt>
      <trkpt lat="45.29963" lon="6.64212">
        <ele>2660.59</ele>
        <time>2019-09-12T10:57:56Z</time>
      </trkpt>
      <trkpt lat="45.29964" lon="6.64207">
        <ele>2662.03</ele>
        <time>2019-09-12T10:58:09Z</time>
      </trkpt>
      <trkpt lat="45.29966" lon="6.64203">
        <ele>2663.95</ele>
        <time>2019-09-12T10:58:25Z</time>
      </trkpt>
      <trkpt lat="45.29966" lon="6.64199">
        <ele>2665.39</ele>
        <time>2019-09-12T10:58:41Z</time>
      </trkpt>
      <trkpt lat="45.29966" lon="6.642">
        <ele>2666.35</ele>
        <time>2019-09-12T10:58:58Z</time>
      </trkpt>
      <trkpt lat="45.29967" lon="6.642">
        <ele>2666.83</ele>
        <time>2019-09-12T10:59:19Z</time>
      </trkpt>
      <trkpt lat="45.29966" lon="6.64201">
        <ele>2666.83</ele>
        <time>2019-09-12T10:59:43Z</time>
      </trkpt>
      <trkpt lat="45.29963" lon="6.64199">
        <ele>2667.31</ele>
        <time>2019-09-12T11:00:06Z</time>
      </trkpt>
      <trkpt lat="45.29965" lon="6.64196">
        <ele>2667.31</ele>
        <time>2019-09-12T11:00:32Z</time>
      </trkpt>
      <trkpt lat="45.29965" lon="6.64195">
        <ele>2667.8</ele>
        <time>2019-09-12T11:00:59Z</time>
      </trkpt>
      <trkpt lat="45.29962" lon="6.64197">
        <ele>2667.8</ele>
        <time>2019-09-12T11:01:20Z</time>
      </trkpt>
      <trkpt lat="45.29964" lon="6.64195">
        <ele>2668.76</ele>
        <time>2019-09-12T11:01:43Z</time>
      </trkpt>
      <trkpt lat="45.29965" lon="6.64196">
        <ele>2668.76</ele>
        <time>2019-09-12T11:02:01Z</time>
      </trkpt>
      <trkpt lat="45.29962" lon="6.64202">
        <ele>2603.39</ele>
        <time>2019-09-12T11:03:11Z</time>
      </trkpt>
      <trkpt lat="45.29962" lon="6.64201">
        <ele>2603.39</ele>
        <time>2019-09-12T11:03:12Z</time>
      </trkpt>
      <trkpt lat="45.2996" lon="6.64185">
        <ele>2603.39</ele>
        <time>2019-09-12T11:03:29Z</time>
      </trkpt>
      <trkpt lat="45.29965" lon="6.64189">
        <ele>2603.39</ele>
        <time>2019-09-12T11:03:47Z</time>
      </trkpt>
      <trkpt lat="45.29964" lon="6.64191">
        <ele>2602.91</ele>
        <time>2019-09-12T11:04:02Z</time>
      </trkpt>
      <trkpt lat="45.29965" lon="6.6419">
        <ele>2606.27</ele>
        <time>2019-09-12T11:04:05Z</time>
      </trkpt>
      <trkpt lat="45.29965" lon="6.64189">
        <ele>2609.64</ele>
        <time>2019-09-12T11:04:07Z</time>
      </trkpt>
      <trkpt lat="45.29966" lon="6.6419">
        <ele>2612.52</ele>
        <time>2019-09-12T11:04:09Z</time>
      </trkpt>
      <trkpt lat="45.29966" lon="6.64191">
        <ele>2615.88</ele>
        <time>2019-09-12T11:04:11Z</time>
      </trkpt>
      <trkpt lat="45.29966" lon="6.64192">
        <ele>2618.77</ele>
        <time>2019-09-12T11:04:13Z</time>
      </trkpt>
      <trkpt lat="45.29966" lon="6.64192">
        <ele>2623.09</ele>
        <time>2019-09-12T11:04:16Z</time>
      </trkpt>
      <trkpt lat="45.29966" lon="6.64193">
        <ele>2626.94</ele>
        <time>2019-09-12T11:04:19Z</time>
      </trkpt>
      <trkpt lat="45.29966" lon="6.64195">
        <ele>2631.27</ele>
        <time>2019-09-12T11:04:22Z</time>
      </trkpt>
      <trkpt lat="45.29966" lon="6.64196">
        <ele>2635.59</ele>
        <time>2019-09-12T11:04:25Z</time>
      </trkpt>
      <trkpt lat="45.29965" lon="6.64196">
        <ele>2639.44</ele>
        <time>2019-09-12T11:04:28Z</time>
      </trkpt>
      <trkpt lat="45.29966" lon="6.64197">
        <ele>2642.8</ele>
        <time>2019-09-12T11:04:31Z</time>
      </trkpt>
      <trkpt lat="45.29966" lon="6.64197">
        <ele>2646.17</ele>
        <time>2019-09-12T11:04:34Z</time>
      </trkpt>
      <trkpt lat="45.29966" lon="6.64198">
        <ele>2650.49</ele>
        <time>2019-09-12T11:04:37Z</time>
      </trkpt>
      <trkpt lat="45.29965" lon="6.64198">
        <ele>2651.45</ele>
        <time>2019-09-12T11:04:39Z</time>
      </trkpt>
      <trkpt lat="45.29965" lon="6.64199">
        <ele>2654.82</ele>
        <time>2019-09-12T11:04:43Z</time>
      </trkpt>
      <trkpt lat="45.29965" lon="6.64199">
        <ele>2658.18</ele>
        <time>2019-09-12T11:04:47Z</time>
      </trkpt>
      <trkpt lat="45.29966" lon="6.64198">
        <ele>2661.55</ele>
        <time>2019-09-12T11:04:52Z</time>
      </trkpt>
      <trkpt lat="45.29968" lon="6.64196">
        <ele>2665.39</ele>
        <time>2019-09-12T11:04:57Z</time>
      </trkpt>
      <trkpt lat="45.29968" lon="6.64194">
        <ele>2668.76</ele>
        <time>2019-09-12T11:05:02Z</time>
      </trkpt>
      <trkpt lat="45.29968" lon="6.64191">
        <ele>2672.12</ele>
        <time>2019-09-12T11:05:10Z</time>
      </trkpt>
      <trkpt lat="45.29968" lon="6.64188">
        <ele>2674.52</ele>
        <time>2019-09-12T11:05:15Z</time>
      </trkpt>
      <trkpt lat="45.29969" lon="6.64186">
        <ele>2677.89</ele>
        <time>2019-09-12T11:05:24Z</time>
      </trkpt>
      <trkpt lat="45.29971" lon="6.6418">
        <ele>2680.77</ele>
        <time>2019-09-12T11:05:35Z</time>
      </trkpt>
      <trkpt lat="45.29972" lon="6.64179">
        <ele>2683.66</ele>
        <time>2019-09-12T11:05:51Z</time>
      </trkpt>
      <trkpt lat="45.29975" lon="6.64183">
        <ele>2686.06</ele>
        <time>2019-09-12T11:06:06Z</time>
      </trkpt>
      <trkpt lat="45.29979" lon="6.64175">
        <ele>2687.98</ele>
        <time>2019-09-12T11:06:23Z</time>
      </trkpt>
      <trkpt lat="45.29981" lon="6.64169">
        <ele>2689.91</ele>
        <time>2019-09-12T11:06:41Z</time>
      </trkpt>
      <trkpt lat="45.29981" lon="6.64162">
        <ele>2691.35</ele>
        <time>2019-09-12T11:06:55Z</time>
      </trkpt>
      <trkpt lat="45.29983" lon="6.64155">
        <ele>2694.23</ele>
        <time>2019-09-12T11:07:16Z</time>
      </trkpt>
      <trkpt lat="45.29984" lon="6.6415">
        <ele>2696.15</ele>
        <time>2019-09-12T11:07:33Z</time>
      </trkpt>
      <trkpt lat="45.29979" lon="6.64143">
        <ele>2697.12</ele>
        <time>2019-09-12T11:07:48Z</time>
      </trkpt>
      <trkpt lat="45.29978" lon="6.64133">
        <ele>2698.56</ele>
        <time>2019-09-12T11:08:04Z</time>
      </trkpt>
      <trkpt lat="45.29976" lon="6.64126">
        <ele>2699.52</ele>
        <time>2019-09-12T11:08:19Z</time>
      </trkpt>
      <trkpt lat="45.29978" lon="6.64124">
        <ele>2701.44</ele>
        <time>2019-09-12T11:08:35Z</time>
      </trkpt>
      <trkpt lat="45.2998" lon="6.6412">
        <ele>2702.88</ele>
        <time>2019-09-12T11:08:52Z</time>
      </trkpt>
      <trkpt lat="45.29982" lon="6.64117">
        <ele>2704.33</ele>
        <time>2019-09-12T11:09:12Z</time>
      </trkpt>
      <trkpt lat="45.29984" lon="6.6411">
        <ele>2705.77</ele>
        <time>2019-09-12T11:09:27Z</time>
      </trkpt>
      <trkpt lat="45.29983" lon="6.64103">
        <ele>2707.69</ele>
        <time>2019-09-12T11:09:40Z</time>
      </trkpt>
      <trkpt lat="45.29984" lon="6.64098">
        <ele>2709.13</ele>
        <time>2019-09-12T11:09:56Z</time>
      </trkpt>
      <trkpt lat="45.29988" lon="6.64099">
        <ele>2710.57</ele>
        <time>2019-09-12T11:10:11Z</time>
      </trkpt>
      <trkpt lat="45.29989" lon="6.64093">
        <ele>2712.02</ele>
        <time>2019-09-12T11:10:24Z</time>
      </trkpt>
      <trkpt lat="45.29987" lon="6.64086">
        <ele>2714.42</ele>
        <time>2019-09-12T11:10:40Z</time>
      </trkpt>
      <trkpt lat="45.29982" lon="6.64079">
        <ele>2715.86</ele>
        <time>2019-09-12T11:10:56Z</time>
      </trkpt>
      <trkpt lat="45.29977" lon="6.64074">
        <ele>2717.78</ele>
        <time>2019-09-12T11:11:12Z</time>
      </trkpt>
      <trkpt lat="45.29972" lon="6.64068">
        <ele>2719.71</ele>
        <time>2019-09-12T11:11:32Z</time>
      </trkpt>
      <trkpt lat="45.29975" lon="6.64063">
        <ele>2721.15</ele>
        <time>2019-09-12T11:11:50Z</time>
      </trkpt>
      <trkpt lat="45.29971" lon="6.6406">
        <ele>2723.07</ele>
        <time>2019-09-12T11:12:04Z</time>
      </trkpt>
      <trkpt lat="45.29973" lon="6.64056">
        <ele>2725.48</ele>
        <time>2019-09-12T11:12:20Z</time>
      </trkpt>
      <trkpt lat="45.29974" lon="6.64051">
        <ele>2726.92</ele>
        <time>2019-09-12T11:12:35Z</time>
      </trkpt>
      <trkpt lat="45.2997" lon="6.64049">
        <ele>2728.84</ele>
        <time>2019-09-12T11:12:53Z</time>
      </trkpt>
      <trkpt lat="45.29967" lon="6.64047">
        <ele>2730.28</ele>
        <time>2019-09-12T11:13:09Z</time>
      </trkpt>
      <trkpt lat="45.29968" lon="6.64042">
        <ele>2732.2</ele>
        <time>2019-09-12T11:13:26Z</time>
      </trkpt>
      <trkpt lat="45.29966" lon="6.64038">
        <ele>2734.13</ele>
        <time>2019-09-12T11:13:41Z</time>
      </trkpt>
      <trkpt lat="45.29967" lon="6.64034">
        <ele>2735.57</ele>
        <time>2019-09-12T11:13:57Z</time>
      </trkpt>
      <trkpt lat="45.2997" lon="6.64027">
        <ele>2737.49</ele>
        <time>2019-09-12T11:14:14Z</time>
      </trkpt>
      <trkpt lat="45.29972" lon="6.64019">
        <ele>2739.41</ele>
        <time>2019-09-12T11:14:28Z</time>
      </trkpt>
      <trkpt lat="45.29973" lon="6.64008">
        <ele>2739.41</ele>
        <time>2019-09-12T11:14:41Z</time>
      </trkpt>
      <trkpt lat="45.29977" lon="6.63994">
        <ele>2740.38</ele>
        <time>2019-09-12T11:14:58Z</time>
      </trkpt>
      <trkpt lat="45.29982" lon="6.63982">
        <ele>2741.34</ele>
        <time>2019-09-12T11:15:15Z</time>
      </trkpt>
      <trkpt lat="45.29986" lon="6.63968">
        <ele>2741.34</ele>
        <time>2019-09-12T11:15:32Z</time>
      </trkpt>
      <trkpt lat="45.29988" lon="6.63965">
        <ele>2741.82</ele>
        <time>2019-09-12T11:15:48Z</time>
      </trkpt>
      <trkpt lat="45.29988" lon="6.63964">
        <ele>2741.82</ele>
        <time>2019-09-12T11:16:09Z</time>
      </trkpt>
      <trkpt lat="45.2999" lon="6.63959">
        <ele>2741.82</ele>
        <time>2019-09-12T11:16:34Z</time>
      </trkpt>
      <trkpt lat="45.29994" lon="6.63946">
        <ele>2742.78</ele>
        <time>2019-09-12T11:16:48Z</time>
      </trkpt>
      <trkpt lat="45.29998" lon="6.63936">
        <ele>2744.7</ele>
        <time>2019-09-12T11:17:04Z</time>
      </trkpt>
      <trkpt lat="45.30001" lon="6.63927">
        <ele>2746.62</ele>
        <time>2019-09-12T11:17:18Z</time>
      </trkpt>
      <trkpt lat="45.3" lon="6.63913">
        <ele>2747.1</ele>
        <time>2019-09-12T11:17:34Z</time>
      </trkpt>
      <trkpt lat="45.30003" lon="6.63899">
        <ele>2748.07</ele>
        <time>2019-09-12T11:17:50Z</time>
      </trkpt>
      <trkpt lat="45.30004" lon="6.63885">
        <ele>2749.51</ele>
        <time>2019-09-12T11:18:06Z</time>
      </trkpt>
      <trkpt lat="45.30002" lon="6.63865">
        <ele>2747.59</ele>
        <time>2019-09-12T11:18:24Z</time>
      </trkpt>
      <trkpt lat="45.30003" lon="6.63861">
        <ele>2749.03</ele>
        <time>2019-09-12T11:18:28Z</time>
      </trkpt>
      <trkpt lat="45.30006" lon="6.6385">
        <ele>2749.99</ele>
        <time>2019-09-12T11:18:41Z</time>
      </trkpt>
      <trkpt lat="45.30003" lon="6.63838">
        <ele>2750.47</ele>
        <time>2019-09-12T11:18:57Z</time>
      </trkpt>
      <trkpt lat="45.30001" lon="6.63826">
        <ele>2750.47</ele>
        <time>2019-09-12T11:19:12Z</time>
      </trkpt>
      <trkpt lat="45.30001" lon="6.63816">
        <ele>2750.47</ele>
        <time>2019-09-12T11:19:27Z</time>
      </trkpt>
      <trkpt lat="45.29999" lon="6.63802">
        <ele>2748.55</ele>
        <time>2019-09-12T11:19:44Z</time>
      </trkpt>
      <trkpt lat="45.3" lon="6.63792">
        <ele>2748.07</ele>
        <time>2019-09-12T11:19:57Z</time>
      </trkpt>
      <trkpt lat="45.29998" lon="6.63781">
        <ele>2749.03</ele>
        <time>2019-09-12T11:20:12Z</time>
      </trkpt>
      <trkpt lat="45.3" lon="6.63771">
        <ele>2749.99</ele>
        <time>2019-09-12T11:20:24Z</time>
      </trkpt>
      <trkpt lat="45.30004" lon="6.63765">
        <ele>2751.91</ele>
        <time>2019-09-12T11:20:40Z</time>
      </trkpt>
      <trkpt lat="45.30006" lon="6.6376">
        <ele>2752.87</ele>
        <time>2019-09-12T11:20:53Z</time>
      </trkpt>
      <trkpt lat="45.30011" lon="6.6376">
        <ele>2754.8</ele>
        <time>2019-09-12T11:21:08Z</time>
      </trkpt>
      <trkpt lat="45.30015" lon="6.6376">
        <ele>2756.24</ele>
        <time>2019-09-12T11:21:23Z</time>
      </trkpt>
      <trkpt lat="45.30018" lon="6.63758">
        <ele>2757.68</ele>
        <time>2019-09-12T11:21:39Z</time>
      </trkpt>
      <trkpt lat="45.30022" lon="6.63762">
        <ele>2758.16</ele>
        <time>2019-09-12T11:21:55Z</time>
      </trkpt>
      <trkpt lat="45.30025" lon="6.63757">
        <ele>2760.08</ele>
        <time>2019-09-12T11:22:17Z</time>
      </trkpt>
      <trkpt lat="45.30027" lon="6.63756">
        <ele>2761.52</ele>
        <time>2019-09-12T11:22:33Z</time>
      </trkpt>
      <trkpt lat="45.3003" lon="6.63752">
        <ele>2762.97</ele>
        <time>2019-09-12T11:22:50Z</time>
      </trkpt>
      <trkpt lat="45.30037" lon="6.63749">
        <ele>2765.85</ele>
        <time>2019-09-12T11:23:08Z</time>
      </trkpt>
      <trkpt lat="45.30044" lon="6.63746">
        <ele>2766.33</ele>
        <time>2019-09-12T11:23:21Z</time>
      </trkpt>
      <trkpt lat="45.3005" lon="6.63741">
        <ele>2767.77</ele>
        <time>2019-09-12T11:23:35Z</time>
      </trkpt>
      <trkpt lat="45.30055" lon="6.63734">
        <ele>2769.21</ele>
        <time>2019-09-12T11:23:50Z</time>
      </trkpt>
      <trkpt lat="45.30063" lon="6.6373">
        <ele>2771.14</ele>
        <time>2019-09-12T11:24:09Z</time>
      </trkpt>
      <trkpt lat="45.30064" lon="6.6372">
        <ele>2773.54</ele>
        <time>2019-09-12T11:24:26Z</time>
      </trkpt>
      <trkpt lat="45.30065" lon="6.63711">
        <ele>2774.98</ele>
        <time>2019-09-12T11:24:43Z</time>
      </trkpt>
      <trkpt lat="45.30067" lon="6.63701">
        <ele>2777.39</ele>
        <time>2019-09-12T11:25:01Z</time>
      </trkpt>
      <trkpt lat="45.30069" lon="6.63686">
        <ele>2779.31</ele>
        <time>2019-09-12T11:25:23Z</time>
      </trkpt>
      <trkpt lat="45.30065" lon="6.6368">
        <ele>2780.75</ele>
        <time>2019-09-12T11:25:35Z</time>
      </trkpt>
      <trkpt lat="45.30069" lon="6.63673">
        <ele>2781.71</ele>
        <time>2019-09-12T11:25:49Z</time>
      </trkpt>
      <trkpt lat="45.30072" lon="6.63663">
        <ele>2783.63</ele>
        <time>2019-09-12T11:26:07Z</time>
      </trkpt>
      <trkpt lat="45.30075" lon="6.63656">
        <ele>2785.56</ele>
        <time>2019-09-12T11:26:22Z</time>
      </trkpt>
      <trkpt lat="45.30077" lon="6.63648">
        <ele>2787</ele>
        <time>2019-09-12T11:26:38Z</time>
      </trkpt>
      <trkpt lat="45.30079" lon="6.63643">
        <ele>2788.44</ele>
        <time>2019-09-12T11:26:54Z</time>
      </trkpt>
      <trkpt lat="45.30086" lon="6.6364">
        <ele>2789.88</ele>
        <time>2019-09-12T11:27:07Z</time>
      </trkpt>
      <trkpt lat="45.3009" lon="6.63635">
        <ele>2791.81</ele>
        <time>2019-09-12T11:27:24Z</time>
      </trkpt>
      <trkpt lat="45.30098" lon="6.63628">
        <ele>2794.69</ele>
        <time>2019-09-12T11:27:43Z</time>
      </trkpt>
      <trkpt lat="45.301" lon="6.63619">
        <ele>2796.13</ele>
        <time>2019-09-12T11:27:59Z</time>
      </trkpt>
      <trkpt lat="45.30104" lon="6.63618">
        <ele>2798.05</ele>
        <time>2019-09-12T11:28:16Z</time>
      </trkpt>
      <trkpt lat="45.30109" lon="6.63613">
        <ele>2799.98</ele>
        <time>2019-09-12T11:28:34Z</time>
      </trkpt>
      <trkpt lat="45.30113" lon="6.63602">
        <ele>2801.42</ele>
        <time>2019-09-12T11:28:52Z</time>
      </trkpt>
      <trkpt lat="45.30113" lon="6.63594">
        <ele>2803.82</ele>
        <time>2019-09-12T11:29:09Z</time>
      </trkpt>
      <trkpt lat="45.30118" lon="6.63587">
        <ele>2806.23</ele>
        <time>2019-09-12T11:29:27Z</time>
      </trkpt>
      <trkpt lat="45.30127" lon="6.6358">
        <ele>2807.19</ele>
        <time>2019-09-12T11:29:44Z</time>
      </trkpt>
      <trkpt lat="45.30129" lon="6.63565">
        <ele>2808.63</ele>
        <time>2019-09-12T11:30:00Z</time>
      </trkpt>
      <trkpt lat="45.30127" lon="6.63552">
        <ele>2809.59</ele>
        <time>2019-09-12T11:30:17Z</time>
      </trkpt>
      <trkpt lat="45.30128" lon="6.6354">
        <ele>2811.51</ele>
        <time>2019-09-12T11:30:32Z</time>
      </trkpt>
      <trkpt lat="45.3013" lon="6.63533">
        <ele>2812.96</ele>
        <time>2019-09-12T11:30:49Z</time>
      </trkpt>
      <trkpt lat="45.3013" lon="6.63533">
        <ele>2813.44</ele>
        <time>2019-09-12T11:31:12Z</time>
      </trkpt>
      <trkpt lat="45.3013" lon="6.63533">
        <ele>2812.96</ele>
        <time>2019-09-12T11:31:27Z</time>
      </trkpt>
      <trkpt lat="45.3013" lon="6.63534">
        <ele>2814.88</ele>
        <time>2019-09-12T11:31:30Z</time>
      </trkpt>
      <trkpt lat="45.30129" lon="6.63534">
        <ele>2813.44</ele>
        <time>2019-09-12T11:31:33Z</time>
      </trkpt>
      <trkpt lat="45.3013" lon="6.63532">
        <ele>2812.96</ele>
        <time>2019-09-12T11:31:47Z</time>
      </trkpt>
      <trkpt lat="45.30127" lon="6.63531">
        <ele>2812.47</ele>
        <time>2019-09-12T11:32:00Z</time>
      </trkpt>
      <trkpt lat="45.30132" lon="6.6353">
        <ele>2813.44</ele>
        <time>2019-09-12T11:32:15Z</time>
      </trkpt>
      <trkpt lat="45.30129" lon="6.63533">
        <ele>2813.92</ele>
        <time>2019-09-12T11:32:35Z</time>
      </trkpt>
      <trkpt lat="45.30126" lon="6.63535">
        <ele>2813.92</ele>
        <time>2019-09-12T11:32:56Z</time>
      </trkpt>
      <trkpt lat="45.30133" lon="6.63532">
        <ele>2813.92</ele>
        <time>2019-09-12T11:33:19Z</time>
      </trkpt>
      <trkpt lat="45.30138" lon="6.63528">
        <ele>2812.47</ele>
        <time>2019-09-12T11:33:45Z</time>
      </trkpt>
      <trkpt lat="45.30132" lon="6.63531">
        <ele>2812.47</ele>
        <time>2019-09-12T11:34:04Z</time>
      </trkpt>
      <trkpt lat="45.3013" lon="6.63534">
        <ele>2812.47</ele>
        <time>2019-09-12T11:34:22Z</time>
      </trkpt>
      <trkpt lat="45.3013" lon="6.63534">
        <ele>2813.92</ele>
        <time>2019-09-12T11:34:38Z</time>
      </trkpt>
      <trkpt lat="45.30129" lon="6.63534">
        <ele>2813.92</ele>
        <time>2019-09-12T11:34:39Z</time>
      </trkpt>
      <trkpt lat="45.30129" lon="6.63534">
        <ele>2813.92</ele>
        <time>2019-09-12T11:35:04Z</time>
      </trkpt>
      <trkpt lat="45.30124" lon="6.63538">
        <ele>2813.92</ele>
        <time>2019-09-12T11:35:26Z</time>
      </trkpt>
      <trkpt lat="45.30124" lon="6.6354">
        <ele>2813.92</ele>
        <time>2019-09-12T11:35:38Z</time>
      </trkpt>
      <trkpt lat="45.30125" lon="6.63541">
        <ele>2813.92</ele>
        <time>2019-09-12T11:35:52Z</time>
      </trkpt>
      <trkpt lat="45.30126" lon="6.63538">
        <ele>2813.44</ele>
        <time>2019-09-12T11:36:15Z</time>
      </trkpt>
      <trkpt lat="45.30125" lon="6.63538">
        <ele>2813.44</ele>
        <time>2019-09-12T11:36:26Z</time>
      </trkpt>
      <trkpt lat="45.30127" lon="6.6354">
        <ele>2812.96</ele>
        <time>2019-09-12T11:36:48Z</time>
      </trkpt>
      <trkpt lat="45.30125" lon="6.63542">
        <ele>2814.4</ele>
        <time>2019-09-12T11:37:14Z</time>
      </trkpt>
      <trkpt lat="45.30127" lon="6.63538">
        <ele>2813.92</ele>
        <time>2019-09-12T11:37:29Z</time>
      </trkpt>
      <trkpt lat="45.30129" lon="6.6354">
        <ele>2813.92</ele>
        <time>2019-09-12T11:37:49Z</time>
      </trkpt>
      <trkpt lat="45.30131" lon="6.63539">
        <ele>2812.96</ele>
        <time>2019-09-12T11:38:10Z</time>
      </trkpt>
      <trkpt lat="45.3013" lon="6.63557">
        <ele>2810.55</ele>
        <time>2019-09-12T11:38:25Z</time>
      </trkpt>
      <trkpt lat="45.30128" lon="6.63574">
        <ele>2808.63</ele>
        <time>2019-09-12T11:38:44Z</time>
      </trkpt>
      <trkpt lat="45.30116" lon="6.63587">
        <ele>2805.75</ele>
        <time>2019-09-12T11:39:01Z</time>
      </trkpt>
      <trkpt lat="45.30112" lon="6.63602">
        <ele>2803.34</ele>
        <time>2019-09-12T11:39:17Z</time>
      </trkpt>
      <trkpt lat="45.30105" lon="6.63613">
        <ele>2799.98</ele>
        <time>2019-09-12T11:39:34Z</time>
      </trkpt>
      <trkpt lat="45.30097" lon="6.63622">
        <ele>2797.09</ele>
        <time>2019-09-12T11:39:49Z</time>
      </trkpt>
      <trkpt lat="45.30091" lon="6.63629">
        <ele>2794.21</ele>
        <time>2019-09-12T11:40:03Z</time>
      </trkpt>
      <trkpt lat="45.30083" lon="6.6364">
        <ele>2791.81</ele>
        <time>2019-09-12T11:40:17Z</time>
      </trkpt>
      <trkpt lat="45.30079" lon="6.63649">
        <ele>2788.92</ele>
        <time>2019-09-12T11:40:32Z</time>
      </trkpt>
      <trkpt lat="45.30073" lon="6.63658">
        <ele>2786.04</ele>
        <time>2019-09-12T11:40:47Z</time>
      </trkpt>
      <trkpt lat="45.30068" lon="6.63666">
        <ele>2784.12</ele>
        <time>2019-09-12T11:41:01Z</time>
      </trkpt>
      <trkpt lat="45.30066" lon="6.63678">
        <ele>2782.19</ele>
        <time>2019-09-12T11:41:13Z</time>
      </trkpt>
      <trkpt lat="45.30069" lon="6.63692">
        <ele>2779.31</ele>
        <time>2019-09-12T11:41:26Z</time>
      </trkpt>
      <trkpt lat="45.30065" lon="6.63707">
        <ele>2775.94</ele>
        <time>2019-09-12T11:41:41Z</time>
      </trkpt>
      <trkpt lat="45.30062" lon="6.63721">
        <ele>2773.54</ele>
        <time>2019-09-12T11:41:55Z</time>
      </trkpt>
      <trkpt lat="45.30055" lon="6.63729">
        <ele>2770.18</ele>
        <time>2019-09-12T11:42:04Z</time>
      </trkpt>
      <trkpt lat="45.30049" lon="6.63736">
        <ele>2768.73</ele>
        <time>2019-09-12T11:42:12Z</time>
      </trkpt>
      <trkpt lat="45.30043" lon="6.63743">
        <ele>2767.77</ele>
        <time>2019-09-12T11:42:20Z</time>
      </trkpt>
      <trkpt lat="45.30038" lon="6.63756">
        <ele>2765.37</ele>
        <time>2019-09-12T11:42:34Z</time>
      </trkpt>
      <trkpt lat="45.30032" lon="6.63768">
        <ele>2765.37</ele>
        <time>2019-09-12T11:42:44Z</time>
      </trkpt>
      <trkpt lat="45.30027" lon="6.63785">
        <ele>2762.97</ele>
        <time>2019-09-12T11:42:58Z</time>
      </trkpt>
      <trkpt lat="45.30026" lon="6.63788">
        <ele>2762.49</ele>
        <time>2019-09-12T11:43:01Z</time>
      </trkpt>
      <trkpt lat="45.30015" lon="6.63798">
        <ele>2759.6</ele>
        <time>2019-09-12T11:43:16Z</time>
      </trkpt>
      <trkpt lat="45.30011" lon="6.63812">
        <ele>2757.68</ele>
        <time>2019-09-12T11:43:31Z</time>
      </trkpt>
      <trkpt lat="45.30006" lon="6.63827">
        <ele>2754.8</ele>
        <time>2019-09-12T11:43:45Z</time>
      </trkpt>
      <trkpt lat="45.30002" lon="6.63836">
        <ele>2751.91</ele>
        <time>2019-09-12T11:43:58Z</time>
      </trkpt>
      <trkpt lat="45.29997" lon="6.6384">
        <ele>2749.51</ele>
        <time>2019-09-12T11:44:08Z</time>
      </trkpt>
      <trkpt lat="45.29998" lon="6.63853">
        <ele>2749.03</ele>
        <time>2019-09-12T11:44:20Z</time>
      </trkpt>
      <trkpt lat="45.29999" lon="6.63857">
        <ele>2749.03</ele>
        <time>2019-09-12T11:44:28Z</time>
      </trkpt>
      <trkpt lat="45.30001" lon="6.63887">
        <ele>2747.59</ele>
        <time>2019-09-12T11:44:47Z</time>
      </trkpt>
      <trkpt lat="45.30002" lon="6.63888">
        <ele>2748.55</ele>
        <time>2019-09-12T11:44:48Z</time>
      </trkpt>
      <trkpt lat="45.29999" lon="6.63905">
        <ele>2747.59</ele>
        <time>2019-09-12T11:45:00Z</time>
      </trkpt>
      <trkpt lat="45.29999" lon="6.6393">
        <ele>2746.14</ele>
        <time>2019-09-12T11:45:16Z</time>
      </trkpt>
      <trkpt lat="45.29992" lon="6.63947">
        <ele>2742.78</ele>
        <time>2019-09-12T11:45:30Z</time>
      </trkpt>
      <trkpt lat="45.29986" lon="6.63965">
        <ele>2740.86</ele>
        <time>2019-09-12T11:45:43Z</time>
      </trkpt>
      <trkpt lat="45.29985" lon="6.63973">
        <ele>2740.38</ele>
        <time>2019-09-12T11:45:49Z</time>
      </trkpt>
      <trkpt lat="45.29981" lon="6.63989">
        <ele>2740.86</ele>
        <time>2019-09-12T11:46:01Z</time>
      </trkpt>
      <trkpt lat="45.29986" lon="6.64009">
        <ele>2741.82</ele>
        <time>2019-09-12T11:46:17Z</time>
      </trkpt>
      <trkpt lat="45.29987" lon="6.64012">
        <ele>2741.82</ele>
        <time>2019-09-12T11:46:34Z</time>
      </trkpt>
      <trkpt lat="45.29986" lon="6.64011">
        <ele>2741.82</ele>
        <time>2019-09-12T11:46:51Z</time>
      </trkpt>
      <trkpt lat="45.29985" lon="6.64011">
        <ele>2741.82</ele>
        <time>2019-09-12T11:47:05Z</time>
      </trkpt>
      <trkpt lat="45.29985" lon="6.64011">
        <ele>2740.38</ele>
        <time>2019-09-12T11:47:14Z</time>
      </trkpt>
      <trkpt lat="45.29973" lon="6.64009">
        <ele>2738.93</ele>
        <time>2019-09-12T11:47:30Z</time>
      </trkpt>
      <trkpt lat="45.29973" lon="6.6401">
        <ele>2738.93</ele>
        <time>2019-09-12T11:47:39Z</time>
      </trkpt>
      <trkpt lat="45.29972" lon="6.64018">
        <ele>2738.45</ele>
        <time>2019-09-12T11:47:52Z</time>
      </trkpt>
      <trkpt lat="45.29972" lon="6.64027">
        <ele>2737.97</ele>
        <time>2019-09-12T11:48:06Z</time>
      </trkpt>
      <trkpt lat="45.29968" lon="6.64036">
        <ele>2735.57</ele>
        <time>2019-09-12T11:48:21Z</time>
      </trkpt>
      <trkpt lat="45.29969" lon="6.6404">
        <ele>2734.61</ele>
        <time>2019-09-12T11:48:36Z</time>
      </trkpt>
      <trkpt lat="45.29968" lon="6.64044">
        <ele>2732.2</ele>
        <time>2019-09-12T11:48:52Z</time>
      </trkpt>
      <trkpt lat="45.29971" lon="6.64045">
        <ele>2730.76</ele>
        <time>2019-09-12T11:49:05Z</time>
      </trkpt>
      <trkpt lat="45.2997" lon="6.64048">
        <ele>2729.8</ele>
        <time>2019-09-12T11:49:18Z</time>
      </trkpt>
      <trkpt lat="45.29972" lon="6.6405">
        <ele>2728.36</ele>
        <time>2019-09-12T11:49:35Z</time>
      </trkpt>
      <trkpt lat="45.29976" lon="6.6405">
        <ele>2726.92</ele>
        <time>2019-09-12T11:49:49Z</time>
      </trkpt>
      <trkpt lat="45.29974" lon="6.64056">
        <ele>2724.51</ele>
        <time>2019-09-12T11:50:06Z</time>
      </trkpt>
      <trkpt lat="45.29973" lon="6.64062">
        <ele>2722.59</ele>
        <time>2019-09-12T11:50:20Z</time>
      </trkpt>
      <trkpt lat="45.29977" lon="6.64065">
        <ele>2720.67</ele>
        <time>2019-09-12T11:50:33Z</time>
      </trkpt>
      <trkpt lat="45.29973" lon="6.64067">
        <ele>2719.71</ele>
        <time>2019-09-12T11:50:49Z</time>
      </trkpt>
      <trkpt lat="45.29982" lon="6.64071">
        <ele>2716.34</ele>
        <time>2019-09-12T11:51:04Z</time>
      </trkpt>
      <trkpt lat="45.29986" lon="6.64077">
        <ele>2714.42</ele>
        <time>2019-09-12T11:51:16Z</time>
      </trkpt>
      <trkpt lat="45.2999" lon="6.64088">
        <ele>2712.5</ele>
        <time>2019-09-12T11:51:30Z</time>
      </trkpt>
      <trkpt lat="45.2999" lon="6.64097">
        <ele>2710.09</ele>
        <time>2019-09-12T11:51:42Z</time>
      </trkpt>
      <trkpt lat="45.29982" lon="6.641">
        <ele>2707.69</ele>
        <time>2019-09-12T11:51:56Z</time>
      </trkpt>
      <trkpt lat="45.29982" lon="6.64101">
        <ele>2707.69</ele>
        <time>2019-09-12T11:51:58Z</time>
      </trkpt>
      <trkpt lat="45.29983" lon="6.64112">
        <ele>2704.33</ele>
        <time>2019-09-12T11:52:12Z</time>
      </trkpt>
      <trkpt lat="45.29982" lon="6.6412">
        <ele>2702.4</ele>
        <time>2019-09-12T11:52:24Z</time>
      </trkpt>
      <trkpt lat="45.29979" lon="6.64126">
        <ele>2700.48</ele>
        <time>2019-09-12T11:52:36Z</time>
      </trkpt>
      <trkpt lat="45.29975" lon="6.64128">
        <ele>2698.56</ele>
        <time>2019-09-12T11:52:48Z</time>
      </trkpt>
      <trkpt lat="45.29979" lon="6.6414">
        <ele>2696.15</ele>
        <time>2019-09-12T11:53:03Z</time>
      </trkpt>
      <trkpt lat="45.29983" lon="6.64149">
        <ele>2693.75</ele>
        <time>2019-09-12T11:53:18Z</time>
      </trkpt>
      <trkpt lat="45.29982" lon="6.64155">
        <ele>2692.31</ele>
        <time>2019-09-12T11:53:30Z</time>
      </trkpt>
      <trkpt lat="45.2998" lon="6.64163">
        <ele>2689.91</ele>
        <time>2019-09-12T11:53:40Z</time>
      </trkpt>
      <trkpt lat="45.29977" lon="6.64174">
        <ele>2687.5</ele>
        <time>2019-09-12T11:53:55Z</time>
      </trkpt>
      <trkpt lat="45.29975" lon="6.6418">
        <ele>2684.14</ele>
        <time>2019-09-12T11:54:10Z</time>
      </trkpt>
      <trkpt lat="45.2997" lon="6.64176">
        <ele>2681.73</ele>
        <time>2019-09-12T11:54:22Z</time>
      </trkpt>
      <trkpt lat="45.29967" lon="6.64187">
        <ele>2678.37</ele>
        <time>2019-09-12T11:54:37Z</time>
      </trkpt>
      <trkpt lat="45.29966" lon="6.64198">
        <ele>2675.49</ele>
        <time>2019-09-12T11:54:53Z</time>
      </trkpt>
      <trkpt lat="45.29962" lon="6.64203">
        <ele>2672.6</ele>
        <time>2019-09-12T11:55:08Z</time>
      </trkpt>
      <trkpt lat="45.29961" lon="6.64214">
        <ele>2669.24</ele>
        <time>2019-09-12T11:55:24Z</time>
      </trkpt>
      <trkpt lat="45.29961" lon="6.64225">
        <ele>2666.35</ele>
        <time>2019-09-12T11:55:40Z</time>
      </trkpt>
      <trkpt lat="45.2996" lon="6.64232">
        <ele>2663.95</ele>
        <time>2019-09-12T11:55:47Z</time>
      </trkpt>
      <trkpt lat="45.29961" lon="6.6425">
        <ele>2661.55</ele>
        <time>2019-09-12T11:56:05Z</time>
      </trkpt>
      <trkpt lat="45.29954" lon="6.64251">
        <ele>2659.14</ele>
        <time>2019-09-12T11:56:20Z</time>
      </trkpt>
      <trkpt lat="45.29952" lon="6.64253">
        <ele>2656.26</ele>
        <time>2019-09-12T11:56:33Z</time>
      </trkpt>
      <trkpt lat="45.2995" lon="6.64262">
        <ele>2653.86</ele>
        <time>2019-09-12T11:56:48Z</time>
      </trkpt>
      <trkpt lat="45.29948" lon="6.64264">
        <ele>2653.38</ele>
        <time>2019-09-12T11:56:51Z</time>
      </trkpt>
      <trkpt lat="45.29947" lon="6.64271">
        <ele>2651.45</ele>
        <time>2019-09-12T11:57:04Z</time>
      </trkpt>
      <trkpt lat="45.29945" lon="6.64282">
        <ele>2649.05</ele>
        <time>2019-09-12T11:57:19Z</time>
      </trkpt>
      <trkpt lat="45.29947" lon="6.64288">
        <ele>2647.13</ele>
        <time>2019-09-12T11:57:34Z</time>
      </trkpt>
      <trkpt lat="45.29947" lon="6.64292">
        <ele>2646.17</ele>
        <time>2019-09-12T11:57:45Z</time>
      </trkpt>
      <trkpt lat="45.2995" lon="6.64297">
        <ele>2644.72</ele>
        <time>2019-09-12T11:57:59Z</time>
      </trkpt>
      <trkpt lat="45.29952" lon="6.64307">
        <ele>2643.76</ele>
        <time>2019-09-12T11:58:11Z</time>
      </trkpt>
      <trkpt lat="45.29955" lon="6.64314">
        <ele>2642.8</ele>
        <time>2019-09-12T11:58:24Z</time>
      </trkpt>
      <trkpt lat="45.2996" lon="6.64321">
        <ele>2641.36</ele>
        <time>2019-09-12T11:58:37Z</time>
      </trkpt>
      <trkpt lat="45.29961" lon="6.64323">
        <ele>2640.88</ele>
        <time>2019-09-12T11:58:52Z</time>
      </trkpt>
      <trkpt lat="45.2996" lon="6.64332">
        <ele>2638.96</ele>
        <time>2019-09-12T11:59:04Z</time>
      </trkpt>
      <trkpt lat="45.29961" lon="6.64335">
        <ele>2637.51</ele>
        <time>2019-09-12T11:59:15Z</time>
      </trkpt>
      <trkpt lat="45.29962" lon="6.64343">
        <ele>2635.11</ele>
        <time>2019-09-12T11:59:27Z</time>
      </trkpt>
      <trkpt lat="45.29956" lon="6.64347">
        <ele>2632.23</ele>
        <time>2019-09-12T11:59:40Z</time>
      </trkpt>
      <trkpt lat="45.29947" lon="6.64342">
        <ele>2630.3</ele>
        <time>2019-09-12T11:59:52Z</time>
      </trkpt>
      <trkpt lat="45.29942" lon="6.6434">
        <ele>2628.86</ele>
        <time>2019-09-12T12:00:05Z</time>
      </trkpt>
      <trkpt lat="45.29935" lon="6.64339">
        <ele>2625.98</ele>
        <time>2019-09-12T12:00:18Z</time>
      </trkpt>
      <trkpt lat="45.2993" lon="6.64351">
        <ele>2622.61</ele>
        <time>2019-09-12T12:00:36Z</time>
      </trkpt>
      <trkpt lat="45.29924" lon="6.64362">
        <ele>2619.73</ele>
        <time>2019-09-12T12:00:53Z</time>
      </trkpt>
      <trkpt lat="45.29923" lon="6.64369">
        <ele>2617.33</ele>
        <time>2019-09-12T12:01:08Z</time>
      </trkpt>
      <trkpt lat="45.29925" lon="6.64377">
        <ele>2614.92</ele>
        <time>2019-09-12T12:01:25Z</time>
      </trkpt>
      <trkpt lat="45.2992" lon="6.6438">
        <ele>2612.52</ele>
        <time>2019-09-12T12:01:42Z</time>
      </trkpt>
      <trkpt lat="45.29923" lon="6.64391">
        <ele>2609.16</ele>
        <time>2019-09-12T12:01:55Z</time>
      </trkpt>
      <trkpt lat="45.29926" lon="6.64395">
        <ele>2607.71</ele>
        <time>2019-09-12T12:02:07Z</time>
      </trkpt>
      <trkpt lat="45.2992" lon="6.64395">
        <ele>2606.27</ele>
        <time>2019-09-12T12:02:20Z</time>
      </trkpt>
      <trkpt lat="45.29918" lon="6.64399">
        <ele>2603.87</ele>
        <time>2019-09-12T12:02:33Z</time>
      </trkpt>
      <trkpt lat="45.29918" lon="6.64405">
        <ele>2601.95</ele>
        <time>2019-09-12T12:02:46Z</time>
      </trkpt>
      <trkpt lat="45.29913" lon="6.64407">
        <ele>2599.54</ele>
        <time>2019-09-12T12:03:02Z</time>
      </trkpt>
      <trkpt lat="45.29911" lon="6.64412">
        <ele>2597.62</ele>
        <time>2019-09-12T12:03:14Z</time>
      </trkpt>
      <trkpt lat="45.29907" lon="6.64425">
        <ele>2594.74</ele>
        <time>2019-09-12T12:03:28Z</time>
      </trkpt>
      <trkpt lat="45.29908" lon="6.64438">
        <ele>2592.33</ele>
        <time>2019-09-12T12:03:44Z</time>
      </trkpt>
      <trkpt lat="45.29908" lon="6.64446">
        <ele>2590.89</ele>
        <time>2019-09-12T12:03:59Z</time>
      </trkpt>
      <trkpt lat="45.2991" lon="6.64452">
        <ele>2589.93</ele>
        <time>2019-09-12T12:04:12Z</time>
      </trkpt>
      <trkpt lat="45.29909" lon="6.6446">
        <ele>2588.49</ele>
        <time>2019-09-12T12:04:24Z</time>
      </trkpt>
      <trkpt lat="45.29904" lon="6.64461">
        <ele>2586.08</ele>
        <time>2019-09-12T12:04:36Z</time>
      </trkpt>
      <trkpt lat="45.29899" lon="6.64455">
        <ele>2584.64</ele>
        <time>2019-09-12T12:04:53Z</time>
      </trkpt>
      <trkpt lat="45.29893" lon="6.64457">
        <ele>2582.24</ele>
        <time>2019-09-12T12:05:06Z</time>
      </trkpt>
      <trkpt lat="45.29892" lon="6.64463">
        <ele>2581.76</ele>
        <time>2019-09-12T12:05:19Z</time>
      </trkpt>
      <trkpt lat="45.29893" lon="6.64466">
        <ele>2580.8</ele>
        <time>2019-09-12T12:05:32Z</time>
      </trkpt>
      <trkpt lat="45.29894" lon="6.64466">
        <ele>2580.32</ele>
        <time>2019-09-12T12:05:56Z</time>
      </trkpt>
      <trkpt lat="45.29894" lon="6.64467">
        <ele>2579.84</ele>
        <time>2019-09-12T12:06:12Z</time>
      </trkpt>
      <trkpt lat="45.29896" lon="6.64472">
        <ele>2578.87</ele>
        <time>2019-09-12T12:06:25Z</time>
      </trkpt>
      <trkpt lat="45.29899" lon="6.64478">
        <ele>2576.47</ele>
        <time>2019-09-12T12:06:37Z</time>
      </trkpt>
      <trkpt lat="45.29898" lon="6.64482">
        <ele>2575.51</ele>
        <time>2019-09-12T12:06:42Z</time>
      </trkpt>
      <trkpt lat="45.29884" lon="6.64501">
        <ele>2574.55</ele>
        <time>2019-09-12T12:06:58Z</time>
      </trkpt>
      <trkpt lat="45.29879" lon="6.64514">
        <ele>2572.14</ele>
        <time>2019-09-12T12:07:12Z</time>
      </trkpt>
      <trkpt lat="45.29874" lon="6.64522">
        <ele>2570.22</ele>
        <time>2019-09-12T12:07:25Z</time>
      </trkpt>
      <trkpt lat="45.29873" lon="6.64526">
        <ele>2568.78</ele>
        <time>2019-09-12T12:07:31Z</time>
      </trkpt>
      <trkpt lat="45.29866" lon="6.64539">
        <ele>2566.86</ele>
        <time>2019-09-12T12:07:46Z</time>
      </trkpt>
      <trkpt lat="45.29861" lon="6.6455">
        <ele>2565.42</ele>
        <time>2019-09-12T12:08:00Z</time>
      </trkpt>
      <trkpt lat="45.29858" lon="6.64557">
        <ele>2563.01</ele>
        <time>2019-09-12T12:08:13Z</time>
      </trkpt>
      <trkpt lat="45.29853" lon="6.6457">
        <ele>2560.13</ele>
        <time>2019-09-12T12:08:32Z</time>
      </trkpt>
      <trkpt lat="45.29849" lon="6.64583">
        <ele>2556.76</ele>
        <time>2019-09-12T12:08:47Z</time>
      </trkpt>
      <trkpt lat="45.29849" lon="6.64595">
        <ele>2555.32</ele>
        <time>2019-09-12T12:09:01Z</time>
      </trkpt>
      <trkpt lat="45.29851" lon="6.646">
        <ele>2552.44</ele>
        <time>2019-09-12T12:09:13Z</time>
      </trkpt>
      <trkpt lat="45.29851" lon="6.64611">
        <ele>2550.51</ele>
        <time>2019-09-12T12:09:31Z</time>
      </trkpt>
      <trkpt lat="45.29853" lon="6.64617">
        <ele>2547.63</ele>
        <time>2019-09-12T12:09:44Z</time>
      </trkpt>
      <trkpt lat="45.29853" lon="6.64633">
        <ele>2545.71</ele>
        <time>2019-09-12T12:09:57Z</time>
      </trkpt>
      <trkpt lat="45.29852" lon="6.6464">
        <ele>2544.27</ele>
        <time>2019-09-12T12:10:02Z</time>
      </trkpt>
      <trkpt lat="45.29852" lon="6.64646">
        <ele>2544.27</ele>
        <time>2019-09-12T12:10:06Z</time>
      </trkpt>
      <trkpt lat="45.29855" lon="6.64659">
        <ele>2543.79</ele>
        <time>2019-09-12T12:10:16Z</time>
      </trkpt>
      <trkpt lat="45.29852" lon="6.64669">
        <ele>2542.82</ele>
        <time>2019-09-12T12:10:23Z</time>
      </trkpt>
      <trkpt lat="45.29848" lon="6.64689">
        <ele>2540.42</ele>
        <time>2019-09-12T12:10:37Z</time>
      </trkpt>
      <trkpt lat="45.29848" lon="6.64705">
        <ele>2538.02</ele>
        <time>2019-09-12T12:10:54Z</time>
      </trkpt>
      <trkpt lat="45.29846" lon="6.64719">
        <ele>2536.1</ele>
        <time>2019-09-12T12:11:10Z</time>
      </trkpt>
      <trkpt lat="45.29839" lon="6.64734">
        <ele>2532.25</ele>
        <time>2019-09-12T12:11:25Z</time>
      </trkpt>
      <trkpt lat="45.29837" lon="6.64746">
        <ele>2531.29</ele>
        <time>2019-09-12T12:11:40Z</time>
      </trkpt>
      <trkpt lat="45.29834" lon="6.64762">
        <ele>2530.33</ele>
        <time>2019-09-12T12:11:56Z</time>
      </trkpt>
      <trkpt lat="45.29828" lon="6.6478">
        <ele>2530.33</ele>
        <time>2019-09-12T12:12:10Z</time>
      </trkpt>
      <trkpt lat="45.29826" lon="6.64793">
        <ele>2528.89</ele>
        <time>2019-09-12T12:12:20Z</time>
      </trkpt>
      <trkpt lat="45.29822" lon="6.64804">
        <ele>2527.92</ele>
        <time>2019-09-12T12:12:34Z</time>
      </trkpt>
      <trkpt lat="45.29819" lon="6.6481">
        <ele>2527.44</ele>
        <time>2019-09-12T12:12:48Z</time>
      </trkpt>
      <trkpt lat="45.29815" lon="6.64815">
        <ele>2526.48</ele>
        <time>2019-09-12T12:12:58Z</time>
      </trkpt>
      <trkpt lat="45.29809" lon="6.64812">
        <ele>2525.04</ele>
        <time>2019-09-12T12:13:10Z</time>
      </trkpt>
      <trkpt lat="45.29802" lon="6.64812">
        <ele>2524.56</ele>
        <time>2019-09-12T12:13:23Z</time>
      </trkpt>
      <trkpt lat="45.29804" lon="6.64816">
        <ele>2523.6</ele>
        <time>2019-09-12T12:13:36Z</time>
      </trkpt>
      <trkpt lat="45.29805" lon="6.64821">
        <ele>2523.12</ele>
        <time>2019-09-12T12:13:52Z</time>
      </trkpt>
      <trkpt lat="45.29804" lon="6.6482">
        <ele>2522.64</ele>
        <time>2019-09-12T12:14:11Z</time>
      </trkpt>
      <trkpt lat="45.29804" lon="6.6482">
        <ele>2522.64</ele>
        <time>2019-09-12T12:14:48Z</time>
      </trkpt>
      <trkpt lat="45.29802" lon="6.64816">
        <ele>2522.64</ele>
        <time>2019-09-12T12:15:25Z</time>
      </trkpt>
      <trkpt lat="45.29805" lon="6.64815">
        <ele>2522.16</ele>
        <time>2019-09-12T12:16:01Z</time>
      </trkpt>
      <trkpt lat="45.29802" lon="6.64814">
        <ele>2522.64</ele>
        <time>2019-09-12T12:16:21Z</time>
      </trkpt>
      <trkpt lat="45.29803" lon="6.64815">
        <ele>2522.64</ele>
        <time>2019-09-12T12:16:37Z</time>
      </trkpt>
      <trkpt lat="45.29803" lon="6.64814">
        <ele>2522.64</ele>
        <time>2019-09-12T12:16:38Z</time>
      </trkpt>
      <trkpt lat="45.29802" lon="6.64814">
        <ele>2522.64</ele>
        <time>2019-09-12T12:16:53Z</time>
      </trkpt>
      <trkpt lat="45.29801" lon="6.64814">
        <ele>2521.19</ele>
        <time>2019-09-12T12:45:00Z</time>
      </trkpt>
      <trkpt lat="45.29801" lon="6.64814">
        <ele>2521.19</ele>
        <time>2019-09-12T12:45:01Z</time>
      </trkpt>
      <trkpt lat="45.29801" lon="6.64814">
        <ele>2522.64</ele>
        <time>2019-09-12T12:45:24Z</time>
      </trkpt>
      <trkpt lat="45.29801" lon="6.64813">
        <ele>2522.64</ele>
        <time>2019-09-12T12:45:47Z</time>
      </trkpt>
      <trkpt lat="45.298" lon="6.64814">
        <ele>2522.64</ele>
        <time>2019-09-12T12:46:00Z</time>
      </trkpt>
      <trkpt lat="45.29798" lon="6.64816">
        <ele>2522.64</ele>
        <time>2019-09-12T12:46:36Z</time>
      </trkpt>
      <trkpt lat="45.29799" lon="6.64814">
        <ele>2519.75</ele>
        <time>2019-09-12T12:47:02Z</time>
      </trkpt>
      <trkpt lat="45.29799" lon="6.64814">
        <ele>2523.12</ele>
        <time>2019-09-12T12:47:03Z</time>
      </trkpt>
      <trkpt lat="45.298" lon="6.64815">
        <ele>2522.64</ele>
        <time>2019-09-12T12:47:18Z</time>
      </trkpt>
      <trkpt lat="45.298" lon="6.64814">
        <ele>2523.6</ele>
        <time>2019-09-12T12:47:39Z</time>
      </trkpt>
      <trkpt lat="45.29801" lon="6.64815">
        <ele>2523.6</ele>
        <time>2019-09-12T12:47:59Z</time>
      </trkpt>
      <trkpt lat="45.29801" lon="6.64814">
        <ele>2523.6</ele>
        <time>2019-09-12T12:48:17Z</time>
      </trkpt>
      <trkpt lat="45.29805" lon="6.64814">
        <ele>2524.56</ele>
        <time>2019-09-12T12:48:33Z</time>
      </trkpt>
      <trkpt lat="45.29811" lon="6.64813">
        <ele>2524.56</ele>
        <time>2019-09-12T12:48:47Z</time>
      </trkpt>
      <trkpt lat="45.29813" lon="6.64819">
        <ele>2525.52</ele>
        <time>2019-09-12T12:48:59Z</time>
      </trkpt>
      <trkpt lat="45.29811" lon="6.64827">
        <ele>2525.52</ele>
        <time>2019-09-12T12:49:13Z</time>
      </trkpt>
      <trkpt lat="45.2981" lon="6.64827">
        <ele>2524.08</ele>
        <time>2019-09-12T12:49:19Z</time>
      </trkpt>
      <trkpt lat="45.2981" lon="6.64828">
        <ele>2524.08</ele>
        <time>2019-09-12T12:49:38Z</time>
      </trkpt>
      <trkpt lat="45.29809" lon="6.64827">
        <ele>2524.08</ele>
        <time>2019-09-12T12:50:01Z</time>
      </trkpt>
      <trkpt lat="45.29808" lon="6.6484">
        <ele>2523.12</ele>
        <time>2019-09-12T12:50:17Z</time>
      </trkpt>
      <trkpt lat="45.29804" lon="6.64852">
        <ele>2521.68</ele>
        <time>2019-09-12T12:50:30Z</time>
      </trkpt>
      <trkpt lat="45.29803" lon="6.64857">
        <ele>2519.75</ele>
        <time>2019-09-12T12:50:41Z</time>
      </trkpt>
      <trkpt lat="45.29806" lon="6.64868">
        <ele>2517.83</ele>
        <time>2019-09-12T12:50:56Z</time>
      </trkpt>
      <trkpt lat="45.29807" lon="6.64878">
        <ele>2514.95</ele>
        <time>2019-09-12T12:51:09Z</time>
      </trkpt>
      <trkpt lat="45.29808" lon="6.64882">
        <ele>2513.02</ele>
        <time>2019-09-12T12:51:22Z</time>
      </trkpt>
      <trkpt lat="45.29797" lon="6.6487">
        <ele>2510.14</ele>
        <time>2019-09-12T12:51:37Z</time>
      </trkpt>
      <trkpt lat="45.29794" lon="6.64873">
        <ele>2507.74</ele>
        <time>2019-09-12T12:51:52Z</time>
      </trkpt>
      <trkpt lat="45.29798" lon="6.64885">
        <ele>2504.85</ele>
        <time>2019-09-12T12:52:07Z</time>
      </trkpt>
      <trkpt lat="45.29801" lon="6.64893">
        <ele>2502.45</ele>
        <time>2019-09-12T12:52:22Z</time>
      </trkpt>
      <trkpt lat="45.29805" lon="6.64901">
        <ele>2501.01</ele>
        <time>2019-09-12T12:52:35Z</time>
      </trkpt>
      <trkpt lat="45.29807" lon="6.64906">
        <ele>2499.57</ele>
        <time>2019-09-12T12:52:50Z</time>
      </trkpt>
      <trkpt lat="45.29807" lon="6.64908">
        <ele>2498.6</ele>
        <time>2019-09-12T12:53:02Z</time>
      </trkpt>
      <trkpt lat="45.29806" lon="6.64911">
        <ele>2497.64</ele>
        <time>2019-09-12T12:53:08Z</time>
      </trkpt>
      <trkpt lat="45.29809" lon="6.64927">
        <ele>2496.68</ele>
        <time>2019-09-12T12:53:20Z</time>
      </trkpt>
      <trkpt lat="45.29813" lon="6.64938">
        <ele>2497.64</ele>
        <time>2019-09-12T12:53:29Z</time>
      </trkpt>
      <trkpt lat="45.29823" lon="6.6495">
        <ele>2497.16</ele>
        <time>2019-09-12T12:53:44Z</time>
      </trkpt>
      <trkpt lat="45.29827" lon="6.64962">
        <ele>2493.8</ele>
        <time>2019-09-12T12:53:58Z</time>
      </trkpt>
      <trkpt lat="45.29828" lon="6.64964">
        <ele>2493.32</ele>
        <time>2019-09-12T12:53:59Z</time>
      </trkpt>
      <trkpt lat="45.29842" lon="6.64977">
        <ele>2490.91</ele>
        <time>2019-09-12T12:54:17Z</time>
      </trkpt>
      <trkpt lat="45.29844" lon="6.64979">
        <ele>2490.91</ele>
        <time>2019-09-12T12:54:19Z</time>
      </trkpt>
      <trkpt lat="45.29849" lon="6.65005">
        <ele>2489.95</ele>
        <time>2019-09-12T12:54:36Z</time>
      </trkpt>
      <trkpt lat="45.29848" lon="6.65019">
        <ele>2489.95</ele>
        <time>2019-09-12T12:54:53Z</time>
      </trkpt>
      <trkpt lat="45.29845" lon="6.65029">
        <ele>2487.55</ele>
        <time>2019-09-12T12:55:05Z</time>
      </trkpt>
      <trkpt lat="45.29842" lon="6.65037">
        <ele>2485.63</ele>
        <time>2019-09-12T12:55:18Z</time>
      </trkpt>
      <trkpt lat="45.29842" lon="6.6504">
        <ele>2484.18</ele>
        <time>2019-09-12T12:55:22Z</time>
      </trkpt>
      <trkpt lat="45.29839" lon="6.65056">
        <ele>2481.78</ele>
        <time>2019-09-12T12:55:35Z</time>
      </trkpt>
      <trkpt lat="45.29837" lon="6.65068">
        <ele>2478.9</ele>
        <time>2019-09-12T12:55:44Z</time>
      </trkpt>
      <trkpt lat="45.29836" lon="6.65074">
        <ele>2478.42</ele>
        <time>2019-09-12T12:55:48Z</time>
      </trkpt>
      <trkpt lat="45.29843" lon="6.65084">
        <ele>2478.9</ele>
        <time>2019-09-12T12:56:04Z</time>
      </trkpt>
      <trkpt lat="45.29842" lon="6.65086">
        <ele>2478.9</ele>
        <time>2019-09-12T12:56:16Z</time>
      </trkpt>
      <trkpt lat="45.2984" lon="6.65088">
        <ele>2478.9</ele>
        <time>2019-09-12T12:56:18Z</time>
      </trkpt>
      <trkpt lat="45.29836" lon="6.65096">
        <ele>2478.42</ele>
        <time>2019-09-12T12:56:24Z</time>
      </trkpt>
      <trkpt lat="45.29832" lon="6.65104">
        <ele>2477.94</ele>
        <time>2019-09-12T12:56:31Z</time>
      </trkpt>
      <trkpt lat="45.29829" lon="6.65109">
        <ele>2476.97</ele>
        <time>2019-09-12T12:56:35Z</time>
      </trkpt>
      <trkpt lat="45.29827" lon="6.6513">
        <ele>2475.05</ele>
        <time>2019-09-12T12:56:50Z</time>
      </trkpt>
      <trkpt lat="45.29826" lon="6.65134">
        <ele>2473.61</ele>
        <time>2019-09-12T12:56:53Z</time>
      </trkpt>
      <trkpt lat="45.29823" lon="6.65152">
        <ele>2472.17</ele>
        <time>2019-09-12T12:57:08Z</time>
      </trkpt>
      <trkpt lat="45.29819" lon="6.65171">
        <ele>2470.24</ele>
        <time>2019-09-12T12:57:23Z</time>
      </trkpt>
      <trkpt lat="45.29818" lon="6.65176">
        <ele>2469.76</ele>
        <time>2019-09-12T12:57:27Z</time>
      </trkpt>
      <trkpt lat="45.29812" lon="6.65198">
        <ele>2466.4</ele>
        <time>2019-09-12T12:57:46Z</time>
      </trkpt>
      <trkpt lat="45.29811" lon="6.65209">
        <ele>2464</ele>
        <time>2019-09-12T12:58:00Z</time>
      </trkpt>
      <trkpt lat="45.29806" lon="6.65234">
        <ele>2461.11</ele>
        <time>2019-09-12T12:58:18Z</time>
      </trkpt>
      <trkpt lat="45.29802" lon="6.65249">
        <ele>2459.19</ele>
        <time>2019-09-12T12:58:32Z</time>
      </trkpt>
      <trkpt lat="45.298" lon="6.65259">
        <ele>2458.23</ele>
        <time>2019-09-12T12:58:43Z</time>
      </trkpt>
      <trkpt lat="45.29799" lon="6.65263">
        <ele>2457.27</ele>
        <time>2019-09-12T12:58:47Z</time>
      </trkpt>
      <trkpt lat="45.29796" lon="6.65277">
        <ele>2455.34</ele>
        <time>2019-09-12T12:59:01Z</time>
      </trkpt>
      <trkpt lat="45.29794" lon="6.65279">
        <ele>2454.86</ele>
        <time>2019-09-12T12:59:04Z</time>
      </trkpt>
      <trkpt lat="45.29791" lon="6.65297">
        <ele>2451.98</ele>
        <time>2019-09-12T12:59:20Z</time>
      </trkpt>
      <trkpt lat="45.29787" lon="6.65316">
        <ele>2448.62</ele>
        <time>2019-09-12T12:59:35Z</time>
      </trkpt>
      <trkpt lat="45.29787" lon="6.65318">
        <ele>2448.62</ele>
        <time>2019-09-12T12:59:37Z</time>
      </trkpt>
      <trkpt lat="45.29779" lon="6.65344">
        <ele>2445.73</ele>
        <time>2019-09-12T12:59:55Z</time>
      </trkpt>
      <trkpt lat="45.29765" lon="6.65357">
        <ele>2443.81</ele>
        <time>2019-09-12T13:00:09Z</time>
      </trkpt>
      <trkpt lat="45.29761" lon="6.65359">
        <ele>2443.81</ele>
        <time>2019-09-12T13:00:13Z</time>
      </trkpt>
      <trkpt lat="45.29743" lon="6.6537">
        <ele>2442.37</ele>
        <time>2019-09-12T13:00:29Z</time>
      </trkpt>
      <trkpt lat="45.29731" lon="6.65381">
        <ele>2441.89</ele>
        <time>2019-09-12T13:00:41Z</time>
      </trkpt>
      <trkpt lat="45.29718" lon="6.65387">
        <ele>2441.89</ele>
        <time>2019-09-12T13:00:56Z</time>
      </trkpt>
      <trkpt lat="45.29706" lon="6.65386">
        <ele>2443.33</ele>
        <time>2019-09-12T13:01:09Z</time>
      </trkpt>
      <trkpt lat="45.29693" lon="6.6538">
        <ele>2444.77</ele>
        <time>2019-09-12T13:01:23Z</time>
      </trkpt>
      <trkpt lat="45.29677" lon="6.65375">
        <ele>2445.25</ele>
        <time>2019-09-12T13:01:39Z</time>
      </trkpt>
      <trkpt lat="45.29673" lon="6.65375">
        <ele>2445.25</ele>
        <time>2019-09-12T13:01:44Z</time>
      </trkpt>
      <trkpt lat="45.29668" lon="6.65377">
        <ele>2445.25</ele>
        <time>2019-09-12T13:01:49Z</time>
      </trkpt>
      <trkpt lat="45.2965" lon="6.65377">
        <ele>2445.25</ele>
        <time>2019-09-12T13:02:05Z</time>
      </trkpt>
      <trkpt lat="45.29634" lon="6.65382">
        <ele>2445.25</ele>
        <time>2019-09-12T13:02:20Z</time>
      </trkpt>
      <trkpt lat="45.29632" lon="6.65382">
        <ele>2445.25</ele>
        <time>2019-09-12T13:02:22Z</time>
      </trkpt>
      <trkpt lat="45.29626" lon="6.65379">
        <ele>2444.29</ele>
        <time>2019-09-12T13:02:28Z</time>
      </trkpt>
      <trkpt lat="45.2962" lon="6.65376">
        <ele>2443.81</ele>
        <time>2019-09-12T13:02:35Z</time>
      </trkpt>
      <trkpt lat="45.29618" lon="6.65373">
        <ele>2443.33</ele>
        <time>2019-09-12T13:02:38Z</time>
      </trkpt>
      <trkpt lat="45.29612" lon="6.65371">
        <ele>2442.85</ele>
        <time>2019-09-12T13:02:43Z</time>
      </trkpt>
      <trkpt lat="45.29606" lon="6.65368">
        <ele>2442.85</ele>
        <time>2019-09-12T13:02:49Z</time>
      </trkpt>
      <trkpt lat="45.2959" lon="6.65363">
        <ele>2441.41</ele>
        <time>2019-09-12T13:03:06Z</time>
      </trkpt>
      <trkpt lat="45.29586" lon="6.65364">
        <ele>2440.92</ele>
        <time>2019-09-12T13:03:09Z</time>
      </trkpt>
      <trkpt lat="45.29567" lon="6.6537">
        <ele>2439.48</ele>
        <time>2019-09-12T13:03:28Z</time>
      </trkpt>
      <trkpt lat="45.29556" lon="6.6537">
        <ele>2439</ele>
        <time>2019-09-12T13:03:38Z</time>
      </trkpt>
      <trkpt lat="45.29554" lon="6.6537">
        <ele>2439</ele>
        <time>2019-09-12T13:03:40Z</time>
      </trkpt>
      <trkpt lat="45.2954" lon="6.65383">
        <ele>2439</ele>
        <time>2019-09-12T13:03:57Z</time>
      </trkpt>
      <trkpt lat="45.29532" lon="6.65387">
        <ele>2439</ele>
        <time>2019-09-12T13:04:08Z</time>
      </trkpt>
      <trkpt lat="45.29519" lon="6.65384">
        <ele>2438.52</ele>
        <time>2019-09-12T13:04:24Z</time>
      </trkpt>
      <trkpt lat="45.2951" lon="6.65387">
        <ele>2438.52</ele>
        <time>2019-09-12T13:04:37Z</time>
      </trkpt>
      <trkpt lat="45.29493" lon="6.654">
        <ele>2438.52</ele>
        <time>2019-09-12T13:04:53Z</time>
      </trkpt>
      <trkpt lat="45.29488" lon="6.65403">
        <ele>2439.96</ele>
        <time>2019-09-12T13:04:58Z</time>
      </trkpt>
      <trkpt lat="45.29477" lon="6.6542">
        <ele>2441.41</ele>
        <time>2019-09-12T13:05:14Z</time>
      </trkpt>
      <trkpt lat="45.29466" lon="6.65437">
        <ele>2441.89</ele>
        <time>2019-09-12T13:05:27Z</time>
      </trkpt>
      <trkpt lat="45.29451" lon="6.65458">
        <ele>2441.41</ele>
        <time>2019-09-12T13:05:44Z</time>
      </trkpt>
      <trkpt lat="45.29439" lon="6.65471">
        <ele>2442.85</ele>
        <time>2019-09-12T13:05:58Z</time>
      </trkpt>
      <trkpt lat="45.29438" lon="6.65475">
        <ele>2442.85</ele>
        <time>2019-09-12T13:06:01Z</time>
      </trkpt>
      <trkpt lat="45.29435" lon="6.65479">
        <ele>2443.81</ele>
        <time>2019-09-12T13:06:06Z</time>
      </trkpt>
      <trkpt lat="45.29434" lon="6.6548">
        <ele>2443.81</ele>
        <time>2019-09-12T13:06:08Z</time>
      </trkpt>
      <trkpt lat="45.29427" lon="6.6549">
        <ele>2445.73</ele>
        <time>2019-09-12T13:06:21Z</time>
      </trkpt>
      <trkpt lat="45.2942" lon="6.65498">
        <ele>2446.69</ele>
        <time>2019-09-12T13:06:33Z</time>
      </trkpt>
      <trkpt lat="45.29413" lon="6.65512">
        <ele>2448.62</ele>
        <time>2019-09-12T13:06:47Z</time>
      </trkpt>
      <trkpt lat="45.29404" lon="6.65524">
        <ele>2451.5</ele>
        <time>2019-09-12T13:07:04Z</time>
      </trkpt>
      <trkpt lat="45.29396" lon="6.65537">
        <ele>2452.94</ele>
        <time>2019-09-12T13:07:17Z</time>
      </trkpt>
      <trkpt lat="45.29391" lon="6.65546">
        <ele>2454.38</ele>
        <time>2019-09-12T13:07:29Z</time>
      </trkpt>
      <trkpt lat="45.29387" lon="6.65559">
        <ele>2456.31</ele>
        <time>2019-09-12T13:07:43Z</time>
      </trkpt>
      <trkpt lat="45.29376" lon="6.65577">
        <ele>2456.79</ele>
        <time>2019-09-12T13:08:00Z</time>
      </trkpt>
      <trkpt lat="45.29366" lon="6.65592">
        <ele>2458.71</ele>
        <time>2019-09-12T13:08:16Z</time>
      </trkpt>
      <trkpt lat="45.29359" lon="6.65605">
        <ele>2459.67</ele>
        <time>2019-09-12T13:08:28Z</time>
      </trkpt>
      <trkpt lat="45.29353" lon="6.6562">
        <ele>2460.63</ele>
        <time>2019-09-12T13:08:41Z</time>
      </trkpt>
      <trkpt lat="45.29348" lon="6.65629">
        <ele>2461.59</ele>
        <time>2019-09-12T13:08:52Z</time>
      </trkpt>
      <trkpt lat="45.29338" lon="6.65631">
        <ele>2463.04</ele>
        <time>2019-09-12T13:09:07Z</time>
      </trkpt>
      <trkpt lat="45.29332" lon="6.65623">
        <ele>2464.48</ele>
        <time>2019-09-12T13:09:21Z</time>
      </trkpt>
      <trkpt lat="45.29326" lon="6.65614">
        <ele>2466.4</ele>
        <time>2019-09-12T13:09:36Z</time>
      </trkpt>
      <trkpt lat="45.2932" lon="6.65605">
        <ele>2468.32</ele>
        <time>2019-09-12T13:09:50Z</time>
      </trkpt>
      <trkpt lat="45.29317" lon="6.65593">
        <ele>2469.76</ele>
        <time>2019-09-12T13:10:05Z</time>
      </trkpt>
      <trkpt lat="45.29322" lon="6.65576">
        <ele>2471.21</ele>
        <time>2019-09-12T13:10:19Z</time>
      </trkpt>
      <trkpt lat="45.2932" lon="6.65571">
        <ele>2472.17</ele>
        <time>2019-09-12T13:10:30Z</time>
      </trkpt>
      <trkpt lat="45.29313" lon="6.65564">
        <ele>2474.09</ele>
        <time>2019-09-12T13:10:45Z</time>
      </trkpt>
      <trkpt lat="45.29307" lon="6.65562">
        <ele>2476.49</ele>
        <time>2019-09-12T13:11:01Z</time>
      </trkpt>
      <trkpt lat="45.29302" lon="6.65558">
        <ele>2477.45</ele>
        <time>2019-09-12T13:11:15Z</time>
      </trkpt>
      <trkpt lat="45.29294" lon="6.65559">
        <ele>2478.9</ele>
        <time>2019-09-12T13:11:27Z</time>
      </trkpt>
      <trkpt lat="45.29291" lon="6.65572">
        <ele>2480.34</ele>
        <time>2019-09-12T13:11:42Z</time>
      </trkpt>
      <trkpt lat="45.29286" lon="6.65583">
        <ele>2482.26</ele>
        <time>2019-09-12T13:11:57Z</time>
      </trkpt>
      <trkpt lat="45.2928" lon="6.65587">
        <ele>2483.22</ele>
        <time>2019-09-12T13:12:06Z</time>
      </trkpt>
      <trkpt lat="45.29266" lon="6.65592">
        <ele>2484.18</ele>
        <time>2019-09-12T13:12:20Z</time>
      </trkpt>
      <trkpt lat="45.29256" lon="6.65598">
        <ele>2485.15</ele>
        <time>2019-09-12T13:12:33Z</time>
      </trkpt>
      <trkpt lat="45.29246" lon="6.65606">
        <ele>2486.59</ele>
        <time>2019-09-12T13:12:46Z</time>
      </trkpt>
      <trkpt lat="45.29237" lon="6.65616">
        <ele>2487.07</ele>
        <time>2019-09-12T13:12:56Z</time>
      </trkpt>
      <trkpt lat="45.2922" lon="6.65627">
        <ele>2488.99</ele>
        <time>2019-09-12T13:13:12Z</time>
      </trkpt>
      <trkpt lat="45.29217" lon="6.65632">
        <ele>2489.47</ele>
        <time>2019-09-12T13:13:17Z</time>
      </trkpt>
      <trkpt lat="45.29209" lon="6.65639">
        <ele>2490.43</ele>
        <time>2019-09-12T13:13:29Z</time>
      </trkpt>
      <trkpt lat="45.29197" lon="6.65658">
        <ele>2490.91</ele>
        <time>2019-09-12T13:13:46Z</time>
      </trkpt>
      <trkpt lat="45.29196" lon="6.6566">
        <ele>2490.91</ele>
        <time>2019-09-12T13:13:48Z</time>
      </trkpt>
      <trkpt lat="45.29187" lon="6.65671">
        <ele>2491.39</ele>
        <time>2019-09-12T13:13:59Z</time>
      </trkpt>
      <trkpt lat="45.29176" lon="6.65685">
        <ele>2491.87</ele>
        <time>2019-09-12T13:14:13Z</time>
      </trkpt>
      <trkpt lat="45.29161" lon="6.65705">
        <ele>2491.87</ele>
        <time>2019-09-12T13:14:31Z</time>
      </trkpt>
      <trkpt lat="45.2916" lon="6.65706">
        <ele>2491.87</ele>
        <time>2019-09-12T13:14:32Z</time>
      </trkpt>
      <trkpt lat="45.29152" lon="6.65717">
        <ele>2491.87</ele>
        <time>2019-09-12T13:14:44Z</time>
      </trkpt>
      <trkpt lat="45.2914" lon="6.65726">
        <ele>2492.36</ele>
        <time>2019-09-12T13:14:58Z</time>
      </trkpt>
      <trkpt lat="45.2913" lon="6.65733">
        <ele>2493.32</ele>
        <time>2019-09-12T13:15:11Z</time>
      </trkpt>
      <trkpt lat="45.29127" lon="6.65738">
        <ele>2493.32</ele>
        <time>2019-09-12T13:15:26Z</time>
      </trkpt>
      <trkpt lat="45.29119" lon="6.6575">
        <ele>2493.8</ele>
        <time>2019-09-12T13:15:39Z</time>
      </trkpt>
      <trkpt lat="45.29108" lon="6.65765">
        <ele>2492.36</ele>
        <time>2019-09-12T13:15:53Z</time>
      </trkpt>
      <trkpt lat="45.29094" lon="6.65781">
        <ele>2491.39</ele>
        <time>2019-09-12T13:16:10Z</time>
      </trkpt>
      <trkpt lat="45.29092" lon="6.65785">
        <ele>2490.43</ele>
        <time>2019-09-12T13:16:14Z</time>
      </trkpt>
      <trkpt lat="45.29091" lon="6.65789">
        <ele>2490.43</ele>
        <time>2019-09-12T13:16:18Z</time>
      </trkpt>
      <trkpt lat="45.29087" lon="6.65803">
        <ele>2490.43</ele>
        <time>2019-09-12T13:16:29Z</time>
      </trkpt>
      <trkpt lat="45.2908" lon="6.65817">
        <ele>2490.43</ele>
        <time>2019-09-12T13:16:41Z</time>
      </trkpt>
      <trkpt lat="45.29074" lon="6.65828">
        <ele>2489.95</ele>
        <time>2019-09-12T13:16:50Z</time>
      </trkpt>
      <trkpt lat="45.29063" lon="6.65849">
        <ele>2488.51</ele>
        <time>2019-09-12T13:17:06Z</time>
      </trkpt>
      <trkpt lat="45.29059" lon="6.65862">
        <ele>2488.03</ele>
        <time>2019-09-12T13:17:15Z</time>
      </trkpt>
      <trkpt lat="45.29049" lon="6.65878">
        <ele>2487.07</ele>
        <time>2019-09-12T13:17:30Z</time>
      </trkpt>
      <trkpt lat="45.29045" lon="6.65885">
        <ele>2487.07</ele>
        <time>2019-09-12T13:17:36Z</time>
      </trkpt>
      <trkpt lat="45.29034" lon="6.65901">
        <ele>2487.07</ele>
        <time>2019-09-12T13:17:52Z</time>
      </trkpt>
      <trkpt lat="45.29033" lon="6.65902">
        <ele>2487.07</ele>
        <time>2019-09-12T13:17:53Z</time>
      </trkpt>
      <trkpt lat="45.29027" lon="6.65928">
        <ele>2485.63</ele>
        <time>2019-09-12T13:18:11Z</time>
      </trkpt>
      <trkpt lat="45.29023" lon="6.65937">
        <ele>2485.15</ele>
        <time>2019-09-12T13:18:18Z</time>
      </trkpt>
      <trkpt lat="45.29022" lon="6.65942">
        <ele>2485.15</ele>
        <time>2019-09-12T13:18:22Z</time>
      </trkpt>
      <trkpt lat="45.29011" lon="6.65952">
        <ele>2483.22</ele>
        <time>2019-09-12T13:18:37Z</time>
      </trkpt>
      <trkpt lat="45.29007" lon="6.65955">
        <ele>2482.26</ele>
        <time>2019-09-12T13:18:51Z</time>
      </trkpt>
      <trkpt lat="45.29001" lon="6.65956">
        <ele>2481.3</ele>
        <time>2019-09-12T13:18:57Z</time>
      </trkpt>
      <trkpt lat="45.28989" lon="6.65951">
        <ele>2479.86</ele>
        <time>2019-09-12T13:19:12Z</time>
      </trkpt>
      <trkpt lat="45.28976" lon="6.65948">
        <ele>2476.49</ele>
        <time>2019-09-12T13:19:27Z</time>
      </trkpt>
      <trkpt lat="45.28972" lon="6.65947">
        <ele>2476.01</ele>
        <time>2019-09-12T13:19:31Z</time>
      </trkpt>
      <trkpt lat="45.28955" lon="6.65939">
        <ele>2474.09</ele>
        <time>2019-09-12T13:19:47Z</time>
      </trkpt>
      <trkpt lat="45.28941" lon="6.65935">
        <ele>2472.65</ele>
        <time>2019-09-12T13:20:00Z</time>
      </trkpt>
      <trkpt lat="45.2893" lon="6.65933">
        <ele>2471.21</ele>
        <time>2019-09-12T13:20:14Z</time>
      </trkpt>
      <trkpt lat="45.28926" lon="6.65926">
        <ele>2471.21</ele>
        <time>2019-09-12T13:20:26Z</time>
      </trkpt>
      <trkpt lat="45.28926" lon="6.65927">
        <ele>2471.21</ele>
        <time>2019-09-12T13:20:29Z</time>
      </trkpt>
      <trkpt lat="45.28923" lon="6.65924">
        <ele>2472.65</ele>
        <time>2019-09-12T13:20:38Z</time>
      </trkpt>
      <trkpt lat="45.2892" lon="6.65924">
        <ele>2471.21</ele>
        <time>2019-09-12T13:20:51Z</time>
      </trkpt>
      <trkpt lat="45.2892" lon="6.65928">
        <ele>2470.24</ele>
        <time>2019-09-12T13:21:20Z</time>
      </trkpt>
      <trkpt lat="45.28921" lon="6.65928">
        <ele>2470.24</ele>
        <time>2019-09-12T13:21:45Z</time>
      </trkpt>
      <trkpt lat="45.28922" lon="6.65927">
        <ele>2470.24</ele>
        <time>2019-09-12T13:22:11Z</time>
      </trkpt>
      <trkpt lat="45.28923" lon="6.65926">
        <ele>2469.76</ele>
        <time>2019-09-12T13:22:46Z</time>
      </trkpt>
      <trkpt lat="45.28921" lon="6.65926">
        <ele>2469.76</ele>
        <time>2019-09-12T13:23:14Z</time>
      </trkpt>
      <trkpt lat="45.28921" lon="6.65927">
        <ele>2469.76</ele>
        <time>2019-09-12T13:23:47Z</time>
      </trkpt>
      <trkpt lat="45.28921" lon="6.65933">
        <ele>2469.76</ele>
        <time>2019-09-12T13:24:22Z</time>
      </trkpt>
      <trkpt lat="45.28922" lon="6.65933">
        <ele>2469.76</ele>
        <time>2019-09-12T13:24:26Z</time>
      </trkpt>
      <trkpt lat="45.28921" lon="6.6593">
        <ele>2469.76</ele>
        <time>2019-09-12T13:24:31Z</time>
      </trkpt>
      <trkpt lat="45.28922" lon="6.65929">
        <ele>2470.73</ele>
        <time>2019-09-12T13:24:38Z</time>
      </trkpt>
      <trkpt lat="45.28923" lon="6.65926">
        <ele>2469.28</ele>
        <time>2019-09-12T13:24:45Z</time>
      </trkpt>
      <trkpt lat="45.28924" lon="6.65925">
        <ele>2472.65</ele>
        <time>2019-09-12T13:24:51Z</time>
      </trkpt>
      <trkpt lat="45.28924" lon="6.65925">
        <ele>2469.28</ele>
        <time>2019-09-12T13:24:52Z</time>
      </trkpt>
      <trkpt lat="45.28925" lon="6.65924">
        <ele>2469.28</ele>
        <time>2019-09-12T13:25:23Z</time>
      </trkpt>
      <trkpt lat="45.28926" lon="6.65923">
        <ele>2469.28</ele>
        <time>2019-09-12T13:26:02Z</time>
      </trkpt>
      <trkpt lat="45.28926" lon="6.65925">
        <ele>2469.76</ele>
        <time>2019-09-12T13:26:32Z</time>
      </trkpt>
      <trkpt lat="45.28925" lon="6.65924">
        <ele>2469.28</ele>
        <time>2019-09-12T13:26:44Z</time>
      </trkpt>
      <trkpt lat="45.28925" lon="6.65923">
        <ele>2470.73</ele>
        <time>2019-09-12T13:26:59Z</time>
      </trkpt>
      <trkpt lat="45.28924" lon="6.65926">
        <ele>2469.28</ele>
        <time>2019-09-12T13:27:43Z</time>
      </trkpt>
      <trkpt lat="45.28921" lon="6.65926">
        <ele>2469.28</ele>
        <time>2019-09-12T13:28:12Z</time>
      </trkpt>
      <trkpt lat="45.28922" lon="6.65926">
        <ele>2470.73</ele>
        <time>2019-09-12T13:28:19Z</time>
      </trkpt>
      <trkpt lat="45.28925" lon="6.65926">
        <ele>2470.73</ele>
        <time>2019-09-12T13:28:33Z</time>
      </trkpt>
      <trkpt lat="45.28929" lon="6.65933">
        <ele>2470.73</ele>
        <time>2019-09-12T13:28:48Z</time>
      </trkpt>
      <trkpt lat="45.28928" lon="6.6594">
        <ele>2469.28</ele>
        <time>2019-09-12T13:28:56Z</time>
      </trkpt>
      <trkpt lat="45.28924" lon="6.65942">
        <ele>2468.8</ele>
        <time>2019-09-12T13:29:01Z</time>
      </trkpt>
      <trkpt lat="45.28919" lon="6.65939">
        <ele>2467.36</ele>
        <time>2019-09-12T13:29:07Z</time>
      </trkpt>
      <trkpt lat="45.2891" lon="6.65947">
        <ele>2465.44</ele>
        <time>2019-09-12T13:29:21Z</time>
      </trkpt>
      <trkpt lat="45.28915" lon="6.65967">
        <ele>2462.07</ele>
        <time>2019-09-12T13:29:38Z</time>
      </trkpt>
      <trkpt lat="45.28917" lon="6.65972">
        <ele>2461.11</ele>
        <time>2019-09-12T13:29:43Z</time>
      </trkpt>
      <trkpt lat="45.28926" lon="6.65985">
        <ele>2459.19</ele>
        <time>2019-09-12T13:29:58Z</time>
      </trkpt>
      <trkpt lat="45.28924" lon="6.6599">
        <ele>2458.23</ele>
        <time>2019-09-12T13:30:01Z</time>
      </trkpt>
      <trkpt lat="45.28919" lon="6.65991">
        <ele>2457.75</ele>
        <time>2019-09-12T13:30:06Z</time>
      </trkpt>
      <trkpt lat="45.28913" lon="6.65991">
        <ele>2456.79</ele>
        <time>2019-09-12T13:30:12Z</time>
      </trkpt>
      <trkpt lat="45.28909" lon="6.66014">
        <ele>2456.31</ele>
        <time>2019-09-12T13:30:27Z</time>
      </trkpt>
      <trkpt lat="45.28906" lon="6.66022">
        <ele>2456.31</ele>
        <time>2019-09-12T13:30:35Z</time>
      </trkpt>
      <trkpt lat="45.28892" lon="6.66036">
        <ele>2452.94</ele>
        <time>2019-09-12T13:30:52Z</time>
      </trkpt>
      <trkpt lat="45.28879" lon="6.66054">
        <ele>2449.58</ele>
        <time>2019-09-12T13:31:10Z</time>
      </trkpt>
      <trkpt lat="45.2887" lon="6.66064">
        <ele>2446.69</ele>
        <time>2019-09-12T13:31:22Z</time>
      </trkpt>
      <trkpt lat="45.28865" lon="6.66078">
        <ele>2443.81</ele>
        <time>2019-09-12T13:31:34Z</time>
      </trkpt>
      <trkpt lat="45.28865" lon="6.66083">
        <ele>2442.85</ele>
        <time>2019-09-12T13:31:37Z</time>
      </trkpt>
      <trkpt lat="45.28862" lon="6.66104">
        <ele>2442.37</ele>
        <time>2019-09-12T13:31:51Z</time>
      </trkpt>
      <trkpt lat="45.28865" lon="6.66121">
        <ele>2438.52</ele>
        <time>2019-09-12T13:32:06Z</time>
      </trkpt>
      <trkpt lat="45.28868" lon="6.66135">
        <ele>2435.64</ele>
        <time>2019-09-12T13:32:21Z</time>
      </trkpt>
      <trkpt lat="45.2887" lon="6.66149">
        <ele>2432.27</ele>
        <time>2019-09-12T13:32:33Z</time>
      </trkpt>
      <trkpt lat="45.28872" lon="6.66176">
        <ele>2431.31</ele>
        <time>2019-09-12T13:32:49Z</time>
      </trkpt>
      <trkpt lat="45.28867" lon="6.66203">
        <ele>2429.39</ele>
        <time>2019-09-12T13:33:05Z</time>
      </trkpt>
      <trkpt lat="45.28872" lon="6.66222">
        <ele>2428.43</ele>
        <time>2019-09-12T13:33:20Z</time>
      </trkpt>
      <trkpt lat="45.28892" lon="6.66231">
        <ele>2426.99</ele>
        <time>2019-09-12T13:33:36Z</time>
      </trkpt>
      <trkpt lat="45.28911" lon="6.66234">
        <ele>2426.02</ele>
        <time>2019-09-12T13:33:52Z</time>
      </trkpt>
      <trkpt lat="45.2893" lon="6.66233">
        <ele>2424.58</ele>
        <time>2019-09-12T13:34:08Z</time>
      </trkpt>
      <trkpt lat="45.28947" lon="6.66237">
        <ele>2422.66</ele>
        <time>2019-09-12T13:34:24Z</time>
      </trkpt>
      <trkpt lat="45.28965" lon="6.66243">
        <ele>2420.26</ele>
        <time>2019-09-12T13:34:41Z</time>
      </trkpt>
      <trkpt lat="45.28974" lon="6.6625">
        <ele>2418.33</ele>
        <time>2019-09-12T13:34:50Z</time>
      </trkpt>
      <trkpt lat="45.28991" lon="6.6626">
        <ele>2415.45</ele>
        <time>2019-09-12T13:35:09Z</time>
      </trkpt>
      <trkpt lat="45.29014" lon="6.66271">
        <ele>2413.05</ele>
        <time>2019-09-12T13:35:29Z</time>
      </trkpt>
      <trkpt lat="45.29022" lon="6.66273">
        <ele>2410.64</ele>
        <time>2019-09-12T13:35:36Z</time>
      </trkpt>
      <trkpt lat="45.29044" lon="6.66287">
        <ele>2407.76</ele>
        <time>2019-09-12T13:35:57Z</time>
      </trkpt>
      <trkpt lat="45.29061" lon="6.663">
        <ele>2404.39</ele>
        <time>2019-09-12T13:36:14Z</time>
      </trkpt>
      <trkpt lat="45.29075" lon="6.66309">
        <ele>2402.47</ele>
        <time>2019-09-12T13:36:28Z</time>
      </trkpt>
      <trkpt lat="45.29064" lon="6.66328">
        <ele>2399.59</ele>
        <time>2019-09-12T13:36:45Z</time>
      </trkpt>
      <trkpt lat="45.29049" lon="6.66336">
        <ele>2396.7</ele>
        <time>2019-09-12T13:37:01Z</time>
      </trkpt>
      <trkpt lat="45.29052" lon="6.66339">
        <ele>2395.74</ele>
        <time>2019-09-12T13:37:04Z</time>
      </trkpt>
      <trkpt lat="45.29066" lon="6.66344">
        <ele>2391.9</ele>
        <time>2019-09-12T13:37:19Z</time>
      </trkpt>
      <trkpt lat="45.29085" lon="6.66351">
        <ele>2389.01</ele>
        <time>2019-09-12T13:37:36Z</time>
      </trkpt>
      <trkpt lat="45.29106" lon="6.66356">
        <ele>2385.65</ele>
        <time>2019-09-12T13:37:54Z</time>
      </trkpt>
      <trkpt lat="45.29117" lon="6.66356">
        <ele>2383.25</ele>
        <time>2019-09-12T13:38:04Z</time>
      </trkpt>
      <trkpt lat="45.29132" lon="6.66364">
        <ele>2379.4</ele>
        <time>2019-09-12T13:38:20Z</time>
      </trkpt>
      <trkpt lat="45.29145" lon="6.66368">
        <ele>2376.52</ele>
        <time>2019-09-12T13:38:32Z</time>
      </trkpt>
      <trkpt lat="45.2916" lon="6.66377">
        <ele>2373.15</ele>
        <time>2019-09-12T13:38:47Z</time>
      </trkpt>
      <trkpt lat="45.29175" lon="6.66384">
        <ele>2370.27</ele>
        <time>2019-09-12T13:39:02Z</time>
      </trkpt>
      <trkpt lat="45.29196" lon="6.66383">
        <ele>2367.38</ele>
        <time>2019-09-12T13:39:19Z</time>
      </trkpt>
      <trkpt lat="45.29214" lon="6.66386">
        <ele>2365.94</ele>
        <time>2019-09-12T13:39:35Z</time>
      </trkpt>
      <trkpt lat="45.29233" lon="6.66387">
        <ele>2363.54</ele>
        <time>2019-09-12T13:39:52Z</time>
      </trkpt>
      <trkpt lat="45.29251" lon="6.66388">
        <ele>2361.62</ele>
        <time>2019-09-12T13:40:08Z</time>
      </trkpt>
      <trkpt lat="45.29267" lon="6.66386">
        <ele>2358.73</ele>
        <time>2019-09-12T13:40:25Z</time>
      </trkpt>
      <trkpt lat="45.29279" lon="6.66386">
        <ele>2354.89</ele>
        <time>2019-09-12T13:40:40Z</time>
      </trkpt>
      <trkpt lat="45.29281" lon="6.66385">
        <ele>2353.93</ele>
        <time>2019-09-12T13:40:42Z</time>
      </trkpt>
      <trkpt lat="45.29281" lon="6.66382">
        <ele>2353.93</ele>
        <time>2019-09-12T13:40:45Z</time>
      </trkpt>
      <trkpt lat="45.29278" lon="6.6636">
        <ele>2351.04</ele>
        <time>2019-09-12T13:41:00Z</time>
      </trkpt>
      <trkpt lat="45.29277" lon="6.66354">
        <ele>2350.56</ele>
        <time>2019-09-12T13:41:04Z</time>
      </trkpt>
      <trkpt lat="45.29277" lon="6.66344">
        <ele>2349.6</ele>
        <time>2019-09-12T13:41:10Z</time>
      </trkpt>
      <trkpt lat="45.29277" lon="6.66326">
        <ele>2347.2</ele>
        <time>2019-09-12T13:41:22Z</time>
      </trkpt>
      <trkpt lat="45.29278" lon="6.66324">
        <ele>2346.72</ele>
        <time>2019-09-12T13:41:24Z</time>
      </trkpt>
      <trkpt lat="45.29282" lon="6.66319">
        <ele>2346.23</ele>
        <time>2019-09-12T13:41:30Z</time>
      </trkpt>
      <trkpt lat="45.29298" lon="6.66321">
        <ele>2343.35</ele>
        <time>2019-09-12T13:41:45Z</time>
      </trkpt>
      <trkpt lat="45.29314" lon="6.66313">
        <ele>2340.95</ele>
        <time>2019-09-12T13:42:00Z</time>
      </trkpt>
      <trkpt lat="45.29327" lon="6.66308">
        <ele>2339.02</ele>
        <time>2019-09-12T13:42:12Z</time>
      </trkpt>
      <trkpt lat="45.29347" lon="6.66303">
        <ele>2337.1</ele>
        <time>2019-09-12T13:42:30Z</time>
      </trkpt>
      <trkpt lat="45.29361" lon="6.66298">
        <ele>2333.74</ele>
        <time>2019-09-12T13:42:43Z</time>
      </trkpt>
      <trkpt lat="45.29372" lon="6.66294">
        <ele>2331.81</ele>
        <time>2019-09-12T13:42:54Z</time>
      </trkpt>
      <trkpt lat="45.2939" lon="6.66288">
        <ele>2328.93</ele>
        <time>2019-09-12T13:43:12Z</time>
      </trkpt>
      <trkpt lat="45.29403" lon="6.66283">
        <ele>2326.05</ele>
        <time>2019-09-12T13:43:27Z</time>
      </trkpt>
      <trkpt lat="45.29413" lon="6.66272">
        <ele>2323.64</ele>
        <time>2019-09-12T13:43:41Z</time>
      </trkpt>
      <trkpt lat="45.29421" lon="6.66267">
        <ele>2321.24</ele>
        <time>2019-09-12T13:43:50Z</time>
      </trkpt>
      <trkpt lat="45.29433" lon="6.66264">
        <ele>2318.36</ele>
        <time>2019-09-12T13:44:04Z</time>
      </trkpt>
      <trkpt lat="45.29454" lon="6.66261">
        <ele>2315.47</ele>
        <time>2019-09-12T13:44:22Z</time>
      </trkpt>
      <trkpt lat="45.29472" lon="6.66258">
        <ele>2312.59</ele>
        <time>2019-09-12T13:44:39Z</time>
      </trkpt>
      <trkpt lat="45.29482" lon="6.66244">
        <ele>2310.19</ele>
        <time>2019-09-12T13:44:53Z</time>
      </trkpt>
      <trkpt lat="45.29488" lon="6.66236">
        <ele>2309.7</ele>
        <time>2019-09-12T13:45:01Z</time>
      </trkpt>
      <trkpt lat="45.295" lon="6.66227">
        <ele>2306.34</ele>
        <time>2019-09-12T13:45:16Z</time>
      </trkpt>
      <trkpt lat="45.29511" lon="6.66218">
        <ele>2303.46</ele>
        <time>2019-09-12T13:45:30Z</time>
      </trkpt>
      <trkpt lat="45.29522" lon="6.66204">
        <ele>2300.09</ele>
        <time>2019-09-12T13:45:44Z</time>
      </trkpt>
      <trkpt lat="45.29538" lon="6.66195">
        <ele>2297.69</ele>
        <time>2019-09-12T13:46:00Z</time>
      </trkpt>
      <trkpt lat="45.29551" lon="6.66185">
        <ele>2294.32</ele>
        <time>2019-09-12T13:46:15Z</time>
      </trkpt>
      <trkpt lat="45.29561" lon="6.66177">
        <ele>2292.88</ele>
        <time>2019-09-12T13:46:26Z</time>
      </trkpt>
      <trkpt lat="45.29559" lon="6.66191">
        <ele>2290.48</ele>
        <time>2019-09-12T13:46:39Z</time>
      </trkpt>
      <trkpt lat="45.29556" lon="6.66194">
        <ele>2290</ele>
        <time>2019-09-12T13:46:42Z</time>
      </trkpt>
      <trkpt lat="45.29548" lon="6.66222">
        <ele>2287.11</ele>
        <time>2019-09-12T13:47:02Z</time>
      </trkpt>
      <trkpt lat="45.29547" lon="6.66245">
        <ele>2283.75</ele>
        <time>2019-09-12T13:47:18Z</time>
      </trkpt>
      <trkpt lat="45.29549" lon="6.6627">
        <ele>2280.87</ele>
        <time>2019-09-12T13:47:33Z</time>
      </trkpt>
      <trkpt lat="45.29543" lon="6.66299">
        <ele>2278.94</ele>
        <time>2019-09-12T13:47:51Z</time>
      </trkpt>
      <trkpt lat="45.29557" lon="6.66309">
        <ele>2275.1</ele>
        <time>2019-09-12T13:48:05Z</time>
      </trkpt>
      <trkpt lat="45.29563" lon="6.66307">
        <ele>2275.1</ele>
        <time>2019-09-12T13:48:11Z</time>
      </trkpt>
      <trkpt lat="45.29572" lon="6.66298">
        <ele>2272.69</ele>
        <time>2019-09-12T13:48:21Z</time>
      </trkpt>
      <trkpt lat="45.29573" lon="6.66296">
        <ele>2272.69</ele>
        <time>2019-09-12T13:48:23Z</time>
      </trkpt>
      <trkpt lat="45.29581" lon="6.66283">
        <ele>2269.33</ele>
        <time>2019-09-12T13:48:35Z</time>
      </trkpt>
      <trkpt lat="45.29585" lon="6.66278">
        <ele>2268.37</ele>
        <time>2019-09-12T13:48:40Z</time>
      </trkpt>
      <trkpt lat="45.296" lon="6.66265">
        <ele>2265.48</ele>
        <time>2019-09-12T13:48:55Z</time>
      </trkpt>
      <trkpt lat="45.29613" lon="6.66247">
        <ele>2263.08</ele>
        <time>2019-09-12T13:49:09Z</time>
      </trkpt>
      <trkpt lat="45.29628" lon="6.66241">
        <ele>2261.16</ele>
        <time>2019-09-12T13:49:23Z</time>
      </trkpt>
      <trkpt lat="45.29639" lon="6.66264">
        <ele>2260.68</ele>
        <time>2019-09-12T13:49:41Z</time>
      </trkpt>
      <trkpt lat="45.29654" lon="6.66286">
        <ele>2259.72</ele>
        <time>2019-09-12T13:49:58Z</time>
      </trkpt>
      <trkpt lat="45.2967" lon="6.66307">
        <ele>2258.27</ele>
        <time>2019-09-12T13:50:16Z</time>
      </trkpt>
      <trkpt lat="45.2968" lon="6.66322">
        <ele>2256.35</ele>
        <time>2019-09-12T13:50:30Z</time>
      </trkpt>
      <trkpt lat="45.29692" lon="6.66344">
        <ele>2254.91</ele>
        <time>2019-09-12T13:50:47Z</time>
      </trkpt>
      <trkpt lat="45.29699" lon="6.66371">
        <ele>2253.47</ele>
        <time>2019-09-12T13:51:04Z</time>
      </trkpt>
      <trkpt lat="45.29704" lon="6.66378">
        <ele>2252.51</ele>
        <time>2019-09-12T13:51:10Z</time>
      </trkpt>
      <trkpt lat="45.29709" lon="6.66405">
        <ele>2253.95</ele>
        <time>2019-09-12T13:51:27Z</time>
      </trkpt>
      <trkpt lat="45.2972" lon="6.66438">
        <ele>2252.03</ele>
        <time>2019-09-12T13:51:46Z</time>
      </trkpt>
      <trkpt lat="45.29725" lon="6.66452">
        <ele>2251.06</ele>
        <time>2019-09-12T13:51:58Z</time>
      </trkpt>
      <trkpt lat="45.29729" lon="6.66471">
        <ele>2250.1</ele>
        <time>2019-09-12T13:52:14Z</time>
      </trkpt>
      <trkpt lat="45.29732" lon="6.66495">
        <ele>2247.7</ele>
        <time>2019-09-12T13:52:31Z</time>
      </trkpt>
      <trkpt lat="45.29737" lon="6.66516">
        <ele>2245.3</ele>
        <time>2019-09-12T13:52:48Z</time>
      </trkpt>
      <trkpt lat="45.29746" lon="6.6653">
        <ele>2241.93</ele>
        <time>2019-09-12T13:53:00Z</time>
      </trkpt>
      <trkpt lat="45.29755" lon="6.66543">
        <ele>2239.05</ele>
        <time>2019-09-12T13:53:12Z</time>
      </trkpt>
      <trkpt lat="45.29763" lon="6.6656">
        <ele>2235.68</ele>
        <time>2019-09-12T13:53:27Z</time>
      </trkpt>
      <trkpt lat="45.29768" lon="6.66573">
        <ele>2232.8</ele>
        <time>2019-09-12T13:53:38Z</time>
      </trkpt>
      <trkpt lat="45.2977" lon="6.66575">
        <ele>2232.32</ele>
        <time>2019-09-12T13:53:40Z</time>
      </trkpt>
      <trkpt lat="45.29781" lon="6.66595">
        <ele>2228.95</ele>
        <time>2019-09-12T13:53:56Z</time>
      </trkpt>
      <trkpt lat="45.29791" lon="6.66611">
        <ele>2226.55</ele>
        <time>2019-09-12T13:54:10Z</time>
      </trkpt>
      <trkpt lat="45.29795" lon="6.66614">
        <ele>2226.07</ele>
        <time>2019-09-12T13:54:14Z</time>
      </trkpt>
      <trkpt lat="45.29796" lon="6.66619">
        <ele>2225.11</ele>
        <time>2019-09-12T13:54:17Z</time>
      </trkpt>
      <trkpt lat="45.2981" lon="6.66638">
        <ele>2222.22</ele>
        <time>2019-09-12T13:54:34Z</time>
      </trkpt>
      <trkpt lat="45.29827" lon="6.66654">
        <ele>2218.86</ele>
        <time>2019-09-12T13:54:53Z</time>
      </trkpt>
      <trkpt lat="45.29839" lon="6.66668">
        <ele>2215.01</ele>
        <time>2019-09-12T13:55:10Z</time>
      </trkpt>
      <trkpt lat="45.2985" lon="6.66678">
        <ele>2212.13</ele>
        <time>2019-09-12T13:55:24Z</time>
      </trkpt>
      <trkpt lat="45.2986" lon="6.66683">
        <ele>2209.73</ele>
        <time>2019-09-12T13:55:34Z</time>
      </trkpt>
      <trkpt lat="45.29876" lon="6.66689">
        <ele>2206.36</ele>
        <time>2019-09-12T13:55:49Z</time>
      </trkpt>
      <trkpt lat="45.29888" lon="6.66699">
        <ele>2203.48</ele>
        <time>2019-09-12T13:56:05Z</time>
      </trkpt>
      <trkpt lat="45.29898" lon="6.66708">
        <ele>2200.11</ele>
        <time>2019-09-12T13:56:20Z</time>
      </trkpt>
      <trkpt lat="45.29907" lon="6.66719">
        <ele>2196.75</ele>
        <time>2019-09-12T13:56:35Z</time>
      </trkpt>
      <trkpt lat="45.29919" lon="6.6673">
        <ele>2193.87</ele>
        <time>2019-09-12T13:56:51Z</time>
      </trkpt>
      <trkpt lat="45.29926" lon="6.66734">
        <ele>2192.42</ele>
        <time>2019-09-12T13:57:06Z</time>
      </trkpt>
      <trkpt lat="45.29939" lon="6.66743">
        <ele>2189.54</ele>
        <time>2019-09-12T13:57:22Z</time>
      </trkpt>
      <trkpt lat="45.2996" lon="6.66739">
        <ele>2187.14</ele>
        <time>2019-09-12T13:57:40Z</time>
      </trkpt>
      <trkpt lat="45.29978" lon="6.66744">
        <ele>2184.73</ele>
        <time>2019-09-12T13:57:56Z</time>
      </trkpt>
      <trkpt lat="45.29995" lon="6.66746">
        <ele>2182.81</ele>
        <time>2019-09-12T13:58:11Z</time>
      </trkpt>
      <trkpt lat="45.30019" lon="6.66753">
        <ele>2179.45</ele>
        <time>2019-09-12T13:58:31Z</time>
      </trkpt>
      <trkpt lat="45.30037" lon="6.66772">
        <ele>2176.08</ele>
        <time>2019-09-12T13:58:50Z</time>
      </trkpt>
      <trkpt lat="45.30051" lon="6.66777">
        <ele>2174.16</ele>
        <time>2019-09-12T13:59:03Z</time>
      </trkpt>
      <trkpt lat="45.30075" lon="6.66779">
        <ele>2171.27</ele>
        <time>2019-09-12T13:59:22Z</time>
      </trkpt>
      <trkpt lat="45.30094" lon="6.66778">
        <ele>2167.91</ele>
        <time>2019-09-12T13:59:39Z</time>
      </trkpt>
      <trkpt lat="45.30112" lon="6.66774">
        <ele>2165.03</ele>
        <time>2019-09-12T13:59:55Z</time>
      </trkpt>
      <trkpt lat="45.30117" lon="6.66772">
        <ele>2164.06</ele>
        <time>2019-09-12T13:59:59Z</time>
      </trkpt>
      <trkpt lat="45.30136" lon="6.66775">
        <ele>2162.14</ele>
        <time>2019-09-12T14:00:16Z</time>
      </trkpt>
      <trkpt lat="45.3015" lon="6.66777">
        <ele>2160.7</ele>
        <time>2019-09-12T14:00:31Z</time>
      </trkpt>
      <trkpt lat="45.30168" lon="6.66777">
        <ele>2157.34</ele>
        <time>2019-09-12T14:00:47Z</time>
      </trkpt>
      <trkpt lat="45.30175" lon="6.66778">
        <ele>2156.86</ele>
        <time>2019-09-12T14:00:54Z</time>
      </trkpt>
      <trkpt lat="45.30193" lon="6.66781">
        <ele>2153.97</ele>
        <time>2019-09-12T14:01:11Z</time>
      </trkpt>
      <trkpt lat="45.30207" lon="6.66781">
        <ele>2152.53</ele>
        <time>2019-09-12T14:01:24Z</time>
      </trkpt>
      <trkpt lat="45.30222" lon="6.66783">
        <ele>2150.13</ele>
        <time>2019-09-12T14:01:38Z</time>
      </trkpt>
      <trkpt lat="45.30239" lon="6.66788">
        <ele>2148.2</ele>
        <time>2019-09-12T14:01:55Z</time>
      </trkpt>
      <trkpt lat="45.30258" lon="6.66788">
        <ele>2145.8</ele>
        <time>2019-09-12T14:02:12Z</time>
      </trkpt>
      <trkpt lat="45.30276" lon="6.66786">
        <ele>2143.88</ele>
        <time>2019-09-12T14:02:27Z</time>
      </trkpt>
      <trkpt lat="45.30295" lon="6.66787">
        <ele>2142.44</ele>
        <time>2019-09-12T14:02:43Z</time>
      </trkpt>
      <trkpt lat="45.30312" lon="6.66787">
        <ele>2140.03</ele>
        <time>2019-09-12T14:02:58Z</time>
      </trkpt>
      <trkpt lat="45.30329" lon="6.66785">
        <ele>2138.59</ele>
        <time>2019-09-12T14:03:14Z</time>
      </trkpt>
      <trkpt lat="45.30353" lon="6.66781">
        <ele>2136.19</ele>
        <time>2019-09-12T14:03:34Z</time>
      </trkpt>
      <trkpt lat="45.30369" lon="6.66777">
        <ele>2134.74</ele>
        <time>2019-09-12T14:03:48Z</time>
      </trkpt>
      <trkpt lat="45.30389" lon="6.66773">
        <ele>2132.82</ele>
        <time>2019-09-12T14:04:05Z</time>
      </trkpt>
      <trkpt lat="45.30408" lon="6.66762">
        <ele>2130.9</ele>
        <time>2019-09-12T14:04:22Z</time>
      </trkpt>
      <trkpt lat="45.30426" lon="6.66756">
        <ele>2128.5</ele>
        <time>2019-09-12T14:04:38Z</time>
      </trkpt>
      <trkpt lat="45.30439" lon="6.66756">
        <ele>2126.57</ele>
        <time>2019-09-12T14:04:50Z</time>
      </trkpt>
      <trkpt lat="45.30461" lon="6.66761">
        <ele>2125.13</ele>
        <time>2019-09-12T14:05:08Z</time>
      </trkpt>
      <trkpt lat="45.30482" lon="6.66769">
        <ele>2121.77</ele>
        <time>2019-09-12T14:05:27Z</time>
      </trkpt>
      <trkpt lat="45.30484" lon="6.6677">
        <ele>2121.77</ele>
        <time>2019-09-12T14:05:29Z</time>
      </trkpt>
      <trkpt lat="45.30503" lon="6.66777">
        <ele>2118.4</ele>
        <time>2019-09-12T14:05:47Z</time>
      </trkpt>
      <trkpt lat="45.30526" lon="6.66785">
        <ele>2115.04</ele>
        <time>2019-09-12T14:06:09Z</time>
      </trkpt>
      <trkpt lat="45.30543" lon="6.66801">
        <ele>2111.67</ele>
        <time>2019-09-12T14:06:27Z</time>
      </trkpt>
      <trkpt lat="45.30561" lon="6.66818">
        <ele>2109.75</ele>
        <time>2019-09-12T14:06:46Z</time>
      </trkpt>
      <trkpt lat="45.30565" lon="6.66823">
        <ele>2108.31</ele>
        <time>2019-09-12T14:07:00Z</time>
      </trkpt>
      <trkpt lat="45.30569" lon="6.66824">
        <ele>2107.83</ele>
        <time>2019-09-12T14:07:19Z</time>
      </trkpt>
      <trkpt lat="45.30571" lon="6.66826">
        <ele>2107.35</ele>
        <time>2019-09-12T14:07:49Z</time>
      </trkpt>
      <trkpt lat="45.30572" lon="6.66829">
        <ele>2106.87</ele>
        <time>2019-09-12T14:08:07Z</time>
      </trkpt>
      <trkpt lat="45.30573" lon="6.66828">
        <ele>2106.87</ele>
        <time>2019-09-12T14:08:23Z</time>
      </trkpt>
      <trkpt lat="45.30578" lon="6.66831">
        <ele>2105.91</ele>
        <time>2019-09-12T14:08:42Z</time>
      </trkpt>
      <trkpt lat="45.30594" lon="6.66827">
        <ele>2103.98</ele>
        <time>2019-09-12T14:08:59Z</time>
      </trkpt>
      <trkpt lat="45.30599" lon="6.66824">
        <ele>2103.02</ele>
        <time>2019-09-12T14:09:04Z</time>
      </trkpt>
      <trkpt lat="45.30611" lon="6.66809">
        <ele>2101.1</ele>
        <time>2019-09-12T14:09:17Z</time>
      </trkpt>
      <trkpt lat="45.30628" lon="6.66803">
        <ele>2098.7</ele>
        <time>2019-09-12T14:09:34Z</time>
      </trkpt>
      <trkpt lat="45.30653" lon="6.66814">
        <ele>2097.25</ele>
        <time>2019-09-12T14:09:55Z</time>
      </trkpt>
      <trkpt lat="45.30672" lon="6.66822">
        <ele>2095.81</ele>
        <time>2019-09-12T14:10:12Z</time>
      </trkpt>
      <trkpt lat="45.30686" lon="6.66832">
        <ele>2092.45</ele>
        <time>2019-09-12T14:10:26Z</time>
      </trkpt>
      <trkpt lat="45.30705" lon="6.66836">
        <ele>2091</ele>
        <time>2019-09-12T14:10:43Z</time>
      </trkpt>
      <trkpt lat="45.30724" lon="6.66842">
        <ele>2088.6</ele>
        <time>2019-09-12T14:10:59Z</time>
      </trkpt>
      <trkpt lat="45.30738" lon="6.66847">
        <ele>2086.68</ele>
        <time>2019-09-12T14:11:12Z</time>
      </trkpt>
      <trkpt lat="45.30743" lon="6.66849">
        <ele>2086.68</ele>
        <time>2019-09-12T14:11:16Z</time>
      </trkpt>
      <trkpt lat="45.30761" lon="6.66856">
        <ele>2084.28</ele>
        <time>2019-09-12T14:11:34Z</time>
      </trkpt>
      <trkpt lat="45.3078" lon="6.66857">
        <ele>2081.87</ele>
        <time>2019-09-12T14:11:50Z</time>
      </trkpt>
      <trkpt lat="45.30804" lon="6.66868">
        <ele>2080.43</ele>
        <time>2019-09-12T14:12:08Z</time>
      </trkpt>
      <trkpt lat="45.30825" lon="6.66887">
        <ele>2078.03</ele>
        <time>2019-09-12T14:12:28Z</time>
      </trkpt>
      <trkpt lat="45.3084" lon="6.66896">
        <ele>2076.1</ele>
        <time>2019-09-12T14:12:42Z</time>
      </trkpt>
      <trkpt lat="45.30865" lon="6.66913">
        <ele>2074.66</ele>
        <time>2019-09-12T14:13:04Z</time>
      </trkpt>
      <trkpt lat="45.30881" lon="6.66931">
        <ele>2071.78</ele>
        <time>2019-09-12T14:13:22Z</time>
      </trkpt>
      <trkpt lat="45.30899" lon="6.66953">
        <ele>2070.34</ele>
        <time>2019-09-12T14:13:41Z</time>
      </trkpt>
      <trkpt lat="45.30913" lon="6.66976">
        <ele>2067.45</ele>
        <time>2019-09-12T14:13:59Z</time>
      </trkpt>
      <trkpt lat="45.30926" lon="6.66998">
        <ele>2065.53</ele>
        <time>2019-09-12T14:14:15Z</time>
      </trkpt>
      <trkpt lat="45.30941" lon="6.67026">
        <ele>2063.61</ele>
        <time>2019-09-12T14:14:33Z</time>
      </trkpt>
      <trkpt lat="45.30955" lon="6.67056">
        <ele>2062.65</ele>
        <time>2019-09-12T14:14:52Z</time>
      </trkpt>
      <trkpt lat="45.30969" lon="6.67085">
        <ele>2061.68</ele>
        <time>2019-09-12T14:15:12Z</time>
      </trkpt>
      <trkpt lat="45.3097" lon="6.67089">
        <ele>2061.68</ele>
        <time>2019-09-12T14:15:14Z</time>
      </trkpt>
      <trkpt lat="45.30972" lon="6.67098">
        <ele>2061.68</ele>
        <time>2019-09-12T14:15:19Z</time>
      </trkpt>
      <trkpt lat="45.30984" lon="6.67123">
        <ele>2061.2</ele>
        <time>2019-09-12T14:15:37Z</time>
      </trkpt>
      <trkpt lat="45.30988" lon="6.67137">
        <ele>2062.65</ele>
        <time>2019-09-12T14:15:46Z</time>
      </trkpt>
      <trkpt lat="45.31" lon="6.67167">
        <ele>2062.65</ele>
        <time>2019-09-12T14:16:04Z</time>
      </trkpt>
      <trkpt lat="45.31008" lon="6.67198">
        <ele>2061.2</ele>
        <time>2019-09-12T14:16:23Z</time>
      </trkpt>
      <trkpt lat="45.31018" lon="6.67227">
        <ele>2060.24</ele>
        <time>2019-09-12T14:16:40Z</time>
      </trkpt>
      <trkpt lat="45.3102" lon="6.6723">
        <ele>2058.8</ele>
        <time>2019-09-12T14:16:42Z</time>
      </trkpt>
      <trkpt lat="45.31034" lon="6.67258">
        <ele>2057.84</ele>
        <time>2019-09-12T14:17:01Z</time>
      </trkpt>
      <trkpt lat="45.31049" lon="6.67281">
        <ele>2055.44</ele>
        <time>2019-09-12T14:17:19Z</time>
      </trkpt>
      <trkpt lat="45.31067" lon="6.67304">
        <ele>2053.99</ele>
        <time>2019-09-12T14:17:38Z</time>
      </trkpt>
      <trkpt lat="45.31085" lon="6.6732">
        <ele>2052.55</ele>
        <time>2019-09-12T14:17:55Z</time>
      </trkpt>
      <trkpt lat="45.31096" lon="6.67347">
        <ele>2051.59</ele>
        <time>2019-09-12T14:18:12Z</time>
      </trkpt>
      <trkpt lat="45.31109" lon="6.67372">
        <ele>2049.19</ele>
        <time>2019-09-12T14:18:31Z</time>
      </trkpt>
      <trkpt lat="45.31114" lon="6.67379">
        <ele>2048.23</ele>
        <time>2019-09-12T14:18:45Z</time>
      </trkpt>
      <trkpt lat="45.31115" lon="6.67378">
        <ele>2048.23</ele>
        <time>2019-09-12T14:18:59Z</time>
      </trkpt>
      <trkpt lat="45.31114" lon="6.67377">
        <ele>2048.23</ele>
        <time>2019-09-12T14:19:00Z</time>
      </trkpt>
      <trkpt lat="45.31111" lon="6.67369">
        <ele>2049.19</ele>
        <time>2019-09-12T14:19:06Z</time>
      </trkpt>
      <trkpt lat="45.31109" lon="6.6737">
        <ele>2049.67</ele>
        <time>2019-09-12T14:19:21Z</time>
      </trkpt>
      <trkpt lat="45.31109" lon="6.67371">
        <ele>2049.67</ele>
        <time>2019-09-12T14:19:38Z</time>
      </trkpt>
      <trkpt lat="45.31124" lon="6.67395">
        <ele>2046.78</ele>
        <time>2019-09-12T14:19:55Z</time>
      </trkpt>
      <trkpt lat="45.31125" lon="6.67398">
        <ele>2043.9</ele>
        <time>2019-09-12T14:19:58Z</time>
      </trkpt>
      <trkpt lat="45.31126" lon="6.674">
        <ele>2049.67</ele>
        <time>2019-09-12T14:19:59Z</time>
      </trkpt>
      <trkpt lat="45.31127" lon="6.674">
        <ele>2045.82</ele>
        <time>2019-09-12T14:20:00Z</time>
      </trkpt>
      <trkpt lat="45.3114" lon="6.67415">
        <ele>2043.9</ele>
        <time>2019-09-12T14:20:15Z</time>
      </trkpt>
      <trkpt lat="45.31148" lon="6.67433">
        <ele>2043.42</ele>
        <time>2019-09-12T14:20:25Z</time>
      </trkpt>
      <trkpt lat="45.31154" lon="6.67467">
        <ele>2041.5</ele>
        <time>2019-09-12T14:20:43Z</time>
      </trkpt>
      <trkpt lat="45.31164" lon="6.67496">
        <ele>2039.57</ele>
        <time>2019-09-12T14:21:00Z</time>
      </trkpt>
      <trkpt lat="45.31174" lon="6.67527">
        <ele>2037.65</ele>
        <time>2019-09-12T14:21:17Z</time>
      </trkpt>
      <trkpt lat="45.31183" lon="6.67555">
        <ele>2035.25</ele>
        <time>2019-09-12T14:21:34Z</time>
      </trkpt>
      <trkpt lat="45.31193" lon="6.67587">
        <ele>2033.81</ele>
        <time>2019-09-12T14:21:53Z</time>
      </trkpt>
      <trkpt lat="45.31202" lon="6.67615">
        <ele>2031.88</ele>
        <time>2019-09-12T14:22:10Z</time>
      </trkpt>
      <trkpt lat="45.31208" lon="6.67649">
        <ele>2029.96</ele>
        <time>2019-09-12T14:22:27Z</time>
      </trkpt>
      <trkpt lat="45.31221" lon="6.67679">
        <ele>2027.08</ele>
        <time>2019-09-12T14:22:47Z</time>
      </trkpt>
      <trkpt lat="45.31232" lon="6.67707">
        <ele>2025.15</ele>
        <time>2019-09-12T14:23:05Z</time>
      </trkpt>
      <trkpt lat="45.31242" lon="6.67727">
        <ele>2021.79</ele>
        <time>2019-09-12T14:23:19Z</time>
      </trkpt>
      <trkpt lat="45.31257" lon="6.6775">
        <ele>2019.39</ele>
        <time>2019-09-12T14:23:36Z</time>
      </trkpt>
      <trkpt lat="45.3127" lon="6.67775">
        <ele>2016.5</ele>
        <time>2019-09-12T14:23:55Z</time>
      </trkpt>
      <trkpt lat="45.31284" lon="6.67795">
        <ele>2014.1</ele>
        <time>2019-09-12T14:24:11Z</time>
      </trkpt>
      <trkpt lat="45.31301" lon="6.67819">
        <ele>2011.7</ele>
        <time>2019-09-12T14:24:28Z</time>
      </trkpt>
      <trkpt lat="45.31318" lon="6.67844">
        <ele>2009.77</ele>
        <time>2019-09-12T14:24:47Z</time>
      </trkpt>
      <trkpt lat="45.31324" lon="6.67878">
        <ele>2007.85</ele>
        <time>2019-09-12T14:25:05Z</time>
      </trkpt>
      <trkpt lat="45.31333" lon="6.67906">
        <ele>2005.45</ele>
        <time>2019-09-12T14:25:22Z</time>
      </trkpt>
      <trkpt lat="45.31346" lon="6.67929">
        <ele>2002.08</ele>
        <time>2019-09-12T14:25:38Z</time>
      </trkpt>
      <trkpt lat="45.31358" lon="6.67958">
        <ele>2001.12</ele>
        <time>2019-09-12T14:25:56Z</time>
      </trkpt>
      <trkpt lat="45.31372" lon="6.67983">
        <ele>2000.16</ele>
        <time>2019-09-12T14:26:13Z</time>
      </trkpt>
      <trkpt lat="45.31375" lon="6.67989">
        <ele>1999.68</ele>
        <time>2019-09-12T14:26:18Z</time>
      </trkpt>
      <trkpt lat="45.31385" lon="6.68005">
        <ele>1996.32</ele>
        <time>2019-09-12T14:26:33Z</time>
      </trkpt>
      <trkpt lat="45.31388" lon="6.68009">
        <ele>1995.83</ele>
        <time>2019-09-12T14:26:37Z</time>
      </trkpt>
      <trkpt lat="45.31399" lon="6.68033">
        <ele>1992.95</ele>
        <time>2019-09-12T14:26:53Z</time>
      </trkpt>
      <trkpt lat="45.31407" lon="6.68052">
        <ele>1990.07</ele>
        <time>2019-09-12T14:27:09Z</time>
      </trkpt>
      <trkpt lat="45.31412" lon="6.68064">
        <ele>1987.18</ele>
        <time>2019-09-12T14:27:20Z</time>
      </trkpt>
      <trkpt lat="45.3142" lon="6.68075">
        <ele>1985.74</ele>
        <time>2019-09-12T14:27:29Z</time>
      </trkpt>
      <trkpt lat="45.3143" lon="6.68104">
        <ele>1984.3</ele>
        <time>2019-09-12T14:27:46Z</time>
      </trkpt>
      <trkpt lat="45.31435" lon="6.68124">
        <ele>1984.3</ele>
        <time>2019-09-12T14:27:57Z</time>
      </trkpt>
      <trkpt lat="45.31437" lon="6.68129">
        <ele>1984.3</ele>
        <time>2019-09-12T14:28:13Z</time>
      </trkpt>
      <trkpt lat="45.31438" lon="6.68129">
        <ele>1984.3</ele>
        <time>2019-09-12T14:28:14Z</time>
      </trkpt>
      <trkpt lat="45.31454" lon="6.68152">
        <ele>1982.86</ele>
        <time>2019-09-12T14:28:33Z</time>
      </trkpt>
      <trkpt lat="45.31472" lon="6.68173">
        <ele>1982.86</ele>
        <time>2019-09-12T14:28:52Z</time>
      </trkpt>
      <trkpt lat="45.31475" lon="6.68179">
        <ele>1982.38</ele>
        <time>2019-09-12T14:28:56Z</time>
      </trkpt>
      <trkpt lat="45.31493" lon="6.68202">
        <ele>1981.41</ele>
        <time>2019-09-12T14:29:15Z</time>
      </trkpt>
      <trkpt lat="45.31508" lon="6.68219">
        <ele>1980.45</ele>
        <time>2019-09-12T14:29:33Z</time>
      </trkpt>
      <trkpt lat="45.31526" lon="6.68238">
        <ele>1980.45</ele>
        <time>2019-09-12T14:29:51Z</time>
      </trkpt>
      <trkpt lat="45.31542" lon="6.6826">
        <ele>1980.45</ele>
        <time>2019-09-12T14:30:09Z</time>
      </trkpt>
      <trkpt lat="45.31563" lon="6.6828">
        <ele>1978.53</ele>
        <time>2019-09-12T14:30:28Z</time>
      </trkpt>
      <trkpt lat="45.31584" lon="6.68283">
        <ele>1979.49</ele>
        <time>2019-09-12T14:30:46Z</time>
      </trkpt>
      <trkpt lat="45.31607" lon="6.68292">
        <ele>1979.49</ele>
        <time>2019-09-12T14:31:05Z</time>
      </trkpt>
      <trkpt lat="45.31613" lon="6.68297">
        <ele>1978.53</ele>
        <time>2019-09-12T14:31:10Z</time>
      </trkpt>
      <trkpt lat="45.31637" lon="6.68304">
        <ele>1978.05</ele>
        <time>2019-09-12T14:31:29Z</time>
      </trkpt>
      <trkpt lat="45.31656" lon="6.68321">
        <ele>1977.09</ele>
        <time>2019-09-12T14:31:46Z</time>
      </trkpt>
      <trkpt lat="45.31674" lon="6.68333">
        <ele>1975.65</ele>
        <time>2019-09-12T14:32:01Z</time>
      </trkpt>
      <trkpt lat="45.31692" lon="6.68357">
        <ele>1975.17</ele>
        <time>2019-09-12T14:32:21Z</time>
      </trkpt>
      <trkpt lat="45.31714" lon="6.68378">
        <ele>1974.69</ele>
        <time>2019-09-12T14:32:42Z</time>
      </trkpt>
      <trkpt lat="45.31733" lon="6.68401">
        <ele>1973.72</ele>
        <time>2019-09-12T14:33:01Z</time>
      </trkpt>
      <trkpt lat="45.31754" lon="6.68415">
        <ele>1971.32</ele>
        <time>2019-09-12T14:33:20Z</time>
      </trkpt>
      <trkpt lat="45.31773" lon="6.68433">
        <ele>1968.92</ele>
        <time>2019-09-12T14:33:39Z</time>
      </trkpt>
      <trkpt lat="45.31785" lon="6.68451">
        <ele>1966.99</ele>
        <time>2019-09-12T14:33:53Z</time>
      </trkpt>
      <trkpt lat="45.31804" lon="6.6847">
        <ele>1966.03</ele>
        <time>2019-09-12T14:34:11Z</time>
      </trkpt>
      <trkpt lat="45.31819" lon="6.6849">
        <ele>1964.11</ele>
        <time>2019-09-12T14:34:28Z</time>
      </trkpt>
      <trkpt lat="45.31838" lon="6.68512">
        <ele>1963.63</ele>
        <time>2019-09-12T14:34:46Z</time>
      </trkpt>
      <trkpt lat="45.31856" lon="6.6853">
        <ele>1963.63</ele>
        <time>2019-09-12T14:35:03Z</time>
      </trkpt>
      <trkpt lat="45.31865" lon="6.68535">
        <ele>1963.63</ele>
        <time>2019-09-12T14:35:10Z</time>
      </trkpt>
      <trkpt lat="45.31879" lon="6.68561">
        <ele>1963.15</ele>
        <time>2019-09-12T14:35:28Z</time>
      </trkpt>
      <trkpt lat="45.31899" lon="6.68576">
        <ele>1961.23</ele>
        <time>2019-09-12T14:35:46Z</time>
      </trkpt>
      <trkpt lat="45.31916" lon="6.68599">
        <ele>1960.27</ele>
        <time>2019-09-12T14:36:05Z</time>
      </trkpt>
      <trkpt lat="45.31932" lon="6.68624">
        <ele>1958.34</ele>
        <time>2019-09-12T14:36:23Z</time>
      </trkpt>
      <trkpt lat="45.31952" lon="6.68638">
        <ele>1955.46</ele>
        <time>2019-09-12T14:36:40Z</time>
      </trkpt>
      <trkpt lat="45.31971" lon="6.68661">
        <ele>1953.06</ele>
        <time>2019-09-12T14:36:59Z</time>
      </trkpt>
      <trkpt lat="45.31986" lon="6.68678">
        <ele>1951.61</ele>
        <time>2019-09-12T14:37:15Z</time>
      </trkpt>
      <trkpt lat="45.32007" lon="6.68691">
        <ele>1949.69</ele>
        <time>2019-09-12T14:37:33Z</time>
      </trkpt>
      <trkpt lat="45.32024" lon="6.6871">
        <ele>1948.25</ele>
        <time>2019-09-12T14:37:50Z</time>
      </trkpt>
      <trkpt lat="45.32042" lon="6.68726">
        <ele>1947.77</ele>
        <time>2019-09-12T14:38:07Z</time>
      </trkpt>
      <trkpt lat="45.32066" lon="6.68738">
        <ele>1946.81</ele>
        <time>2019-09-12T14:38:26Z</time>
      </trkpt>
      <trkpt lat="45.32088" lon="6.68751">
        <ele>1946.33</ele>
        <time>2019-09-12T14:38:44Z</time>
      </trkpt>
      <trkpt lat="45.32112" lon="6.68764">
        <ele>1945.85</ele>
        <time>2019-09-12T14:39:04Z</time>
      </trkpt>
      <trkpt lat="45.32133" lon="6.68779">
        <ele>1944.88</ele>
        <time>2019-09-12T14:39:22Z</time>
      </trkpt>
      <trkpt lat="45.32153" lon="6.6879">
        <ele>1942.96</ele>
        <time>2019-09-12T14:39:39Z</time>
      </trkpt>
      <trkpt lat="45.32175" lon="6.68802">
        <ele>1941.04</ele>
        <time>2019-09-12T14:39:55Z</time>
      </trkpt>
      <trkpt lat="45.32198" lon="6.68809">
        <ele>1939.6</ele>
        <time>2019-09-12T14:40:13Z</time>
      </trkpt>
      <trkpt lat="45.32222" lon="6.68818">
        <ele>1937.67</ele>
        <time>2019-09-12T14:40:33Z</time>
      </trkpt>
      <trkpt lat="45.32241" lon="6.68832">
        <ele>1936.23</ele>
        <time>2019-09-12T14:40:50Z</time>
      </trkpt>
      <trkpt lat="45.32259" lon="6.68845">
        <ele>1934.79</ele>
        <time>2019-09-12T14:41:05Z</time>
      </trkpt>
      <trkpt lat="45.32283" lon="6.68857">
        <ele>1932.87</ele>
        <time>2019-09-12T14:41:24Z</time>
      </trkpt>
      <trkpt lat="45.3231" lon="6.68877">
        <ele>1932.39</ele>
        <time>2019-09-12T14:41:45Z</time>
      </trkpt>
      <trkpt lat="45.32327" lon="6.68895">
        <ele>1930.46</ele>
        <time>2019-09-12T14:42:02Z</time>
      </trkpt>
      <trkpt lat="45.3235" lon="6.68893">
        <ele>1929.02</ele>
        <time>2019-09-12T14:42:19Z</time>
      </trkpt>
      <trkpt lat="45.32373" lon="6.68889">
        <ele>1929.02</ele>
        <time>2019-09-12T14:42:36Z</time>
      </trkpt>
      <trkpt lat="45.32378" lon="6.68889">
        <ele>1929.02</ele>
        <time>2019-09-12T14:42:40Z</time>
      </trkpt>
      <trkpt lat="45.32404" lon="6.68902">
        <ele>1928.06</ele>
        <time>2019-09-12T14:43:00Z</time>
      </trkpt>
      <trkpt lat="45.3242" lon="6.6891">
        <ele>1927.58</ele>
        <time>2019-09-12T14:43:18Z</time>
      </trkpt>
      <trkpt lat="45.32421" lon="6.68908">
        <ele>1927.58</ele>
        <time>2019-09-12T14:43:41Z</time>
      </trkpt>
      <trkpt lat="45.32423" lon="6.6891">
        <ele>1927.58</ele>
        <time>2019-09-12T14:43:59Z</time>
      </trkpt>
      <trkpt lat="45.32431" lon="6.68915">
        <ele>1927.1</ele>
        <time>2019-09-12T14:44:07Z</time>
      </trkpt>
      <trkpt lat="45.32448" lon="6.6893">
        <ele>1926.62</ele>
        <time>2019-09-12T14:44:26Z</time>
      </trkpt>
      <trkpt lat="45.32452" lon="6.68933">
        <ele>1926.14</ele>
        <time>2019-09-12T14:44:40Z</time>
      </trkpt>
      <trkpt lat="45.32453" lon="6.68933">
        <ele>1926.14</ele>
        <time>2019-09-12T14:45:04Z</time>
      </trkpt>
      <trkpt lat="45.32453" lon="6.68933">
        <ele>1926.14</ele>
        <time>2019-09-12T14:45:30Z</time>
      </trkpt>
      <trkpt lat="45.32451" lon="6.68934">
        <ele>1925.66</ele>
        <time>2019-09-12T14:45:56Z</time>
      </trkpt>
      <trkpt lat="45.32452" lon="6.68937">
        <ele>1925.66</ele>
        <time>2019-09-12T14:45:59Z</time>
      </trkpt>
      <trkpt lat="45.32467" lon="6.68959">
        <ele>1924.22</ele>
        <time>2019-09-12T14:46:18Z</time>
      </trkpt>
      <trkpt lat="45.32488" lon="6.68963">
        <ele>1922.29</ele>
        <time>2019-09-12T14:46:36Z</time>
      </trkpt>
      <trkpt lat="45.32514" lon="6.6897">
        <ele>1920.85</ele>
        <time>2019-09-12T14:46:56Z</time>
      </trkpt>
      <trkpt lat="45.32538" lon="6.68982">
        <ele>1919.41</ele>
        <time>2019-09-12T14:47:17Z</time>
      </trkpt>
      <trkpt lat="45.32556" lon="6.69">
        <ele>1918.93</ele>
        <time>2019-09-12T14:47:35Z</time>
      </trkpt>
      <trkpt lat="45.32575" lon="6.69012">
        <ele>1917.97</ele>
        <time>2019-09-12T14:47:52Z</time>
      </trkpt>
      <trkpt lat="45.32597" lon="6.69019">
        <ele>1915.56</ele>
        <time>2019-09-12T14:48:10Z</time>
      </trkpt>
      <trkpt lat="45.3262" lon="6.69024">
        <ele>1915.08</ele>
        <time>2019-09-12T14:48:30Z</time>
      </trkpt>
      <trkpt lat="45.32645" lon="6.69035">
        <ele>1915.08</ele>
        <time>2019-09-12T14:48:50Z</time>
      </trkpt>
      <trkpt lat="45.32665" lon="6.69049">
        <ele>1915.08</ele>
        <time>2019-09-12T14:49:08Z</time>
      </trkpt>
      <trkpt lat="45.32671" lon="6.69057">
        <ele>1916.53</ele>
        <time>2019-09-12T14:49:16Z</time>
      </trkpt>
      <trkpt lat="45.32692" lon="6.69067">
        <ele>1917.01</ele>
        <time>2019-09-12T14:49:35Z</time>
      </trkpt>
      <trkpt lat="45.32706" lon="6.69074">
        <ele>1918.93</ele>
        <time>2019-09-12T14:49:50Z</time>
      </trkpt>
      <trkpt lat="45.32722" lon="6.6907">
        <ele>1920.37</ele>
        <time>2019-09-12T14:50:06Z</time>
      </trkpt>
      <trkpt lat="45.32736" lon="6.6906">
        <ele>1921.81</ele>
        <time>2019-09-12T14:50:20Z</time>
      </trkpt>
      <trkpt lat="45.3275" lon="6.69049">
        <ele>1922.29</ele>
        <time>2019-09-12T14:50:33Z</time>
      </trkpt>
      <trkpt lat="45.32765" lon="6.69032">
        <ele>1922.29</ele>
        <time>2019-09-12T14:50:49Z</time>
      </trkpt>
      <trkpt lat="45.32771" lon="6.69019">
        <ele>1920.85</ele>
        <time>2019-09-12T14:50:58Z</time>
      </trkpt>
      <trkpt lat="45.32781" lon="6.68997">
        <ele>1918.93</ele>
        <time>2019-09-12T14:51:14Z</time>
      </trkpt>
      <trkpt lat="45.32797" lon="6.68977">
        <ele>1915.56</ele>
        <time>2019-09-12T14:51:32Z</time>
      </trkpt>
      <trkpt lat="45.32818" lon="6.68973">
        <ele>1913.16</ele>
        <time>2019-09-12T14:51:48Z</time>
      </trkpt>
      <trkpt lat="45.32844" lon="6.68983">
        <ele>1912.68</ele>
        <time>2019-09-12T14:52:09Z</time>
      </trkpt>
      <trkpt lat="45.32863" lon="6.68991">
        <ele>1914.6</ele>
        <time>2019-09-12T14:52:27Z</time>
      </trkpt>
      <trkpt lat="45.32878" lon="6.68995">
        <ele>1914.12</ele>
        <time>2019-09-12T14:52:42Z</time>
      </trkpt>
      <trkpt lat="45.32896" lon="6.68997">
        <ele>1911.72</ele>
        <time>2019-09-12T14:52:58Z</time>
      </trkpt>
      <trkpt lat="45.32921" lon="6.68999">
        <ele>1909.8</ele>
        <time>2019-09-12T14:53:18Z</time>
      </trkpt>
      <trkpt lat="45.32943" lon="6.69002">
        <ele>1908.83</ele>
        <time>2019-09-12T14:53:35Z</time>
      </trkpt>
      <trkpt lat="45.32966" lon="6.69003">
        <ele>1907.39</ele>
        <time>2019-09-12T14:53:53Z</time>
      </trkpt>
      <trkpt lat="45.32991" lon="6.69007">
        <ele>1905.47</ele>
        <time>2019-09-12T14:54:14Z</time>
      </trkpt>
      <trkpt lat="45.33011" lon="6.69007">
        <ele>1903.55</ele>
        <time>2019-09-12T14:54:31Z</time>
      </trkpt>
      <trkpt lat="45.33033" lon="6.69006">
        <ele>1900.66</ele>
        <time>2019-09-12T14:54:49Z</time>
      </trkpt>
      <trkpt lat="45.33055" lon="6.69007">
        <ele>1897.78</ele>
        <time>2019-09-12T14:55:07Z</time>
      </trkpt>
      <trkpt lat="45.33075" lon="6.69008">
        <ele>1895.86</ele>
        <time>2019-09-12T14:55:25Z</time>
      </trkpt>
      <trkpt lat="45.33097" lon="6.69005">
        <ele>1894.42</ele>
        <time>2019-09-12T14:55:43Z</time>
      </trkpt>
      <trkpt lat="45.3312" lon="6.69003">
        <ele>1891.53</ele>
        <time>2019-09-12T14:56:02Z</time>
      </trkpt>
      <trkpt lat="45.33139" lon="6.69004">
        <ele>1888.17</ele>
        <time>2019-09-12T14:56:20Z</time>
      </trkpt>
      <trkpt lat="45.33159" lon="6.69003">
        <ele>1886.24</ele>
        <time>2019-09-12T14:56:37Z</time>
      </trkpt>
      <trkpt lat="45.33186" lon="6.69003">
        <ele>1883.36</ele>
        <time>2019-09-12T14:56:59Z</time>
      </trkpt>
      <trkpt lat="45.33206" lon="6.69017">
        <ele>1880</ele>
        <time>2019-09-12T14:57:18Z</time>
      </trkpt>
      <trkpt lat="45.33228" lon="6.69027">
        <ele>1877.59</ele>
        <time>2019-09-12T14:57:38Z</time>
      </trkpt>
      <trkpt lat="45.33253" lon="6.69029">
        <ele>1876.15</ele>
        <time>2019-09-12T14:57:58Z</time>
      </trkpt>
      <trkpt lat="45.33268" lon="6.69025">
        <ele>1873.75</ele>
        <time>2019-09-12T14:58:12Z</time>
      </trkpt>
      <trkpt lat="45.33287" lon="6.69009">
        <ele>1871.82</ele>
        <time>2019-09-12T14:58:30Z</time>
      </trkpt>
      <trkpt lat="45.33306" lon="6.69006">
        <ele>1868.46</ele>
        <time>2019-09-12T14:58:49Z</time>
      </trkpt>
      <trkpt lat="45.33329" lon="6.69007">
        <ele>1865.09</ele>
        <time>2019-09-12T14:59:10Z</time>
      </trkpt>
      <trkpt lat="45.33351" lon="6.6901">
        <ele>1863.65</ele>
        <time>2019-09-12T14:59:29Z</time>
      </trkpt>
      <trkpt lat="45.33371" lon="6.69015">
        <ele>1862.21</ele>
        <time>2019-09-12T14:59:46Z</time>
      </trkpt>
      <trkpt lat="45.33387" lon="6.69028">
        <ele>1859.33</ele>
        <time>2019-09-12T15:00:03Z</time>
      </trkpt>
      <trkpt lat="45.33404" lon="6.69031">
        <ele>1855.96</ele>
        <time>2019-09-12T15:00:20Z</time>
      </trkpt>
      <trkpt lat="45.33407" lon="6.69031">
        <ele>1855.96</ele>
        <time>2019-09-12T15:00:24Z</time>
      </trkpt>
      <trkpt lat="45.33428" lon="6.69028">
        <ele>1852.6</ele>
        <time>2019-09-12T15:00:42Z</time>
      </trkpt>
      <trkpt lat="45.33441" lon="6.69027">
        <ele>1849.23</ele>
        <time>2019-09-12T15:00:55Z</time>
      </trkpt>
      <trkpt lat="45.33454" lon="6.69027">
        <ele>1845.87</ele>
        <time>2019-09-12T15:01:08Z</time>
      </trkpt>
      <trkpt lat="45.33466" lon="6.69032">
        <ele>1842.98</ele>
        <time>2019-09-12T15:01:21Z</time>
      </trkpt>
      <trkpt lat="45.33475" lon="6.6904">
        <ele>1839.62</ele>
        <time>2019-09-12T15:01:33Z</time>
      </trkpt>
      <trkpt lat="45.33479" lon="6.69043">
        <ele>1838.66</ele>
        <time>2019-09-12T15:01:38Z</time>
      </trkpt>
      <trkpt lat="45.33491" lon="6.69053">
        <ele>1835.77</ele>
        <time>2019-09-12T15:01:52Z</time>
      </trkpt>
      <trkpt lat="45.33504" lon="6.69062">
        <ele>1832.41</ele>
        <time>2019-09-12T15:02:06Z</time>
      </trkpt>
      <trkpt lat="45.33505" lon="6.69062">
        <ele>1832.89</ele>
        <time>2019-09-12T15:02:07Z</time>
      </trkpt>
      <trkpt lat="45.33523" lon="6.69076">
        <ele>1829.53</ele>
        <time>2019-09-12T15:02:25Z</time>
      </trkpt>
      <trkpt lat="45.33541" lon="6.69085">
        <ele>1826.64</ele>
        <time>2019-09-12T15:02:43Z</time>
      </trkpt>
      <trkpt lat="45.33554" lon="6.69097">
        <ele>1823.28</ele>
        <time>2019-09-12T15:02:58Z</time>
      </trkpt>
      <trkpt lat="45.33565" lon="6.69106">
        <ele>1819.91</ele>
        <time>2019-09-12T15:03:12Z</time>
      </trkpt>
      <trkpt lat="45.33576" lon="6.69119">
        <ele>1816.55</ele>
        <time>2019-09-12T15:03:26Z</time>
      </trkpt>
      <trkpt lat="45.3358" lon="6.69123">
        <ele>1815.59</ele>
        <time>2019-09-12T15:03:31Z</time>
      </trkpt>
      <trkpt lat="45.33594" lon="6.69134">
        <ele>1811.74</ele>
        <time>2019-09-12T15:03:46Z</time>
      </trkpt>
      <trkpt lat="45.33606" lon="6.69144">
        <ele>1808.38</ele>
        <time>2019-09-12T15:04:01Z</time>
      </trkpt>
      <trkpt lat="45.33622" lon="6.69154">
        <ele>1805.97</ele>
        <time>2019-09-12T15:04:19Z</time>
      </trkpt>
      <trkpt lat="45.33632" lon="6.69158">
        <ele>1804.53</ele>
        <time>2019-09-12T15:04:37Z</time>
      </trkpt>
      <trkpt lat="45.33646" lon="6.69169">
        <ele>1801.17</ele>
        <time>2019-09-12T15:04:52Z</time>
      </trkpt>
      <trkpt lat="45.3366" lon="6.69186">
        <ele>1797.8</ele>
        <time>2019-09-12T15:05:10Z</time>
      </trkpt>
      <trkpt lat="45.33671" lon="6.69202">
        <ele>1794.44</ele>
        <time>2019-09-12T15:05:26Z</time>
      </trkpt>
      <trkpt lat="45.33679" lon="6.69215">
        <ele>1791.07</ele>
        <time>2019-09-12T15:05:38Z</time>
      </trkpt>
      <trkpt lat="45.33688" lon="6.6923">
        <ele>1788.19</ele>
        <time>2019-09-12T15:05:51Z</time>
      </trkpt>
      <trkpt lat="45.33691" lon="6.69234">
        <ele>1787.23</ele>
        <time>2019-09-12T15:05:54Z</time>
      </trkpt>
      <trkpt lat="45.33701" lon="6.69237">
        <ele>1783.86</ele>
        <time>2019-09-12T15:06:06Z</time>
      </trkpt>
      <trkpt lat="45.33714" lon="6.69241">
        <ele>1780.98</ele>
        <time>2019-09-12T15:06:20Z</time>
      </trkpt>
      <trkpt lat="45.33709" lon="6.6925">
        <ele>1778.58</ele>
        <time>2019-09-12T15:06:34Z</time>
      </trkpt>
      <trkpt lat="45.337" lon="6.69251">
        <ele>1776.17</ele>
        <time>2019-09-12T15:06:45Z</time>
      </trkpt>
      <trkpt lat="45.33684" lon="6.69251">
        <ele>1772.33</ele>
        <time>2019-09-12T15:07:02Z</time>
      </trkpt>
      <trkpt lat="45.33671" lon="6.69255">
        <ele>1769.92</ele>
        <time>2019-09-12T15:07:16Z</time>
      </trkpt>
      <trkpt lat="45.3367" lon="6.69272">
        <ele>1768.96</ele>
        <time>2019-09-12T15:07:27Z</time>
      </trkpt>
      <trkpt lat="45.33674" lon="6.69288">
        <ele>1767.52</ele>
        <time>2019-09-12T15:07:36Z</time>
      </trkpt>
      <trkpt lat="45.33685" lon="6.69306">
        <ele>1768</ele>
        <time>2019-09-12T15:07:49Z</time>
      </trkpt>
      <trkpt lat="45.33695" lon="6.69322">
        <ele>1768</ele>
        <time>2019-09-12T15:08:01Z</time>
      </trkpt>
      <trkpt lat="45.33699" lon="6.69336">
        <ele>1767.04</ele>
        <time>2019-09-12T15:08:09Z</time>
      </trkpt>
      <trkpt lat="45.33711" lon="6.69355">
        <ele>1767.04</ele>
        <time>2019-09-12T15:08:25Z</time>
      </trkpt>
      <trkpt lat="45.33728" lon="6.69368">
        <ele>1767.04</ele>
        <time>2019-09-12T15:08:38Z</time>
      </trkpt>
      <trkpt lat="45.33746" lon="6.69378">
        <ele>1767.04</ele>
        <time>2019-09-12T15:08:52Z</time>
      </trkpt>
      <trkpt lat="45.33767" lon="6.69396">
        <ele>1766.56</ele>
        <time>2019-09-12T15:09:09Z</time>
      </trkpt>
      <trkpt lat="45.33782" lon="6.69413">
        <ele>1766.08</ele>
        <time>2019-09-12T15:09:22Z</time>
      </trkpt>
      <trkpt lat="45.33796" lon="6.6943">
        <ele>1764.64</ele>
        <time>2019-09-12T15:09:37Z</time>
      </trkpt>
      <trkpt lat="45.33814" lon="6.69452">
        <ele>1761.75</ele>
        <time>2019-09-12T15:09:54Z</time>
      </trkpt>
      <trkpt lat="45.33823" lon="6.69465">
        <ele>1760.79</ele>
        <time>2019-09-12T15:10:03Z</time>
      </trkpt>
      <trkpt lat="45.33826" lon="6.69471">
        <ele>1759.83</ele>
        <time>2019-09-12T15:10:07Z</time>
      </trkpt>
      <trkpt lat="45.33833" lon="6.69479">
        <ele>1759.35</ele>
        <time>2019-09-12T15:10:14Z</time>
      </trkpt>
      <trkpt lat="45.33852" lon="6.69492">
        <ele>1757.43</ele>
        <time>2019-09-12T15:10:30Z</time>
      </trkpt>
      <trkpt lat="45.33865" lon="6.69505">
        <ele>1756.95</ele>
        <time>2019-09-12T15:10:43Z</time>
      </trkpt>
      <trkpt lat="45.33885" lon="6.69517">
        <ele>1755.5</ele>
        <time>2019-09-12T15:10:58Z</time>
      </trkpt>
      <trkpt lat="45.33905" lon="6.6952">
        <ele>1754.54</ele>
        <time>2019-09-12T15:11:15Z</time>
      </trkpt>
      <trkpt lat="45.33912" lon="6.6952">
        <ele>1754.06</ele>
        <time>2019-09-12T15:11:21Z</time>
      </trkpt>
      <trkpt lat="45.33926" lon="6.69517">
        <ele>1753.1</ele>
        <time>2019-09-12T15:11:33Z</time>
      </trkpt>
      <trkpt lat="45.33943" lon="6.69511">
        <ele>1752.14</ele>
        <time>2019-09-12T15:11:49Z</time>
      </trkpt>
      <trkpt lat="45.33945" lon="6.69511">
        <ele>1751.66</ele>
        <time>2019-09-12T15:12:04Z</time>
      </trkpt>
      <trkpt lat="45.33943" lon="6.69509">
        <ele>1751.66</ele>
        <time>2019-09-12T15:12:08Z</time>
      </trkpt>
      <trkpt lat="45.3394" lon="6.6951">
        <ele>1751.66</ele>
        <time>2019-09-12T15:12:11Z</time>
      </trkpt>
      <trkpt lat="45.33925" lon="6.6951">
        <ele>1752.62</ele>
        <time>2019-09-12T15:12:24Z</time>
      </trkpt>
      <trkpt lat="45.33915" lon="6.69508">
        <ele>1753.1</ele>
        <time>2019-09-12T15:12:37Z</time>
      </trkpt>
      <trkpt lat="45.33911" lon="6.6951">
        <ele>1753.1</ele>
        <time>2019-09-12T15:13:00Z</time>
      </trkpt>
    </trkseg>
  </trk>
</gpx>